GFSCGP_500_spd_000.txt.gz
Wind_Speed
32 33 30 33 34 32 36 34 36 36 40 34 34 36 37 36 33 33 30 32 31 29 31 32 35 39 41 41 42 42 42 41 42 41 38 38 40 44 48 49 50 50 53 54
34 34 36 38 35 36 38 39 40 40 44 40 36 40 37 36 34 32 33 34 31 32 34 34 36 42 45 43 43 43 42 42 42 40 40 42 45 48 50 52 51 53 55 56
38 40 41 38 40 40 41 42 42 45 46 43 44 41 38 37 36 33 34 36 32 34 36 37 39 44 46 44 43 43 43 42 41 41 43 46 49 49 53 54 52 57 58 59
43 43 41 41 44 43 44 45 46 45 48 46 46 45 41 35 34 35 36 34 33 36 39 41 43 45 45 44 42 42 43 42 41 43 45 48 49 51 55 53 56 59 62 64
45 44 47 46 44 47 47 47 46 46 47 47 48 49 39 38 37 33 36 34 33 38 41 44 47 45 44 41 39 42 42 43 44 46 47 48 51 54 54 54 59 63 64 67
45 48 46 45 47 47 46 44 45 45 47 50 44 44 42 38 40 40 38 38 37 40 44 46 46 44 41 38 40 42 44 43 44 45 47 50 53 54 54 58 63 64 67 70
43 48 47 47 47 46 45 44 45 47 49 48 43 46 44 42 41 42 41 42 40 44 45 45 44 41 38 38 41 42 42 41 44 48 51 52 52 53 56 61 64 66 69 71
48 48 47 44 45 42 43 45 47 48 46 46 47 50 46 42 42 42 42 43 42 45 46 45 42 39 37 39 40 40 43 46 48 49 50 51 51 54 58 63 65 68 69 74
48 51 45 49 43 44 47 50 42 47 47 49 48 47 43 42 43 44 42 40 39 44 45 43 40 38 39 40 41 42 45 46 46 48 49 50 52 55 61 63 66 68 71 74
51 54 49 54 54 47 49 49 49 48 50 51 50 47 46 45 48 46 40 41 41 42 42 40 38 38 39 40 42 44 44 45 47 48 48 51 53 57 61 65 67 70 72 76
52 52 55 60 60 54 49 49 53 51 52 53 55 52 47 49 50 48 47 45 43 45 42 38 37 38 39 40 43 44 44 45 47 48 50 51 52 58 61 65 66 69 73 79
55 54 56 61 59 57 59 57 57 61 57 57 58 59 52 51 51 51 49 42 40 45 45 38 37 38 39 41 43 44 45 46 47 48 50 50 55 58 63 63 67 70 75 80
63 59 61 59 63 68 64 63 58 58 56 62 63 60 51 55 52 48 48 45 45 47 45 39 38 38 39 41 43 45 47 45 47 49 50 52 55 59 62 64 65 70 75 81
71 69 67 71 66 62 65 61 60 60 63 61 64 58 53 52 51 46 46 44 47 44 42 40 40 40 41 44 46 47 47 46 48 50 50 53 56 61 61 62 66 71 77 81
73 74 73 71 67 63 63 65 62 66 64 65 56 57 47 43 42 39 44 49 50 41 37 40 41 42 44 46 48 48 47 47 48 51 50 54 57 59 60 62 66 71 77 82
73 83 83 79 72 67 67 66 66 69 65 64 59 57 43 38 43 35 47 50 47 43 37 41 41 43 45 46 49 49 48 47 48 50 51 55 59 57 60 62 65 71 76 83
66 64 75 84 77 75 75 74 70 68 70 64 60 48 38 39 41 37 42 46 46 45 44 42 42 44 46 48 50 49 47 48 49 49 52 55 59 57 60 62 65 72 77 81
61 79 54 70 77 86 82 73 70 70 66 63 59 49 41 40 43 42 49 47 42 45 44 44 44 45 47 49 50 50 49 48 49 50 53 56 56 56 58 61 65 72 78 78
77 81 73 67 54 72 79 70 71 73 70 61 58 51 46 42 44 45 49 38 45 43 42 44 45 47 47 49 49 47 45 46 49 50 54 55 54 55 57 62 66 72 78 75
76 69 71 61 72 66 58 60 60 70 74 62 56 51 44 36 40 37 32 40 42 43 43 45 47 47 48 50 50 48 48 51 49 51 53 53 54 54 57 62 68 72 78 75
54 53 61 61 49 47 53 41 51 65 63 60 53 46 45 45 42 41 41 44 42 44 46 47 48 48 49 50 50 47 49 49 47 51 51 53 52 54 57 63 68 72 78 73
55 53 50 66 52 32 30 47 55 62 57 42 39 38 42 40 39 41 42 45 46 45 45 47 47 49 50 51 47 46 48 46 47 49 51 52 52 55 58 64 70 74 77 69
50 41 42 48 59 26 29 40 47 68 52 54 55 51 46 45 46 49 49 50 48 46 46 47 48 50 49 48 46 45 48 47 47 48 51 50 53 55 59 65 71 76 78 66
50 49 53 55 51 39 31 40 46 59 58 60 55 53 50 47 47 47 49 51 51 47 48 49 48 46 45 47 45 47 47 46 46 48 50 52 53 55 60 66 72 75 79 61
49 52 46 51 50 54 48 41 51 54 54 59 64 55 50 48 44 44 46 48 47 47 45 43 44 44 44 45 44 46 42 42 44 47 50 51 53 56 61 67 72 77 71 57
47 50 50 48 45 46 55 54 46 53 51 51 41 50 48 48 46 46 46 45 46 47 44 41 43 41 43 43 43 41 40 43 44 48 50 50 54 57 63 67 71 77 61 56

GFSCGP_500_spd_003.txt.gz
Wind_Speed
36 37 31 34 37 35 38 38 36 37 40 41 36 31 35 39 35 35 37 41 39 35 36 36 32 32 33 35 35 37 40 43 42 41 39 39 39 38 39 40 41 42 46 51
35 34 35 40 39 37 39 42 39 42 42 44 42 33 38 39 39 39 39 41 38 38 37 36 35 35 36 38 39 42 44 43 43 42 40 40 40 41 42 42 43 46 50 53
35 35 39 41 40 41 41 44 44 46 48 46 45 42 42 41 41 40 40 39 41 39 38 37 36 36 40 40 42 45 46 46 44 43 41 42 42 43 43 44 46 50 53 52
42 40 41 44 44 45 46 45 48 48 49 49 49 49 45 43 41 42 39 41 40 41 41 36 35 38 41 43 44 47 46 45 44 42 43 41 42 42 44 47 50 53 52 53
44 46 44 47 44 47 50 50 50 50 50 53 52 56 46 44 43 43 41 42 38 42 42 33 33 38 42 45 47 46 47 45 43 41 41 40 42 45 48 50 51 52 53 55
43 47 47 44 46 48 50 50 48 50 52 56 51 52 45 44 44 42 40 39 39 41 39 35 36 40 44 47 47 45 45 44 41 40 40 42 46 48 47 49 51 51 52 56
45 47 48 48 47 48 46 46 47 52 55 54 49 52 48 45 46 47 41 40 38 41 42 38 42 44 45 45 43 43 43 41 40 40 43 46 46 46 48 49 50 51 52 56
52 51 47 46 47 43 47 48 51 54 55 53 51 57 49 46 41 45 42 40 39 40 40 40 43 42 43 42 41 42 41 41 40 42 44 44 46 47 48 49 50 50 53 58
55 55 50 51 49 47 51 54 44 49 53 56 52 49 44 42 40 39 38 37 35 40 36 38 41 41 41 40 40 41 39 39 40 42 43 44 46 46 46 48 48 50 54 60
56 60 54 54 55 56 56 53 53 54 56 55 53 51 47 41 40 38 38 37 36 40 36 40 40 39 40 39 39 37 37 39 41 41 43 44 45 45 46 48 49 51 57 62
62 59 57 56 61 59 57 58 59 55 55 57 58 57 46 42 41 41 41 41 39 41 39 42 40 39 36 38 37 36 37 39 41 42 44 44 44 45 47 48 49 53 58 61
59 62 70 65 60 60 59 59 57 62 64 61 62 64 45 46 48 45 46 43 41 43 41 42 44 42 37 38 37 37 38 39 42 44 44 44 44 45 47 47 51 55 59 60
64 60 68 73 69 65 71 66 64 64 63 66 66 61 45 48 49 49 46 44 42 45 43 43 42 39 39 38 38 38 38 41 44 44 45 44 45 46 48 49 52 56 58 60
71 75 72 79 74 69 71 67 63 61 64 67 69 61 53 49 48 50 48 43 45 45 45 42 33 39 39 37 39 39 40 43 44 45 44 44 45 47 47 50 54 56 57 59
65 76 75 76 79 81 77 73 70 72 73 74 67 67 54 50 47 44 44 46 42 44 42 39 36 39 42 39 40 40 42 45 45 45 43 44 46 47 48 50 54 56 57 59
58 57 65 79 67 79 81 76 76 79 73 76 73 71 62 54 42 42 41 46 44 45 47 43 39 37 42 41 41 40 43 45 45 45 43 44 45 47 48 51 53 54 57 58
55 67 74 73 70 80 85 80 74 75 72 72 76 62 61 57 46 41 41 49 43 48 49 43 40 35 40 42 42 41 44 45 47 45 44 45 48 48 48 51 52 53 55 58
49 48 57 72 76 77 62 57 59 75 71 70 72 67 66 62 50 43 43 51 49 48 43 42 43 39 42 42 41 43 44 45 47 44 45 47 48 47 47 50 52 53 55 59
46 50 56 59 63 73 77 77 65 48 69 68 69 68 67 62 55 47 42 47 47 42 43 44 44 44 45 42 42 44 44 46 45 44 45 46 46 45 47 49 51 52 55 59
46 45 53 53 53 55 58 47 47 62 48 51 63 67 59 61 53 45 37 42 47 43 45 45 46 48 44 43 43 44 45 46 45 43 44 45 45 45 46 48 49 51 55 60
43 44 43 43 44 48 41 46 45 39 48 54 55 57 65 62 60 49 41 41 38 40 44 45 46 45 44 43 44 45 46 46 45 42 42 45 45 44 45 47 48 51 55 60
33 42 41 37 35 35 41 40 43 51 36 38 47 62 50 49 53 51 43 39 45 44 47 48 47 47 45 45 45 45 46 45 42 43 43 47 42 40 44 45 47 50 55 61
37 39 40 36 37 26 24 29 35 63 45 25 42 48 62 50 50 50 47 42 44 45 47 49 49 49 47 47 45 45 46 42 42 42 43 41 37 40 43 44 46 51 57 62
44 50 46 44 42 44 43 46 47 50 66 36 43 43 45 46 45 51 43 45 45 46 48 50 49 47 46 47 46 45 41 41 40 41 40 37 39 42 43 43 47 53 59 64
42 43 45 51 51 54 51 47 45 46 50 61 42 42 36 50 54 48 45 48 49 50 50 50 48 48 47 47 43 40 39 37 37 41 38 37 40 41 42 43 48 54 60 66
25 33 42 47 46 49 47 45 46 42 43 52 47 41 43 39 51 54 46 45 48 47 46 46 43 42 43 42 39 39 38 38 41 40 37 37 40 40 40 44 49 55 61 69

GFSCGP_500_spd_006.txt.gz
Wind_Speed
35 36 31 32 38 39 40 40 40 36 39 43 43 40 32 39 42 39 37 36 37 37 40 41 39 36 36 36 38 38 35 35 37 40 43 43 43 42 39 40 39 39 38 38
30 31 29 39 40 40 42 43 42 40 42 49 48 43 37 40 40 41 38 39 39 40 42 42 40 38 36 38 40 41 38 38 41 43 46 46 45 43 41 41 41 40 40 43
35 33 35 39 41 43 43 44 45 47 48 50 51 45 42 37 39 40 41 41 41 40 42 43 42 39 39 39 42 43 40 41 43 46 48 47 45 42 42 41 41 41 44 45
41 36 40 43 45 45 46 44 50 51 53 52 52 53 46 43 41 40 41 42 43 43 41 43 42 39 40 41 42 42 42 43 46 48 48 47 44 42 42 41 43 45 46 46
38 39 40 44 42 47 50 50 52 54 56 57 55 59 51 47 42 40 43 45 41 40 42 43 41 41 39 39 41 42 41 45 48 47 46 44 42 42 42 43 46 46 46 48
42 44 47 43 43 46 49 51 51 52 55 62 53 56 51 48 46 45 42 41 41 39 39 42 43 40 35 38 41 40 44 47 45 45 43 42 42 41 43 45 46 46 47 48
49 48 49 53 50 47 44 46 49 55 59 59 50 55 54 45 42 43 45 44 37 36 39 39 42 41 37 40 43 43 45 44 44 41 40 41 41 41 44 45 45 46 46 47
54 53 54 53 56 54 52 50 55 59 58 56 54 60 46 41 37 34 39 41 37 33 32 37 41 36 35 42 42 41 41 41 39 38 40 40 40 42 43 45 45 45 46 47
62 62 59 60 60 59 59 62 52 53 57 60 61 56 48 40 37 35 31 37 37 33 32 32 35 29 34 37 38 37 38 39 37 38 39 40 41 42 44 45 45 45 46 48
66 71 67 67 66 66 66 61 63 61 63 65 64 60 50 43 40 37 36 35 34 34 32 33 29 30 37 37 36 35 36 36 37 38 39 40 40 42 45 45 45 45 45 48
74 77 68 68 69 65 65 67 64 65 65 67 68 65 47 44 45 41 39 35 33 35 33 37 31 34 39 37 33 32 36 36 36 39 40 40 41 43 45 44 44 44 46 47
76 80 79 73 76 70 65 65 66 67 71 71 71 72 50 46 45 45 42 38 35 37 36 42 40 37 39 40 35 36 36 37 38 40 40 41 42 45 44 42 43 45 46 47
79 78 79 82 79 76 72 70 71 66 65 72 76 73 52 52 49 45 43 41 39 37 37 42 42 40 41 41 38 38 36 37 39 40 41 41 44 45 43 41 44 45 46 47
76 64 65 71 74 77 70 68 68 71 73 70 74 72 59 58 56 50 46 44 43 41 43 44 47 44 43 42 40 39 36 38 41 41 41 43 45 44 42 42 43 45 47 48
72 73 73 69 70 74 81 68 72 73 77 76 77 76 63 60 59 54 51 47 44 47 44 43 43 39 37 39 40 41 38 40 42 41 42 44 45 44 41 42 44 47 47 48
73 75 70 77 76 73 88 89 75 68 71 75 81 75 66 64 66 63 56 47 46 47 40 43 45 45 40 41 42 42 41 42 42 41 43 43 44 44 42 43 45 46 46 48
72 64 56 57 61 86 85 76 85 89 76 65 69 78 79 67 62 65 60 48 45 48 43 45 47 47 44 41 43 45 44 44 43 42 43 43 44 42 42 43 45 45 45 46
53 50 53 55 49 59 65 75 66 64 76 78 77 59 66 72 64 59 54 52 47 49 50 52 46 45 46 44 45 46 47 44 42 41 42 43 44 42 42 43 46 46 45 45
39 38 42 38 46 50 45 40 49 47 60 65 77 75 71 73 71 65 64 57 54 50 51 52 48 45 47 44 45 45 45 43 42 43 43 43 43 43 41 43 44 46 44 45
33 38 39 41 47 46 29 36 42 50 47 46 53 59 74 64 52 65 67 59 53 51 53 48 50 46 43 47 47 46 44 43 44 44 42 42 43 43 42 45 48 45 42 43
30 33 37 37 35 39 26 32 35 40 42 37 45 66 32 41 56 49 60 62 51 48 53 52 53 52 50 47 47 45 43 44 45 42 43 43 44 41 43 44 45 40 42 43
36 39 38 37 35 29 29 27 32 35 41 42 37 48 60 37 46 52 51 53 47 52 45 45 47 49 50 50 49 46 44 45 42 43 43 43 43 42 43 43 39 39 40 41
38 35 38 45 42 37 33 44 37 37 39 34 35 33 60 33 34 41 54 51 52 50 47 47 45 46 48 47 47 45 45 44 43 43 43 45 41 40 41 41 37 38 39 40
32 31 35 35 38 39 43 42 50 47 43 41 41 41 37 39 35 28 38 58 50 46 46 52 50 50 50 49 48 48 47 46 44 44 45 42 37 38 38 37 36 37 37 40
30 30 28 33 32 35 40 41 45 48 50 50 42 42 38 49 28 33 34 50 46 45 45 51 52 49 51 53 49 48 47 46 45 45 42 37 37 39 39 36 35 35 36 41
27 24 25 33 31 34 32 35 36 43 51 55 48 42 43 49 53 32 38 45 43 45 52 48 49 47 48 47 46 47 45 45 47 42 42 36 37 39 39 34 33 33 35 42

GFSCGP_500_spd_009.txt.gz
Wind_Speed
33 34 26 30 37 40 40 41 41 38 38 44 45 47 39 40 46 41 39 41 40 38 39 41 41 41 39 38 38 41 42 43 43 41 39 39 40 42 43 43 42 39 39 41
30 30 31 35 40 41 41 43 42 40 40 50 51 50 47 40 42 44 43 43 42 43 44 44 44 43 40 39 40 42 43 45 44 42 42 42 44 45 46 45 43 40 40 42
36 33 33 37 40 42 41 43 44 46 47 52 56 53 49 44 43 45 46 43 46 46 47 47 46 46 46 40 40 42 44 44 44 43 44 44 46 46 47 46 43 41 41 43
41 36 39 42 45 45 48 45 49 51 55 56 54 60 52 48 46 43 42 43 46 48 48 48 47 47 45 40 43 44 43 42 44 45 45 45 47 47 48 44 42 41 42 44
40 39 40 44 44 47 52 51 53 55 59 61 59 65 55 56 49 43 40 45 46 47 44 45 44 44 44 45 44 44 42 41 46 46 45 46 48 48 46 42 41 41 42 44
45 45 48 47 49 51 53 57 57 58 62 67 62 63 61 55 55 49 42 42 44 42 42 40 42 43 41 41 41 40 38 41 44 44 45 48 48 47 43 41 41 41 42 44
46 49 51 53 57 55 55 57 61 65 69 71 66 65 65 58 52 47 41 35 35 38 38 38 38 37 39 40 39 37 37 41 44 45 47 48 46 43 41 41 40 41 42 44
53 51 52 55 60 63 66 63 66 70 71 69 68 75 67 61 55 49 44 33 35 36 34 33 30 37 40 39 38 33 38 44 44 44 45 45 41 41 40 40 40 41 42 45
59 58 59 58 58 60 63 69 66 69 74 76 79 77 73 64 56 51 45 43 35 33 28 28 29 32 35 36 32 35 40 39 38 42 43 41 40 40 39 39 39 41 44 46
65 68 64 65 66 66 68 67 70 72 74 79 83 82 76 66 61 51 48 48 40 32 30 26 28 30 32 33 35 38 40 38 38 40 40 39 39 39 39 39 40 42 44 46
73 77 77 76 75 74 72 73 69 65 66 75 80 84 75 70 62 58 54 52 46 36 33 29 30 30 32 33 36 39 39 35 37 38 40 39 39 39 39 40 41 42 44 45
78 81 86 85 80 81 84 80 79 79 80 77 80 88 73 68 61 58 59 56 49 40 37 36 33 34 35 35 38 39 41 38 40 40 41 40 39 39 40 41 41 43 45 44
88 88 91 93 88 86 85 81 78 73 78 76 82 83 74 73 68 66 65 59 50 42 39 34 34 36 37 36 37 39 42 40 41 40 41 40 39 38 40 41 42 44 44 43
91 92 87 89 89 87 89 77 53 60 70 78 80 80 72 68 71 73 70 66 60 51 47 46 45 44 45 44 40 41 44 45 43 43 40 40 39 40 40 41 42 44 43 42
86 87 80 82 83 81 84 83 80 70 65 72 71 78 81 73 66 62 70 67 63 59 56 50 48 48 46 45 43 44 47 44 45 43 40 40 40 40 40 41 43 43 42 41
69 70 65 71 71 65 64 70 77 76 82 90 79 74 68 73 70 69 71 71 63 60 55 52 51 46 45 47 44 43 45 42 45 45 41 41 41 40 40 41 42 42 41 42
52 55 54 58 49 45 55 56 53 56 51 59 68 74 87 79 67 71 73 70 61 57 56 53 55 54 46 46 45 46 47 48 49 46 43 42 41 40 41 41 42 41 42 42
45 42 49 53 42 40 31 27 34 43 44 39 50 52 55 71 83 76 64 64 65 62 54 49 53 56 53 51 47 46 48 49 49 47 44 43 41 41 42 40 41 41 42 42
41 42 45 42 42 40 34 38 39 40 36 39 40 41 40 55 67 87 81 69 63 63 59 46 53 54 54 57 54 49 49 51 50 46 45 44 43 42 40 41 41 41 41 42
29 32 35 38 43 43 30 33 35 35 38 41 46 39 46 47 51 59 63 77 66 60 57 50 47 52 57 54 55 55 47 50 48 45 46 45 42 41 40 41 40 42 41 42
27 33 36 39 39 43 37 37 39 41 40 32 37 47 50 37 44 45 49 59 84 61 59 57 52 55 61 52 52 57 52 48 47 49 48 43 41 42 41 41 41 41 40 40
33 37 35 38 38 36 32 34 39 42 41 50 38 34 39 41 37 33 44 42 53 69 71 66 65 58 59 56 55 52 51 47 45 46 42 41 43 42 42 42 42 40 39 38
34 36 35 34 38 35 30 33 35 43 46 47 44 45 40 34 38 36 36 48 42 49 55 49 60 60 59 58 54 55 54 51 47 43 42 44 43 42 43 43 43 39 38 38
25 29 33 36 29 33 30 31 33 35 37 39 42 46 50 39 33 35 25 40 40 39 45 52 52 58 52 53 55 54 50 49 46 44 43 43 43 44 44 42 43 38 37 37
25 30 31 35 34 34 29 31 33 31 34 35 35 36 44 46 38 33 28 33 28 33 45 41 53 58 58 55 50 47 44 44 43 42 43 45 45 43 40 43 39 36 36 36
30 29 34 38 36 35 30 29 34 37 40 40 39 32 30 42 40 38 29 33 34 25 43 49 51 56 55 49 45 43 42 42 44 43 46 44 42 42 42 41 37 33 34 33

GFSCGP_500_spd_012.txt.gz
Wind_Speed
29 32 26 32 37 40 39 41 41 37 38 45 47 49 45 40 46 44 40 41 41 39 40 43 42 44 44 43 41 39 40 42 45 44 44 45 44 43 42 42 43 42 41 41
29 29 30 33 37 41 42 44 43 42 41 49 52 51 49 46 44 46 47 44 41 43 44 45 46 47 45 45 45 42 42 44 46 46 46 47 46 43 44 44 45 45 44 43
34 32 33 36 40 44 45 47 48 49 47 49 56 51 50 47 47 46 47 47 46 44 45 48 50 49 49 47 46 44 45 47 48 48 47 45 44 45 45 45 45 45 45 44
35 33 36 40 42 45 49 49 54 56 59 58 55 61 54 49 49 47 46 45 48 48 48 49 50 50 50 48 49 47 46 46 49 48 45 43 45 47 44 44 45 45 46 45
35 38 42 44 44 48 52 54 54 57 60 63 60 66 49 54 52 51 48 49 49 51 53 51 51 51 50 51 49 47 46 48 47 45 42 45 47 46 43 44 46 46 47 44
33 37 40 43 47 51 55 58 62 64 66 68 62 68 55 54 60 59 54 50 44 45 50 52 52 50 48 49 47 45 44 43 41 42 44 46 47 44 43 46 46 48 45 41
33 36 39 44 48 52 56 60 65 69 71 69 70 73 57 58 62 62 61 58 45 41 44 46 47 48 49 47 41 45 44 43 41 41 43 45 45 43 45 47 47 47 43 41
44 43 47 51 52 56 58 63 66 72 73 73 74 77 66 65 63 63 63 64 55 43 45 46 46 45 46 43 44 44 42 40 38 40 43 46 46 45 48 48 47 43 41 40
55 57 60 64 66 69 67 67 68 75 79 82 82 80 75 70 68 67 67 64 59 51 48 45 43 41 42 43 44 41 42 40 40 41 45 47 48 47 46 45 44 41 41 39
63 67 68 72 70 74 75 78 80 77 79 86 87 87 83 78 76 73 71 70 66 60 60 49 43 41 44 43 41 41 41 38 41 44 46 42 44 46 45 44 41 41 40 39
72 76 74 80 83 87 87 84 78 81 82 78 88 94 86 85 83 80 75 68 60 54 59 50 43 45 43 44 44 45 40 41 43 44 41 40 43 43 42 42 41 42 40 39
75 81 82 87 93 94 91 86 82 81 75 72 77 92 88 89 89 86 83 77 65 52 46 45 43 46 45 44 45 45 43 43 41 40 40 41 43 43 42 43 43 41 39 39
87 94 99 97 101 101 96 90 79 64 64 67 76 81 69 75 76 74 81 86 78 67 60 61 61 51 52 51 50 46 42 41 40 40 41 41 43 41 41 42 42 39 39 39
96 100 103 106 105 104 102 89 76 67 72 74 79 77 68 60 70 72 74 74 72 64 63 63 59 51 52 57 54 52 49 46 43 44 45 41 43 42 43 41 39 39 39 38
101 105 102 102 91 80 72 70 68 67 61 58 66 71 80 84 81 66 80 72 66 65 63 64 57 55 53 55 55 54 54 51 48 47 47 45 46 44 43 40 39 38 37 37
100 104 89 94 65 58 61 55 45 47 49 51 50 53 53 53 67 82 86 72 72 72 65 64 59 54 54 55 59 59 57 55 50 50 50 49 48 45 41 39 40 38 36 38
99 90 72 70 51 49 47 35 36 39 27 29 35 39 37 43 48 58 79 86 79 69 73 74 60 57 53 54 57 59 59 61 54 52 54 50 47 44 41 40 40 37 38 38
80 59 52 50 45 46 38 33 42 44 40 44 44 45 43 42 36 38 50 60 74 88 67 66 62 62 59 54 52 53 55 55 58 57 54 53 46 43 43 42 40 38 39 38
50 38 37 38 41 46 38 36 40 44 42 38 44 40 42 45 48 25 32 42 47 51 74 71 57 63 61 55 51 51 51 52 55 58 57 55 47 44 43 43 40 40 39 37
33 31 36 37 43 49 40 38 40 42 41 43 46 42 40 37 39 43 45 37 43 42 50 77 74 54 58 59 54 48 50 52 51 53 57 56 50 44 44 42 40 40 38 37
34 34 36 38 42 39 33 32 37 40 45 39 44 44 40 46 44 39 38 39 37 40 45 51 58 70 53 49 60 52 50 53 52 52 52 53 49 48 45 41 40 41 38 37
34 33 33 36 37 31 34 36 39 42 41 40 38 40 42 41 37 43 38 39 37 38 37 49 51 43 63 49 41 53 54 55 54 56 54 52 53 50 43 43 41 40 37 39
32 32 32 34 31 31 37 40 40 40 39 36 36 34 38 36 37 36 40 37 39 40 35 46 45 42 45 57 50 45 51 47 52 49 52 51 49 44 40 39 39 38 38 40
28 32 33 34 23 36 38 39 42 39 37 36 37 37 39 41 36 36 40 37 34 33 35 36 39 45 50 48 56 47 52 55 51 54 50 45 49 43 38 38 39 39 40 41
28 33 35 38 36 38 39 39 39 39 39 41 43 46 44 43 40 38 40 39 41 32 32 27 20 24 27 40 48 44 47 56 56 53 49 47 46 45 41 41 42 40 41 38
36 37 33 41 45 42 40 42 46 43 39 44 47 43 38 38 37 36 40 41 45 35 34 41 16 24 35 36 33 50 52 53 49 48 48 47 43 42 39 41 41 41 36 38

GFSCGP_500_spd_015.txt.gz
Wind_Speed
25 24 25 30 33 36 37 39 41 36 36 45 45 47 44 39 44 45 46 46 45 44 40 41 44 46 46 46 45 45 45 42 43 42 43 43 45 46 45 44 42 41 42 41
24 23 27 29 34 36 38 40 40 41 40 45 47 45 45 43 42 46 47 48 48 47 46 47 49 51 51 50 49 48 46 44 44 45 45 46 48 47 46 44 42 45 43 41
26 27 28 32 34 38 40 43 45 47 46 45 52 49 46 45 45 44 46 46 46 48 50 51 52 53 54 54 53 51 51 48 47 49 48 48 48 46 46 44 46 46 41 41
26 28 30 32 33 39 41 42 46 48 51 50 48 53 43 46 47 47 46 47 49 51 51 51 50 52 54 55 56 55 52 50 50 50 49 49 48 48 47 47 48 44 40 43
23 25 25 25 29 31 36 40 43 45 48 50 51 56 45 50 52 52 55 53 49 48 47 49 50 53 54 57 58 57 56 54 53 52 52 50 48 47 48 49 47 43 42 43
24 27 30 33 36 40 46 49 52 54 57 59 58 61 51 55 57 60 57 58 56 54 53 51 53 54 54 54 56 58 58 53 51 50 51 47 45 46 49 48 46 44 41 43
33 34 38 39 46 48 53 58 63 64 65 66 68 72 62 61 63 63 65 65 64 60 60 57 55 57 55 56 56 56 56 54 49 50 50 46 44 47 49 47 45 42 42 44
42 43 46 51 54 57 61 65 69 75 75 77 76 79 75 75 74 73 72 73 73 72 67 60 58 57 55 57 56 57 52 54 52 49 45 44 45 47 46 45 43 42 45 46
49 49 52 54 60 64 66 73 74 80 83 87 88 92 89 86 83 80 78 74 76 76 73 65 51 47 58 58 57 55 55 55 53 51 48 46 46 46 45 46 46 46 47 47
54 59 58 63 64 67 71 75 79 79 84 92 99 99 101 97 93 89 83 80 78 78 78 69 49 46 51 53 55 50 55 57 54 51 48 47 47 47 49 49 47 48 48 46
58 61 62 69 70 76 81 88 89 90 88 78 93 108 105 97 88 84 81 81 80 78 78 72 63 54 55 56 57 55 54 56 55 54 47 44 46 48 49 48 47 48 47 44
61 64 68 70 73 81 89 98 101 94 96 92 67 81 93 82 73 71 74 76 77 72 65 54 46 45 47 48 56 59 57 57 57 54 51 49 50 52 51 49 46 47 46 43
66 70 77 78 85 96 99 100 103 97 82 84 67 76 64 66 70 75 80 78 79 76 68 59 54 48 46 53 62 59 58 59 57 56 54 52 52 52 49 47 46 47 45 43
70 73 77 84 87 94 99 102 104 89 79 62 60 59 55 51 55 66 81 85 83 80 80 75 76 81 71 60 61 54 49 60 60 58 56 55 54 47 47 48 48 47 43 42
72 76 81 87 92 99 100 100 77 54 50 51 54 51 39 32 33 36 47 58 71 72 76 69 73 64 59 69 65 54 48 54 60 59 55 55 51 49 51 50 48 46 42 40
76 80 86 88 95 96 94 68 46 40 40 43 46 46 45 34 34 37 39 44 47 55 56 74 76 66 65 70 74 69 64 59 61 62 57 57 55 54 53 53 49 44 41 39
78 85 92 96 95 89 71 43 36 40 41 45 49 46 45 43 39 41 44 45 44 34 38 41 54 69 64 67 71 78 69 75 60 57 60 57 60 57 56 55 51 43 40 39
80 87 93 97 81 69 51 29 39 45 43 45 46 46 44 46 42 43 41 41 35 40 44 37 40 48 65 67 65 70 65 62 66 60 57 62 53 57 56 56 50 44 41 38
85 88 85 70 59 56 51 36 42 42 35 38 44 44 44 45 45 36 43 44 44 39 37 40 29 34 40 67 57 58 63 63 65 67 60 58 53 57 57 56 53 46 44 40
83 84 69 53 46 49 36 33 36 39 38 38 44 43 43 43 45 37 40 38 38 42 41 37 37 30 35 40 52 57 57 66 63 59 63 62 60 58 56 56 53 48 46 42
75 68 57 44 46 45 31 33 35 40 37 37 40 38 38 39 38 35 34 35 37 34 41 42 36 33 30 37 44 71 57 64 55 55 55 56 53 55 54 54 52 48 43 40
66 59 44 44 43 37 30 35 41 43 38 45 43 39 40 39 35 34 35 37 36 34 32 35 37 37 34 34 41 56 53 51 58 55 52 52 54 53 52 50 46 43 39 40
56 47 43 41 38 34 32 39 39 42 46 43 45 47 47 45 42 41 41 40 40 37 33 33 34 34 35 37 36 45 49 46 57 57 59 54 51 49 50 48 45 41 40 39
47 38 42 45 37 42 39 39 41 42 43 44 46 44 43 46 43 45 44 43 41 40 36 33 32 27 29 35 34 34 42 56 51 59 56 49 47 51 50 46 44 39 36 35
37 41 44 45 44 44 42 41 38 47 41 43 37 39 38 39 37 36 32 35 38 39 34 31 28 29 32 27 30 32 38 43 53 57 50 52 47 44 38 34 35 37 35 34
40 43 41 41 43 46 42 43 47 42 38 36 36 32 35 38 37 37 38 37 37 39 35 27 26 31 37 32 28 35 33 48 41 44 43 51 40 38 38 36 38 33 35 37

GFSCGP_500_spd_018.txt.gz
Wind_Speed
19 18 23 24 27 28 29 31 31 30 31 39 36 39 35 31 36 41 41 42 44 46 46 47 49 48 50 50 50 50 50 50 51 48 47 46 45 46 45 46 45 45 45 43
20 21 25 27 28 31 32 33 33 33 32 37 39 37 36 34 31 35 40 41 43 46 47 48 50 52 54 55 55 55 53 52 52 51 50 50 49 49 48 48 47 46 46 47
21 23 25 26 28 32 32 32 33 34 30 29 37 37 34 31 28 32 36 39 42 47 49 52 54 54 55 56 58 58 58 57 56 54 53 51 52 51 51 49 50 50 52 50
21 22 22 22 22 27 28 28 32 35 39 40 41 45 38 44 44 42 45 45 44 42 44 48 52 55 55 56 59 59 59 59 57 55 54 52 52 52 51 53 53 52 52 48
21 22 24 25 29 32 36 37 41 44 46 50 51 52 50 50 55 55 56 55 57 56 53 52 53 51 52 55 58 60 61 61 61 61 58 56 56 54 54 53 52 52 51 48
26 28 29 32 37 40 43 47 50 51 54 56 61 60 58 60 60 62 67 67 65 64 64 63 63 60 59 57 56 58 61 60 60 59 59 58 56 56 56 54 55 52 51 50
29 33 35 37 42 44 48 52 55 58 60 60 64 63 56 65 71 72 73 76 80 81 79 75 74 71 65 64 64 61 62 61 61 59 56 56 56 57 56 55 55 53 52 50
37 40 42 47 48 51 54 57 60 65 67 67 68 72 70 78 83 86 84 85 88 90 92 92 83 77 69 69 68 67 66 61 62 62 56 52 55 57 55 54 52 54 54 50
43 45 47 52 56 59 61 62 65 71 72 79 79 86 84 85 90 97 98 97 99 102 101 95 89 78 74 63 65 66 68 65 65 63 59 52 55 58 55 51 51 51 51 49
49 53 55 56 57 60 62 65 69 75 82 88 89 91 97 100 101 104 104 102 102 104 101 88 80 71 69 52 49 56 59 65 68 64 63 58 56 58 58 54 52 51 50 48
51 55 56 60 64 66 67 73 77 81 85 91 98 96 99 100 100 102 100 101 93 92 84 77 74 75 74 64 56 56 64 64 59 59 61 56 58 58 57 57 54 51 51 50
55 57 57 60 65 69 75 79 82 90 91 96 100 110 106 109 100 87 84 83 72 71 77 76 71 67 72 73 76 76 70 63 56 60 55 56 58 58 56 56 54 54 53 51
57 57 59 63 70 75 76 79 83 89 98 103 105 108 93 88 73 59 52 51 46 48 59 72 78 70 68 62 62 73 77 77 71 63 59 58 58 57 57 56 56 54 52 50
56 57 60 65 70 73 77 81 88 95 101 103 98 78 72 57 53 46 39 43 39 39 36 36 47 72 78 59 63 74 70 67 54 58 62 57 58 57 57 57 56 55 54 51
58 61 66 69 71 73 76 85 92 95 97 93 80 58 53 52 48 43 46 45 46 44 40 37 33 34 62 73 66 77 69 62 51 47 54 59 60 57 57 57 54 54 52 51
61 64 67 68 71 74 79 87 90 84 74 63 52 49 46 48 45 41 43 45 44 41 41 39 34 31 31 54 79 78 74 69 59 52 50 54 59 58 57 57 59 55 50 48
63 66 66 67 73 77 84 81 80 77 57 44 45 40 42 46 44 40 42 44 45 44 40 37 38 31 31 31 51 76 86 82 75 65 65 53 56 60 57 58 58 56 50 51
62 66 72 75 77 79 86 68 69 57 46 36 34 37 38 43 45 37 37 40 43 45 45 39 39 39 32 31 31 44 65 66 70 66 74 67 54 59 61 60 59 56 55 53
63 70 75 76 79 82 80 63 58 53 39 37 38 35 38 42 43 34 37 37 37 38 39 38 35 36 34 29 26 27 45 61 76 76 72 65 59 61 63 61 59 58 57 52
66 71 73 74 79 81 62 53 44 42 41 35 39 40 43 43 46 45 44 42 39 34 34 33 34 33 31 30 28 24 23 39 53 63 67 65 69 63 64 60 59 58 53 48
67 70 72 74 72 69 52 48 45 40 41 36 42 43 45 46 47 49 46 41 40 40 40 40 34 31 33 30 29 26 27 24 41 52 59 67 67 62 63 61 58 54 52 47
66 68 70 71 68 58 51 47 44 45 43 45 45 43 43 42 42 39 42 41 41 42 44 44 39 32 33 31 30 28 32 26 31 44 57 62 61 65 64 60 57 55 52 50
62 67 69 62 64 48 46 47 45 43 45 45 42 41 44 44 39 38 37 38 38 38 35 36 38 35 33 33 33 29 32 32 30 48 62 50 59 57 64 60 59 57 53 51
61 68 66 66 49 47 46 42 41 43 45 45 46 52 47 43 38 38 36 39 36 33 36 38 37 34 31 28 31 32 33 37 34 40 55 51 48 55 61 61 59 56 53 44
64 64 60 56 50 48 40 43 44 41 43 44 43 42 43 42 40 41 41 41 36 37 41 41 37 37 27 26 30 33 37 36 33 44 46 52 55 62 48 44 46 47 44 47
65 61 56 50 45 45 43 42 45 47 43 41 46 44 44 48 49 44 40 40 37 39 45 46 35 34 27 25 25 27 33 20 35 47 48 52 49 49 49 44 46 45 46 45

GFSCGP_500_spd_021.txt.gz
Wind_Speed
15 18 20 23 24 26 28 30 29 28 28 36 34 34 26 25 27 32 34 34 37 39 41 44 46 48 50 49 54 55 55 55 53 54 54 51 50 50 49 48 48 47 47 47
18 20 22 23 26 28 29 30 29 29 28 31 34 31 29 26 26 26 31 34 35 37 40 42 43 43 46 47 50 54 55 57 59 56 57 56 56 55 52 50 50 49 48 49
19 22 24 24 25 28 27 28 27 31 30 31 38 36 37 41 43 43 42 40 41 42 43 44 42 42 42 42 45 49 53 55 57 58 57 59 59 58 55 51 52 51 51 51
21 22 23 24 26 29 29 31 34 37 40 40 42 46 45 52 50 50 50 48 48 49 49 49 52 54 54 52 48 47 48 53 57 59 59 60 58 57 56 55 54 54 53 52
25 25 27 28 30 31 34 36 39 42 45 48 48 51 50 53 56 60 57 56 58 62 62 64 66 65 65 64 61 58 56 54 56 59 61 60 58 59 57 57 57 58 55 53
28 32 32 34 36 38 40 43 45 49 52 54 59 58 58 44 61 65 68 70 70 73 74 75 76 76 74 73 72 71 67 64 64 63 62 62 60 61 61 58 56 58 58 58
33 35 36 37 39 43 43 48 52 54 57 59 59 61 62 50 69 73 75 78 80 81 83 84 87 82 81 76 72 73 73 72 67 66 66 66 62 61 60 59 58 56 57 57
36 43 39 42 42 45 49 52 53 57 58 59 58 61 63 54 71 80 83 87 91 92 94 95 96 96 93 86 78 72 75 74 72 69 69 72 69 66 64 60 58 53 55 58
43 45 45 49 46 51 55 56 56 61 61 64 67 71 72 67 80 85 85 91 94 100 102 103 105 105 106 107 103 88 74 72 71 72 71 74 74 71 65 61 59 54 55 57
47 50 47 48 50 52 52 53 54 59 67 70 70 70 74 77 84 88 91 89 93 100 103 99 106 110 109 98 95 86 72 65 63 67 70 75 80 77 69 64 60 56 55 55
47 51 50 52 54 55 54 58 63 67 71 74 80 78 75 85 90 96 103 108 107 111 105 103 95 86 84 85 84 79 66 69 67 67 71 77 79 79 75 69 62 58 56 55
46 47 48 51 52 54 57 61 66 71 71 76 80 81 83 90 97 101 107 102 94 80 66 62 51 51 55 63 72 76 74 74 72 65 62 67 67 71 73 66 61 60 58 54
47 48 50 54 58 59 62 67 70 72 77 77 86 88 90 93 99 103 99 62 58 57 51 46 44 41 41 41 48 50 77 78 86 72 67 64 63 59 58 59 56 56 53 57
46 46 48 52 58 61 63 65 67 75 79 82 88 91 92 88 82 82 57 50 52 50 46 45 44 48 47 42 41 44 43 66 84 84 68 67 66 62 56 58 54 52 52 54
46 51 55 58 59 62 64 66 70 73 81 87 87 91 86 69 54 43 43 46 50 50 45 44 41 38 45 41 41 42 41 43 57 80 73 70 70 69 61 59 59 57 55 54
52 54 58 61 60 63 66 69 76 79 80 86 82 83 59 57 47 39 40 44 48 47 46 42 43 38 38 40 43 46 42 40 39 53 73 76 63 67 69 64 61 59 57 55
56 60 64 61 63 67 70 76 75 78 79 81 73 70 54 48 42 38 44 48 48 46 47 46 43 40 37 35 39 40 44 33 33 38 53 62 74 55 70 66 65 59 54 56
62 62 66 67 68 69 72 71 74 77 79 70 64 58 46 44 44 36 46 51 50 47 48 51 46 38 33 34 38 37 40 38 33 31 36 48 61 47 54 71 70 63 55 57
58 61 66 66 68 69 74 70 73 76 78 57 55 43 37 43 49 38 45 48 49 49 45 48 46 44 38 35 37 40 37 37 33 27 30 33 63 51 44 54 69 68 61 60
58 60 65 68 71 69 67 71 74 78 72 52 45 44 46 46 50 45 45 42 44 44 44 43 42 42 43 40 40 38 37 34 31 25 27 30 45 66 54 51 57 67 61 58
59 63 65 67 67 70 69 72 72 68 58 49 49 47 45 46 50 46 45 47 40 41 40 39 39 40 34 35 42 39 36 37 33 28 28 30 33 50 53 60 46 65 62 60
56 63 64 65 68 63 64 64 57 57 55 50 50 47 50 53 51 50 50 44 40 40 38 39 35 31 34 40 35 39 36 36 35 31 28 29 29 39 56 56 57 62 64 58
60 64 65 64 63 67 62 57 54 52 43 47 52 52 53 52 50 46 45 41 39 42 43 40 39 39 36 40 42 38 39 34 34 33 31 29 30 39 59 54 56 61 66 62
59 64 65 66 61 66 56 52 51 52 52 52 50 49 50 53 50 50 47 43 43 44 43 44 38 39 37 41 39 36 35 34 30 33 36 31 29 39 58 56 60 46 67 63
61 64 65 65 65 71 55 53 53 54 55 56 55 53 50 51 51 55 56 51 46 45 39 40 40 40 40 42 37 31 33 33 29 33 37 31 30 40 59 55 60 51 67 68
63 67 68 68 64 64 56 53 55 58 60 57 56 54 52 54 55 57 58 57 55 53 51 49 45 45 44 42 33 28 29 26 26 32 40 35 35 40 49 53 49 47 67 67

GFSCGP_500_spd_024.txt.gz
Wind_Speed
10 17 16 20 22 22 23 24 25 24 26 31 29 27 21 20 23 26 30 33 36 36 37 38 35 34 35 38 40 41 43 47 53 51 47 52 54 51 50 51 51 48 46 46
16 17 17 20 22 24 24 25 24 21 24 28 31 29 33 32 37 33 34 36 40 42 42 39 38 36 33 35 37 38 37 42 45 51 50 47 52 52 51 52 52 49 48 48
15 18 19 22 24 26 26 30 28 31 30 31 37 35 40 42 43 45 46 46 43 43 42 42 41 46 48 49 51 51 49 46 47 47 47 48 45 51 52 51 52 53 52 52
16 18 21 25 27 30 30 34 34 35 39 40 39 48 43 50 55 56 56 55 54 52 52 52 54 55 58 59 60 62 60 57 57 56 56 53 51 46 49 51 53 56 54 53
23 23 25 28 31 34 35 38 40 41 42 47 44 50 46 47 55 57 58 60 61 62 65 66 65 66 64 64 66 68 69 67 66 64 63 64 61 56 52 53 52 55 56 54
26 31 32 34 35 37 40 42 41 43 46 48 51 55 36 41 56 61 64 66 67 68 70 71 70 70 72 73 74 75 76 73 68 68 64 64 68 67 63 58 55 54 57 58
33 34 36 37 39 43 46 47 49 50 52 51 51 48 41 50 56 64 67 70 72 73 74 76 76 78 79 81 83 84 78 79 76 75 71 66 68 75 74 66 62 59 56 57
35 41 38 41 40 44 46 46 46 51 50 51 47 47 44 52 61 65 70 69 70 73 78 82 83 86 89 89 91 88 85 86 76 77 77 72 74 70 73 78 68 66 60 58
39 41 42 44 44 44 45 46 47 51 52 53 54 53 54 59 71 71 68 67 68 76 83 89 88 91 95 101 102 102 95 93 91 82 78 76 77 77 77 77 71 71 67 61
41 41 39 42 40 43 42 44 46 50 55 59 60 60 59 59 62 61 62 66 73 77 80 85 86 94 102 106 107 108 112 107 87 80 81 76 83 84 84 81 79 72 69 68
41 43 42 44 44 44 45 49 53 57 60 63 67 69 68 71 73 75 79 82 89 96 98 101 104 107 103 98 93 91 79 74 70 69 72 80 78 94 95 88 85 75 72 72
38 41 41 43 44 47 51 55 58 61 63 67 70 73 68 75 79 82 85 92 95 99 100 92 84 75 66 64 61 56 54 53 51 49 49 59 79 84 89 98 93 81 82 78
43 44 47 49 51 53 58 61 64 63 66 68 76 78 74 75 79 83 86 92 94 97 91 75 63 56 52 50 50 49 49 53 50 48 48 43 66 86 81 70 71 88 80 77
45 45 48 50 51 57 60 62 62 66 70 73 76 79 76 81 83 83 87 90 86 79 59 52 49 48 48 46 45 44 46 44 47 45 43 45 44 75 85 66 63 68 66 65
46 48 53 56 59 61 63 62 63 65 72 75 74 81 81 79 82 83 82 75 61 53 51 50 48 49 43 47 50 47 45 45 43 45 43 40 41 42 67 73 53 64 65 61
51 53 56 58 59 62 63 63 66 66 69 74 75 75 73 79 79 78 67 49 49 49 51 51 49 48 46 49 52 48 43 42 43 39 37 40 36 36 42 77 49 52 62 58
53 56 59 59 62 64 62 62 62 63 67 71 71 74 73 75 76 74 47 44 51 52 55 49 48 48 48 48 47 46 44 40 40 39 33 39 32 32 33 75 58 30 59 56
50 55 59 60 61 63 63 65 65 63 65 66 70 69 73 71 69 63 50 52 54 53 54 52 49 46 44 44 43 43 41 43 42 37 36 39 35 32 27 45 73 37 50 56
52 56 58 59 62 62 60 66 64 62 63 67 71 72 69 65 61 55 47 48 52 55 53 51 47 43 41 40 42 39 38 38 44 40 38 38 40 25 25 33 72 55 39 58
49 53 56 57 59 59 59 61 64 69 66 68 67 66 61 59 57 53 50 52 54 56 57 55 48 41 38 39 40 34 36 41 41 41 39 38 36 30 20 24 60 54 47 61
46 53 54 55 58 61 63 65 66 68 70 68 66 61 59 60 60 62 57 51 53 53 49 47 46 44 40 41 40 39 38 38 42 39 40 38 34 28 21 21 47 43 43 52
45 51 53 54 58 63 66 65 62 66 68 62 62 60 63 64 64 62 61 59 54 55 56 48 48 45 40 42 43 43 40 40 40 37 41 37 34 28 19 21 38 55 47 55
46 51 52 57 57 61 65 66 66 65 68 65 63 64 69 67 65 62 61 60 59 54 53 53 53 48 43 44 45 45 42 43 38 34 41 39 33 28 22 18 37 58 39 36
48 50 53 56 58 64 66 69 73 68 64 61 62 68 69 69 65 58 57 55 54 53 51 51 53 54 48 43 42 43 42 42 39 33 36 39 33 28 23 21 31 40 33 31
52 50 53 56 62 64 68 68 69 71 67 64 65 68 67 61 55 55 53 53 53 51 48 45 46 48 49 50 46 46 45 42 36 31 31 35 32 32 23 23 31 32 34 33
51 51 56 59 65 68 68 68 66 65 60 62 69 61 54 53 52 53 55 57 57 54 51 46 41 41 40 41 43 43 41 36 33 25 28 32 32 31 25 25 35 41 43 37

GFSCGP_500_spd_027.txt.gz
Wind_Speed
10 12 13 15 15 15 16 18 18 19 22 22 23 21 24 26 29 29 31 32 34 35 36 39 35 31 32 34 34 32 33 34 36 39 43 37 39 44 45 42 43 46 46 46
10 10 12 14 17 19 20 22 22 21 26 28 29 30 31 34 37 38 39 40 41 44 43 41 38 38 33 36 38 43 46 46 47 48 47 47 42 37 42 44 43 43 46 49
10 9 11 16 19 21 24 29 28 30 29 31 35 37 40 41 45 48 50 51 51 50 46 45 45 43 43 42 44 47 51 52 51 51 53 56 56 53 46 44 40 41 45 48
12 15 18 21 25 27 27 32 33 34 37 35 36 40 45 46 49 54 56 56 54 52 49 48 48 49 47 49 50 52 51 54 54 54 56 56 60 62 61 54 51 48 46 46
17 19 21 24 29 33 35 36 38 40 42 43 42 45 47 53 56 57 57 57 57 58 57 56 57 57 55 53 53 56 57 56 59 61 61 65 63 64 64 66 61 55 52 50
22 25 27 29 34 37 38 39 39 42 42 41 42 44 49 51 53 56 58 60 61 62 62 63 62 61 62 61 62 64 65 65 66 68 66 66 69 68 69 70 70 63 60 58
25 26 28 29 31 37 38 39 40 40 40 40 41 45 48 52 54 57 59 61 63 63 65 65 66 65 64 68 71 73 74 74 73 73 74 72 74 75 76 75 77 75 67 62
28 31 32 32 33 37 37 37 38 41 40 40 38 44 49 52 56 56 58 59 60 64 65 67 72 75 75 75 78 79 79 80 79 80 81 84 84 80 76 77 76 80 80 74
31 32 35 36 38 39 40 39 41 43 45 49 50 52 58 65 62 60 59 61 62 65 70 74 75 75 77 79 82 86 89 92 95 96 97 96 94 89 81 78 76 81 86 84
32 32 35 38 37 40 41 40 42 46 52 56 56 59 62 66 63 63 60 58 65 71 71 72 71 70 74 77 83 91 97 99 99 95 88 92 87 81 73 72 78 88 82 86
38 39 40 42 42 43 43 45 49 52 56 60 60 62 64 64 64 67 69 71 75 78 75 74 79 86 90 93 94 92 89 86 83 78 71 64 60 61 59 66 95 98 103 92
38 41 41 41 43 46 48 49 53 57 60 65 67 66 64 65 66 69 75 79 82 81 83 84 87 89 90 85 79 67 63 62 58 56 57 53 47 49 50 49 62 77 108 106
40 43 46 47 50 52 51 52 56 60 62 63 69 68 64 61 66 70 75 79 81 82 81 82 83 82 76 67 60 56 53 52 50 49 49 50 47 46 48 45 49 52 66 102
43 45 47 49 51 52 53 54 58 60 64 65 66 72 65 69 70 73 77 76 76 78 78 77 75 70 62 56 56 54 53 49 52 52 49 45 45 46 43 46 45 49 46 71
43 45 49 49 51 53 55 56 59 61 65 67 62 67 69 70 72 73 74 73 74 74 74 67 63 61 56 55 52 52 51 50 50 50 46 44 38 40 41 45 42 44 40 40
45 48 50 50 53 55 55 58 60 62 64 63 66 66 70 71 71 73 72 67 68 69 63 59 56 52 51 54 51 51 49 47 46 44 44 41 39 37 39 38 39 41 39 31
47 50 52 52 55 58 55 58 60 61 62 63 67 70 69 71 71 71 69 65 66 67 64 61 59 57 57 53 54 50 48 46 41 41 39 36 40 39 38 38 36 40 39 34
48 50 53 54 56 57 54 59 59 59 62 63 68 68 71 73 72 71 62 65 66 66 64 62 60 62 60 57 56 55 46 45 40 38 37 36 38 41 38 39 37 36 38 30
48 50 52 51 56 57 55 58 58 61 58 66 69 71 72 72 74 66 59 63 66 66 64 63 60 59 61 55 50 50 45 45 41 34 36 36 38 40 39 38 38 31 31 29
47 50 53 51 56 55 56 59 60 64 64 68 71 70 72 72 73 66 61 63 65 62 61 60 57 56 58 58 52 54 48 45 43 41 39 39 39 38 38 37 36 27 21 26
49 53 53 52 55 53 58 60 62 67 71 68 69 69 71 72 70 71 70 63 64 60 57 56 55 55 53 54 56 53 48 46 43 42 42 41 38 37 37 34 32 23 22 25
48 51 52 51 54 57 59 60 65 68 68 71 69 72 73 69 66 70 65 63 61 60 59 57 56 53 51 51 53 56 52 47 46 43 40 40 39 38 36 34 26 21 17 26
45 48 50 50 52 56 59 61 64 68 70 71 74 72 71 70 71 68 61 59 61 63 63 63 63 60 56 50 48 50 49 50 46 44 43 39 37 36 33 32 25 19 12 26
43 52 53 55 53 57 56 58 64 67 72 71 72 71 69 68 70 62 62 65 63 58 55 55 54 55 52 48 45 46 45 44 45 41 41 38 36 33 31 28 19 16 13 34
47 54 54 56 58 56 56 60 64 66 70 69 70 68 66 68 64 64 66 60 57 56 53 51 55 55 48 41 35 37 39 37 37 39 38 35 34 29 28 23 16 14 18 35
51 55 56 57 56 54 56 59 64 66 68 67 67 66 63 67 64 65 58 56 56 56 51 49 50 46 37 30 30 30 30 27 25 32 34 32 27 24 27 22 14 15 26 34

GFSCGP_500_spd_030.txt.gz
Wind_Speed
7 8 9 9 9 10 12 13 13 18 22 23 25 27 27 28 33 34 34 35 37 37 39 41 45 45 39 38 37 38 38 37 38 43 43 42 41 41 40 38 36 39 45 49
7 7 8 11 12 13 15 17 18 21 24 28 29 33 35 36 37 40 42 42 42 43 43 45 41 39 38 41 39 39 42 41 45 47 50 51 51 50 49 49 45 41 37 41
5 6 10 13 15 17 20 22 25 26 27 32 34 39 39 41 41 41 42 44 45 45 45 43 42 42 43 42 43 43 44 47 50 52 54 54 52 53 54 52 52 53 49 42
6 9 12 16 19 21 24 27 30 32 32 32 36 40 42 42 43 42 43 45 45 46 45 46 47 48 49 49 48 49 50 52 53 52 57 62 60 59 58 58 57 55 55 54
9 13 15 20 23 25 27 29 32 33 34 34 36 40 44 44 44 45 46 49 50 52 55 55 55 54 53 52 52 53 55 55 58 61 58 64 68 66 65 66 64 64 61 57
12 15 19 24 28 28 28 29 33 33 34 36 37 42 46 47 48 50 52 53 56 59 60 60 57 56 57 58 59 59 61 64 64 66 70 69 74 76 74 73 73 70 69 65
16 19 22 24 28 30 31 33 34 38 39 41 42 48 48 51 52 53 56 59 62 65 65 64 63 61 61 63 63 65 70 72 74 75 76 79 79 81 83 84 81 77 74 72
18 20 23 26 29 32 34 35 38 41 43 45 43 49 51 51 55 57 60 62 66 67 68 68 68 68 67 68 69 72 72 74 74 75 77 82 85 87 88 88 86 84 84 83
21 23 26 31 33 36 39 39 41 44 46 48 49 51 54 56 59 62 64 67 69 68 69 69 70 73 75 79 81 82 82 82 81 83 83 83 83 83 83 83 86 86 86 87
24 26 30 34 37 38 38 39 42 46 49 53 54 56 55 60 65 66 69 70 70 70 70 70 71 72 76 77 79 79 80 82 85 89 91 90 89 89 91 92 89 85 82 85
27 29 32 35 36 38 41 43 46 48 49 54 57 58 56 60 63 65 68 66 65 69 72 74 74 75 81 85 88 89 89 89 86 81 77 73 69 65 60 59 60 64 65 72
32 33 35 37 41 41 42 45 47 50 52 56 60 60 58 59 62 66 65 65 69 73 77 81 87 88 85 85 86 87 85 80 73 68 63 60 57 54 53 52 51 50 55 59
36 37 39 42 44 44 43 45 49 51 53 54 60 60 56 59 59 61 66 69 71 77 83 84 82 82 82 81 78 75 69 61 60 60 58 54 52 53 51 52 51 45 50 53
39 40 41 44 46 47 46 47 49 53 55 58 57 64 57 62 62 64 66 73 77 81 81 80 78 78 77 72 66 63 59 56 55 56 54 52 52 51 52 51 47 44 45 48
41 42 44 45 47 47 47 48 51 54 56 59 57 64 63 63 66 69 72 74 77 76 77 76 75 73 70 64 61 60 57 56 56 56 52 48 47 50 47 48 43 39 38 45
42 45 46 45 47 49 48 48 53 55 58 60 63 61 65 66 72 75 74 74 75 77 77 76 73 70 68 64 64 60 58 56 55 52 52 53 48 47 44 43 42 42 38 38
44 47 48 49 52 52 48 50 55 56 58 60 64 65 65 69 74 75 77 78 79 78 76 74 72 69 66 63 63 62 60 56 55 53 44 46 46 46 44 39 39 41 41 35
47 49 50 54 56 55 51 54 56 55 58 61 65 66 70 73 74 76 74 78 78 76 74 71 68 66 62 63 63 62 60 57 53 51 46 44 45 43 39 36 37 37 38 35
48 49 53 57 57 55 50 53 53 55 54 61 65 68 71 75 76 72 74 76 78 73 72 66 64 65 65 67 64 62 59 56 55 50 45 46 45 42 40 39 38 35 34 33
48 49 53 57 59 57 52 54 57 59 59 63 66 68 72 76 80 77 76 75 72 71 65 64 68 71 70 66 64 61 58 57 55 48 45 44 43 42 39 39 39 38 31 29
50 52 54 58 60 56 52 56 57 60 65 65 67 68 74 76 78 81 81 74 72 68 67 70 69 64 59 59 58 52 49 50 51 48 44 43 42 41 39 35 36 36 27 27
50 51 56 58 61 56 55 56 60 64 64 65 66 71 73 76 76 78 77 73 70 71 70 64 64 61 61 58 53 54 52 49 45 42 39 39 41 38 35 35 33 31 24 26
51 49 55 55 58 51 56 58 61 62 63 64 68 71 77 78 75 78 72 69 69 70 65 65 63 58 54 55 52 51 51 46 39 35 33 32 35 36 32 31 29 24 22 24
52 51 56 60 50 52 58 59 62 62 62 65 70 73 76 75 75 73 71 69 68 64 63 59 57 54 50 47 42 43 38 34 31 32 28 27 27 33 30 26 23 19 20 20
53 54 60 57 51 53 54 59 61 59 62 68 69 72 73 73 74 70 66 67 62 61 56 53 52 48 42 38 36 35 33 31 28 24 20 20 19 23 22 19 18 18 20 17
50 57 58 55 52 52 54 59 57 59 64 64 66 68 70 71 69 63 65 59 59 56 50 48 46 43 40 38 34 30 27 24 19 12 9 8 12 15 14 16 17 19 16 22

GFSCGP_500_spd_033.txt.gz
Wind_Speed
11 10 9 10 10 9 10 11 13 18 21 22 24 27 28 28 30 33 34 35 36 37 39 41 42 44 46 48 43 39 42 42 43 44 46 46 46 47 44 44 44 44 43 46
10 9 9 9 9 10 11 13 16 19 23 25 28 29 29 29 30 32 34 36 37 39 40 41 43 44 44 44 44 45 45 46 46 45 50 51 49 53 55 54 54 52 52 49
8 9 9 11 11 13 15 17 19 21 25 28 32 32 30 29 30 31 31 33 35 38 40 41 41 43 44 46 48 49 51 52 51 53 55 55 55 58 62 61 62 61 58 57
9 9 10 13 14 16 18 22 23 24 26 28 31 38 32 33 34 37 38 40 43 45 46 47 48 50 49 48 48 51 55 58 59 59 58 59 60 62 64 65 67 67 67 66
9 12 14 15 16 18 21 23 25 27 29 29 31 40 38 38 41 45 47 50 53 54 56 57 58 59 59 58 56 55 55 55 56 58 60 63 64 66 67 69 70 70 71 74
12 12 15 16 17 18 21 24 27 27 30 33 36 40 42 46 50 52 54 56 58 60 61 63 64 63 63 61 58 58 59 59 60 64 67 68 70 72 74 77 78 77 78 78
12 13 15 18 19 21 23 26 29 33 34 39 40 44 47 51 53 55 58 60 62 63 64 65 68 69 68 65 62 63 63 64 66 68 69 72 75 77 81 84 85 84 84 86
15 16 19 21 22 23 25 28 33 37 39 40 42 46 49 50 55 57 60 62 64 65 67 70 71 70 68 68 68 69 69 71 76 78 78 76 76 78 80 88 93 94 93 94
17 19 21 22 23 27 29 33 37 40 43 44 46 47 49 52 56 58 62 63 64 67 69 69 67 68 69 71 72 74 78 81 85 85 83 79 81 84 83 84 85 87 91 97
21 22 23 25 28 31 34 38 41 43 46 50 50 50 50 55 59 61 63 64 66 67 67 67 68 71 73 76 78 80 82 83 81 82 84 84 86 87 88 87 85 85 86 90
24 25 28 31 33 36 39 41 43 44 47 52 55 52 51 57 60 63 65 66 67 67 68 70 74 76 77 79 83 87 88 84 83 86 86 87 87 81 70 66 67 70 74 76
28 29 32 34 37 39 41 44 46 48 51 53 57 54 54 56 60 63 65 66 67 68 70 75 77 78 81 85 89 89 87 85 85 86 85 78 67 60 56 59 61 57 55 54
32 34 37 40 41 43 44 46 47 51 53 52 58 54 56 59 61 62 65 66 66 71 74 75 78 82 86 90 88 87 85 84 81 75 71 67 61 56 55 57 56 54 52 48
37 38 41 44 46 46 46 47 49 52 55 57 55 59 51 59 60 61 63 67 71 73 75 78 81 84 90 88 88 85 85 84 75 68 66 65 61 57 55 55 52 49 50 47
41 42 44 46 47 48 48 45 49 54 56 59 56 62 58 61 64 65 68 69 71 74 77 81 85 89 87 88 84 83 79 73 67 65 64 62 60 58 55 52 51 47 45 44
44 47 48 47 49 51 48 45 51 54 56 58 61 60 61 62 65 69 68 69 74 75 80 84 87 89 88 85 83 76 68 66 68 66 65 59 58 57 54 50 49 47 47 46
47 50 53 53 52 54 52 51 52 55 57 59 59 60 62 63 68 69 67 73 77 81 86 87 88 86 84 78 72 72 72 72 68 64 59 54 53 53 51 49 46 42 43 43
51 54 56 58 57 57 55 53 54 60 58 59 62 61 64 65 67 68 71 77 79 85 87 87 87 86 79 78 76 73 69 66 60 56 54 51 50 51 48 49 45 38 40 40
54 56 59 60 60 60 54 57 60 63 60 60 61 64 63 68 70 66 72 76 83 86 87 88 84 82 78 74 72 70 66 63 60 54 49 46 48 47 46 46 44 38 38 38
56 57 59 59 60 60 60 62 65 68 64 63 65 65 67 71 73 68 70 75 80 82 84 82 80 76 75 71 69 67 65 62 59 54 49 50 49 48 42 41 40 36 35 36
55 55 56 58 61 59 59 67 68 65 67 64 64 64 68 70 70 72 74 77 79 81 78 75 71 70 66 64 64 59 56 52 49 48 48 48 47 40 36 35 34 34 32 32
53 54 55 58 60 64 62 65 64 65 62 62 62 65 67 66 68 71 74 77 80 78 73 66 62 57 55 57 57 56 54 50 45 42 41 40 35 33 30 30 29 30 29 26
56 54 55 59 58 59 63 61 64 61 61 61 63 66 65 64 66 69 72 75 76 72 65 62 55 53 51 54 55 52 47 44 40 36 34 31 29 29 28 26 25 26 22 21
53 55 58 61 55 58 62 64 59 58 58 61 63 62 62 64 66 68 72 74 73 67 59 53 53 53 50 49 48 48 45 40 36 34 30 28 25 24 23 20 21 19 17 14
49 48 52 56 56 58 60 57 57 56 58 60 58 59 61 64 66 69 71 72 67 61 54 53 53 54 55 50 47 43 41 38 31 29 27 25 18 16 15 16 18 14 12 13
45 46 50 58 57 58 54 53 53 54 54 55 57 58 60 62 64 67 69 70 63 55 49 52 52 57 53 48 46 43 38 34 32 24 21 19 12 4 10 14 12 11 11 11

GFSCGP_500_spd_036.txt.gz
Wind_Speed
16 15 13 11 12 11 11 12 15 17 17 18 21 22 23 25 27 29 30 31 32 33 35 36 38 39 40 42 44 46 48 49 50 52 54 55 56 55 55 52 47 52 52 52
15 13 12 11 10 10 11 13 16 18 20 21 22 22 22 23 25 26 27 29 29 30 32 35 38 40 41 43 44 46 48 51 53 56 57 58 59 61 61 61 61 56 57 55
13 12 11 10 10 11 13 15 17 19 22 23 26 25 24 26 26 27 29 29 31 35 39 41 43 46 48 50 53 55 57 56 55 55 56 59 62 66 67 68 70 72 70 68
12 12 12 12 12 13 16 17 19 20 22 25 27 30 24 26 26 30 32 35 40 44 46 49 51 53 55 58 60 62 64 64 64 63 60 58 61 64 68 71 71 73 76 77
12 14 14 15 15 15 18 19 19 21 24 26 28 34 27 28 31 37 43 45 48 50 52 54 56 58 60 62 64 65 66 66 63 60 59 59 60 61 63 69 73 73 72 75
15 16 16 17 16 17 19 21 23 24 25 25 29 33 33 37 39 44 47 50 52 54 56 58 59 60 62 65 67 69 70 66 62 61 61 62 64 65 66 68 69 69 71 76
17 16 17 18 19 20 22 24 27 27 27 30 33 37 37 41 44 48 51 53 55 57 59 61 63 65 68 70 71 72 72 71 69 68 68 69 70 72 74 76 77 76 77 78
18 19 19 20 21 22 25 27 29 34 34 35 38 41 44 44 50 53 54 56 59 59 63 64 67 70 72 74 75 76 78 79 79 76 73 72 75 80 84 85 82 78 77 77
20 20 21 22 23 27 28 29 32 35 38 42 44 43 46 49 53 55 59 59 61 63 64 67 70 74 75 75 76 79 80 78 75 74 75 79 86 87 86 83 80 79 80 80
21 22 23 25 28 30 31 33 36 39 44 47 48 47 48 52 56 59 60 62 62 65 68 70 73 74 75 77 78 78 77 77 78 79 84 90 89 84 81 79 81 82 81 80
23 24 27 30 31 33 34 37 40 43 44 49 53 51 51 54 58 61 61 64 66 69 71 74 74 76 77 78 81 80 80 83 84 90 91 87 85 84 83 82 81 77 72 66
26 28 31 33 34 36 37 40 42 46 47 49 52 53 52 55 59 62 64 67 68 70 73 73 75 78 79 80 78 79 82 89 93 93 90 89 89 86 82 73 69 65 64 62
30 32 35 38 39 40 40 43 45 48 49 50 54 53 55 57 62 63 65 66 69 71 72 75 78 80 80 79 80 83 89 94 92 92 89 84 78 73 68 63 62 61 61 58
36 37 39 42 44 44 45 47 48 50 53 56 53 58 52 60 62 62 64 67 67 70 73 77 80 80 78 81 85 92 94 94 90 85 80 76 73 71 68 66 63 59 58 58
41 41 42 44 46 47 48 50 52 53 56 59 57 59 57 61 62 64 65 66 71 74 78 80 81 78 80 84 89 92 91 86 84 80 74 68 65 61 59 58 58 57 56 54
44 46 47 47 48 51 52 51 52 57 57 60 60 60 63 65 66 65 67 71 73 74 78 79 75 77 82 88 90 87 80 71 70 69 66 62 58 55 54 51 51 53 52 50
46 48 50 51 50 53 54 56 57 57 58 58 60 62 65 66 66 67 67 69 72 78 78 74 75 78 85 88 86 79 66 66 65 65 62 59 57 52 49 49 48 49 49 45
49 50 53 55 55 58 59 58 58 59 57 57 61 64 65 66 68 65 67 72 75 75 73 74 77 82 85 84 77 68 66 66 64 63 60 56 54 49 44 41 41 40 44 44
49 52 56 58 60 62 58 57 61 62 57 59 63 64 64 67 66 65 68 72 74 72 74 75 80 84 84 76 71 62 64 64 63 61 59 56 52 48 41 37 41 42 43 44
52 54 57 59 62 64 60 59 61 63 61 61 62 62 65 66 68 64 69 71 68 71 72 76 81 83 77 71 65 64 63 64 64 60 57 54 52 48 45 39 35 38 39 38
56 58 59 59 62 63 56 58 60 60 62 61 61 62 65 66 66 68 68 65 68 68 70 73 78 78 71 65 62 64 68 66 63 59 55 52 49 46 41 39 34 30 30 30
56 57 56 56 57 57 52 56 60 60 60 61 62 63 64 64 65 65 66 68 66 66 68 73 77 71 62 61 62 68 64 58 56 54 52 48 46 41 37 32 26 24 23 25
53 51 54 53 54 51 51 57 58 58 59 59 62 61 60 63 62 64 65 63 65 68 70 75 73 63 57 59 61 67 57 56 57 49 46 45 42 39 34 26 23 19 19 14
47 47 46 49 47 54 59 59 57 55 57 59 58 59 60 60 63 64 62 61 64 66 70 73 67 57 55 58 60 63 58 58 56 45 42 41 37 36 28 18 14 11 11 14
43 45 42 49 55 56 53 50 52 52 53 54 56 57 59 62 62 60 59 61 63 64 69 69 60 52 55 56 60 60 58 60 48 40 35 34 30 28 22 10 2 11 13 11
40 41 45 54 55 55 46 44 48 50 52 53 54 57 61 59 57 56 58 61 63 65 67 62 56 52 55 57 60 57 57 54 49 34 25 26 23 19 13 4 10 12 9 6

GFSCGP_500_spd_039.txt.gz
Wind_Speed
16 16 16 16 17 16 15 16 16 15 13 14 16 16 17 20 22 23 25 26 26 26 27 28 29 31 34 37 38 41 43 46 48 50 53 56 56 54 55 57 60 61 62 62
17 17 16 17 16 15 15 14 16 16 16 16 18 18 19 21 23 25 26 27 28 29 30 31 33 36 40 44 47 49 50 51 52 53 55 57 59 61 64 65 63 62 66 68
18 16 17 16 15 14 15 16 17 18 17 18 19 17 20 22 25 28 29 30 31 32 33 37 40 43 47 49 51 53 55 57 58 60 62 63 64 66 66 64 67 68 68 70
17 17 17 15 15 16 16 18 18 19 19 19 20 23 19 23 27 28 30 31 33 36 40 43 45 48 51 53 56 57 59 61 63 65 67 68 69 69 69 67 65 67 69 73
15 16 16 16 17 18 19 20 19 19 21 23 25 27 21 26 28 29 33 35 38 42 44 47 50 52 54 56 59 60 62 65 67 70 70 70 71 72 73 73 70 69 69 70
16 16 18 18 19 20 21 21 21 23 24 25 26 30 27 30 31 35 37 40 44 46 48 51 53 55 58 60 62 65 67 69 71 72 72 73 74 76 78 78 75 72 72 72
17 18 19 19 20 21 22 23 25 26 26 28 30 33 32 35 37 40 43 46 47 50 52 54 57 59 62 64 67 69 71 73 75 76 77 78 82 84 81 77 75 75 75 75
18 18 19 20 21 22 23 24 27 31 31 33 34 36 38 37 42 45 48 50 51 53 56 57 59 62 66 68 70 73 75 77 79 79 82 83 79 75 74 75 77 79 81 84
20 20 21 22 23 24 24 27 30 34 37 39 38 37 39 41 46 51 53 54 54 55 58 60 63 66 69 71 73 77 79 80 82 84 83 79 79 80 82 87 88 87 86 84
21 21 22 23 24 26 28 30 33 37 42 44 44 42 43 47 51 54 57 56 57 59 61 64 68 70 71 73 76 78 79 82 83 80 79 81 84 90 90 90 87 85 84 83
22 23 23 25 27 29 30 33 37 40 42 47 51 47 46 49 53 58 59 58 60 60 64 69 71 71 74 76 76 78 81 82 79 78 82 85 90 89 85 79 78 80 80 75
23 25 27 29 30 32 35 38 40 44 45 48 51 51 50 54 58 61 61 63 64 67 71 73 73 75 76 76 77 81 81 79 80 82 86 88 85 73 69 69 67 71 74 71
27 29 31 34 35 38 39 41 44 47 49 49 54 51 56 58 60 60 61 63 67 70 72 72 73 73 74 77 80 80 79 79 81 86 88 83 67 65 68 69 69 66 67 61
33 34 37 39 41 42 43 45 47 50 52 55 53 57 50 58 60 60 62 65 68 70 71 72 72 74 76 79 79 78 77 80 85 87 81 69 64 69 67 67 64 62 60 58
39 39 40 42 45 47 47 47 49 51 53 57 56 59 53 58 60 58 61 65 66 67 68 69 72 74 78 77 78 77 78 83 87 81 70 64 69 67 67 67 62 58 56 53
42 44 45 45 47 51 52 48 51 53 57 58 57 56 56 59 59 61 64 65 66 67 68 70 73 76 76 79 76 75 80 85 81 72 64 68 70 70 68 65 60 53 53 49
44 46 48 50 49 54 54 49 52 54 55 56 57 57 59 60 61 62 62 65 66 67 69 70 73 75 77 74 74 77 83 82 72 64 66 70 66 63 63 61 58 52 48 45
46 48 51 53 52 56 56 54 54 56 57 58 59 57 59 59 61 59 63 65 66 67 67 71 73 73 71 72 75 80 83 75 67 64 70 65 63 63 61 57 56 51 45 41
46 48 52 55 57 58 56 55 56 59 61 54 59 57 58 59 59 59 63 64 64 66 69 71 72 70 71 73 77 81 76 67 66 67 71 67 66 66 58 52 52 49 42 36
51 53 56 57 60 63 59 56 55 59 61 58 56 56 58 60 61 60 62 62 64 67 71 72 69 68 72 73 78 79 69 66 66 69 69 66 66 59 49 49 47 44 38 31
49 52 52 53 57 57 50 54 56 57 58 55 56 57 57 57 61 61 60 62 65 69 69 66 67 69 72 75 78 74 66 66 68 71 66 67 59 50 46 46 44 40 28 23
42 44 44 47 48 48 48 54 57 56 54 54 56 56 56 59 58 58 60 62 65 65 63 65 66 68 71 75 75 69 64 67 69 67 67 60 52 42 41 40 39 26 18 15
45 44 47 48 51 47 52 58 58 57 55 56 56 56 55 55 57 57 59 63 62 61 61 63 65 66 70 72 69 64 63 66 68 67 64 53 37 34 35 36 25 14 9 8
43 44 46 49 45 49 55 61 63 60 54 54 53 53 54 55 55 57 61 60 59 60 61 63 65 67 68 67 63 61 63 65 64 60 53 36 26 29 30 24 13 7 4 7
48 46 45 49 52 56 57 61 65 60 54 54 54 53 54 53 56 60 58 57 57 59 61 62 65 67 67 61 57 58 61 60 56 49 37 29 24 25 19 13 13 13 12 10
54 53 53 56 57 61 60 65 67 64 58 57 57 56 56 55 57 56 55 55 57 57 59 62 64 65 60 56 53 55 56 50 43 39 34 27 20 13 14 15 13 10 7 7

GFSCGP_500_spd_042.txt.gz
Wind_Speed
16 16 17 18 19 19 19 20 21 19 18 17 17 17 18 19 20 22 23 24 26 27 27 27 29 31 32 33 35 37 40 43 45 47 49 52 54 55 54 52 52 54 58 61
18 18 19 20 19 20 20 20 20 19 18 18 20 20 20 20 22 24 25 26 28 28 30 31 33 35 37 39 40 43 46 48 51 53 55 57 59 61 63 65 67 68 67 65
20 20 21 20 20 19 20 19 20 20 20 20 21 19 19 21 24 25 27 29 29 31 32 35 37 40 41 43 46 50 52 53 55 57 58 60 62 65 67 68 70 71 72 72
22 21 22 21 19 19 19 20 21 22 22 21 20 21 19 21 24 26 28 30 32 34 36 38 42 44 46 49 50 52 53 56 58 60 62 64 67 69 71 72 71 71 71 71
20 21 21 19 19 19 20 21 22 22 22 21 21 26 20 23 28 30 32 33 35 36 39 42 45 48 50 52 54 54 56 58 61 63 66 67 69 72 74 75 75 74 74 77
19 19 19 19 19 21 21 22 23 23 24 25 25 27 26 28 30 34 36 37 38 40 43 46 48 52 53 55 57 58 60 62 65 66 67 70 73 75 75 74 74 78 82 82
17 17 18 20 21 22 22 23 25 26 25 26 27 30 30 33 37 39 41 42 43 45 46 50 54 56 57 58 59 61 64 67 70 70 71 74 74 74 75 80 83 77 75 74
17 18 19 20 21 22 23 24 26 29 28 31 30 32 34 36 42 44 46 48 49 49 51 55 57 60 60 61 64 67 70 72 73 74 75 75 76 79 81 78 78 78 79 82
19 20 21 21 22 23 24 25 27 30 32 34 35 35 36 41 45 48 51 53 53 54 57 59 62 63 64 66 69 72 74 74 74 74 74 77 79 80 80 79 81 84 87 86
20 21 21 22 23 24 25 27 29 31 36 39 42 41 40 46 50 52 54 56 58 60 61 63 64 65 67 69 71 73 73 73 73 74 76 77 78 79 81 83 86 87 81 73
21 22 22 23 24 26 28 30 33 36 38 42 47 47 44 50 51 56 58 59 62 62 62 65 66 67 70 71 71 71 71 72 73 74 77 79 79 80 82 86 82 77 67 63
21 23 23 25 27 29 31 34 37 41 44 45 49 51 45 53 55 58 59 62 63 63 65 67 68 70 70 70 71 72 72 72 75 79 79 78 79 82 84 81 74 65 64 68
24 26 28 30 32 34 37 38 41 44 47 47 52 50 53 55 59 62 60 62 63 65 66 68 69 69 69 70 72 72 71 75 78 78 76 77 80 83 79 72 64 67 71 70
29 30 33 35 39 40 41 42 44 47 49 51 54 53 49 56 63 61 62 62 64 66 67 68 68 68 70 72 71 72 75 78 76 74 76 79 82 79 72 65 65 68 66 63
35 36 37 39 41 43 44 44 47 48 49 58 53 57 53 58 60 61 62 63 65 65 66 68 68 70 70 69 71 74 76 74 73 76 78 82 80 72 66 64 68 68 65 63
37 39 41 41 43 47 48 46 48 50 51 56 57 57 56 60 60 60 61 61 63 65 66 67 68 67 67 69 73 75 72 72 76 77 80 81 74 68 67 70 73 67 62 64
40 43 45 47 46 50 52 49 49 52 52 56 58 59 61 62 59 59 59 61 62 64 67 67 66 67 68 73 74 70 71 74 75 78 81 75 69 69 71 73 69 67 64 57
42 45 48 50 49 53 55 54 53 55 55 57 58 57 60 58 57 56 59 61 64 65 66 64 65 66 71 71 68 70 73 74 76 80 77 70 69 71 74 73 69 62 53 47
43 46 49 52 54 56 53 50 53 54 54 50 53 53 51 52 56 58 59 60 62 63 61 62 64 69 69 67 69 72 74 75 78 77 71 69 72 76 74 68 60 49 44 44
44 46 48 49 53 55 45 48 49 53 54 54 52 52 53 55 57 60 62 61 58 58 60 61 67 67 65 67 71 73 74 76 76 70 68 71 74 72 66 56 41 38 40 42
39 39 38 42 46 48 47 50 53 55 56 54 55 56 57 58 59 60 60 59 58 59 60 64 67 64 65 69 70 71 74 74 69 66 68 70 65 57 48 37 38 38 38 30
37 41 40 43 44 45 47 52 56 56 57 59 60 61 58 58 61 60 60 59 59 60 62 65 63 62 65 68 70 71 72 67 63 64 63 59 52 46 37 37 36 33 25 17
37 37 40 41 47 47 51 55 61 61 63 65 66 66 63 61 62 62 61 60 60 60 61 62 60 60 64 67 68 69 65 60 60 56 51 52 45 36 34 30 26 19 14 11
42 45 42 46 49 52 56 60 63 67 69 71 71 69 66 64 62 62 61 58 57 57 60 57 56 59 63 65 66 63 58 56 52 36 39 41 36 27 22 18 17 16 14 11
47 48 46 50 55 62 62 68 69 72 73 75 72 67 64 64 62 60 57 57 56 57 56 53 55 58 61 61 60 55 53 52 37 29 30 32 29 23 21 19 17 16 15 15
45 53 58 58 60 65 65 69 71 72 74 73 67 63 61 61 59 56 55 54 53 53 50 52 55 57 57 58 53 49 50 43 27 27 26 24 22 21 21 19 19 18 15 12

GFSCGP_500_spd_045.txt.gz
Wind_Speed
19 19 19 19 20 21 22 23 23 26 24 23 22 20 20 22 23 25 25 25 27 26 26 27 27 28 30 32 35 37 39 40 41 44 45 47 49 51 53 54 55 57 58 58
18 19 16 20 21 22 23 24 25 24 23 22 22 22 23 24 25 26 27 27 27 27 28 29 30 32 35 37 40 42 43 46 48 49 52 54 56 57 59 61 63 64 66 67
19 18 20 22 23 23 24 25 25 24 21 23 23 23 25 25 25 27 28 28 28 29 31 33 35 37 39 42 44 47 49 51 53 55 56 57 58 59 62 64 66 67 67 69
24 20 23 24 25 24 27 23 24 24 24 25 22 26 21 24 26 28 29 30 31 32 34 37 39 42 45 48 50 52 54 56 57 59 61 61 62 64 66 68 69 70 71 72
25 23 24 25 24 24 24 24 24 25 26 25 24 25 25 24 27 29 31 32 33 36 38 41 44 47 51 53 56 57 58 60 61 62 64 65 68 70 71 71 72 73 74 73
23 24 24 23 22 22 23 24 25 26 26 27 25 25 28 25 28 31 33 35 36 39 42 44 48 52 55 58 60 61 62 62 63 65 67 70 71 73 74 75 75 75 76 76
22 21 21 20 21 23 24 25 26 27 26 27 28 29 26 32 33 35 36 38 41 44 46 48 52 57 60 62 63 64 65 65 67 69 71 73 74 74 74 76 77 77 76 77
21 21 20 21 22 23 24 25 25 27 27 30 33 32 34 33 36 40 42 44 46 49 50 54 58 61 63 64 64 65 66 67 70 71 71 72 74 75 77 77 77 78 76 74
20 22 21 22 23 24 23 25 26 29 31 33 35 37 35 37 40 45 46 48 51 52 56 60 62 64 64 65 66 68 70 71 70 70 72 74 77 77 77 78 77 75 74 75
21 24 23 23 24 24 25 26 27 31 32 36 34 41 46 44 46 49 52 54 56 57 61 63 64 65 66 69 69 71 71 71 71 73 76 77 76 77 78 77 74 74 76 81
22 24 22 25 24 25 26 28 30 32 35 39 41 41 45 48 51 54 56 59 60 62 63 64 66 68 70 71 71 72 72 72 74 76 76 76 77 77 76 74 75 79 81 82
23 24 24 24 26 27 28 30 32 36 39 44 45 48 47 49 53 57 60 63 64 66 66 69 71 71 71 71 71 72 73 75 75 75 76 77 76 74 74 77 80 81 82 80
23 25 26 27 30 31 32 34 37 41 44 43 47 48 49 53 56 64 61 61 63 66 69 70 69 70 70 71 72 73 74 73 73 75 77 75 74 76 79 81 80 82 82 77
27 27 30 32 36 38 39 39 40 44 46 46 51 51 51 53 63 67 68 67 65 66 67 69 69 69 69 71 72 73 72 73 74 76 74 73 77 81 82 81 83 83 78 72
33 33 35 36 38 40 41 41 45 47 45 51 52 55 52 57 60 63 65 65 64 65 66 66 66 68 70 70 71 71 73 74 76 73 73 77 81 81 82 84 82 77 73 72
35 38 38 38 41 43 46 44 46 47 50 55 55 56 59 59 61 59 60 60 61 61 63 66 68 68 69 69 70 71 72 74 72 71 76 80 81 82 83 80 76 75 76 76
38 40 43 44 45 46 47 48 48 50 50 53 54 54 58 57 56 55 56 57 59 64 65 67 67 67 67 68 70 70 72 71 70 74 78 80 80 80 77 75 77 76 69 65
40 42 45 45 46 48 49 49 49 50 50 51 51 50 52 54 55 55 57 57 62 64 65 65 67 68 68 69 70 70 70 69 71 75 78 78 77 73 73 74 71 62 56 48
41 43 45 46 48 49 43 41 44 47 46 47 49 49 50 53 54 57 59 62 64 66 68 68 68 67 67 69 68 68 66 68 72 74 75 73 69 68 65 67 58 51 46 45
40 41 40 41 42 44 43 41 42 47 51 53 55 56 57 58 60 63 66 67 68 68 68 68 66 66 66 64 66 64 65 69 71 73 70 64 57 56 60 56 48 47 46 42
32 33 33 35 41 42 41 47 50 54 58 60 61 62 64 65 66 66 68 69 70 69 68 66 63 63 62 63 63 61 65 68 70 68 61 56 43 51 55 52 46 40 33 30
33 33 34 36 41 47 48 53 55 58 59 62 64 66 66 65 66 65 67 69 69 67 64 62 61 61 61 60 59 62 65 67 66 58 56 42 42 45 45 48 43 37 33 30
33 33 37 40 48 49 53 54 57 59 61 63 65 66 67 68 69 70 67 68 66 63 61 59 57 57 57 56 58 61 63 64 56 54 41 37 40 39 42 38 33 30 28 26
37 38 41 48 48 50 53 57 59 62 64 62 62 64 68 70 70 70 67 64 61 58 55 53 52 53 51 53 57 59 61 56 51 39 33 34 36 34 35 28 26 27 29 28
42 47 51 52 51 51 54 59 62 62 62 62 64 68 70 70 66 61 59 56 52 50 48 48 49 47 49 52 55 57 55 48 38 30 32 34 31 29 28 27 29 28 27 24
48 53 54 54 55 57 57 58 59 59 60 65 68 69 67 62 54 47 45 44 44 43 45 45 44 45 48 51 52 52 45 42 28 29 31 30 25 25 21 23 28 24 22 23

GFSCGP_500_spd_048.txt.gz
Wind_Speed
20 20 21 21 19 20 21 23 24 25 28 25 26 23 25 19 24 25 25 26 26 26 26 26 27 27 28 29 30 33 35 37 40 42 45 47 50 51 53 54 56 58 59 61
20 22 17 20 19 21 22 23 24 28 26 26 27 22 24 20 25 26 27 27 27 28 28 28 29 30 32 33 36 38 40 43 45 48 50 54 56 57 59 60 61 62 64 65
19 21 17 20 21 23 23 25 24 28 28 25 26 23 24 24 25 26 27 28 29 29 30 31 32 33 35 38 40 42 45 49 51 54 57 58 60 61 61 62 63 64 66 69
21 17 20 22 24 25 26 25 26 28 27 27 25 26 25 23 26 26 28 29 30 31 33 34 35 37 39 42 45 47 50 53 57 61 62 63 64 63 63 64 65 67 69 70
23 20 22 25 25 25 26 25 25 26 26 27 25 29 26 24 23 27 29 31 32 34 35 37 39 41 45 48 51 54 57 60 63 64 65 65 66 66 68 69 70 71 71 71
26 21 23 25 24 25 24 24 24 25 27 28 27 28 28 28 24 28 30 32 34 36 39 41 43 46 49 52 54 58 61 64 65 65 66 67 69 71 73 74 73 72 71 73
23 23 24 25 24 23 23 24 26 27 26 29 31 29 25 29 32 33 33 35 38 41 43 45 47 51 53 57 61 63 65 66 66 68 69 71 73 74 75 73 73 75 76 77
25 24 20 22 22 23 23 25 26 28 27 29 30 32 34 32 32 33 38 41 43 45 46 49 52 56 60 62 64 66 67 68 70 71 73 74 75 74 73 75 77 78 79 79
23 24 19 22 23 24 23 25 26 29 27 31 29 34 36 38 41 40 44 47 48 50 51 54 58 61 63 65 66 68 70 71 72 73 74 73 73 74 76 77 78 79 79 78
20 25 21 23 24 25 26 26 26 29 31 32 30 31 39 42 45 48 50 52 53 55 57 60 62 64 65 66 68 71 72 73 73 72 71 73 75 77 77 78 80 80 78 76
23 25 22 24 24 26 25 26 27 30 31 35 37 38 40 44 47 50 53 56 58 58 61 62 61 63 66 69 71 72 72 71 70 73 74 75 76 77 79 81 81 78 77 79
24 25 25 23 24 27 26 27 30 33 34 38 40 44 44 45 49 54 59 61 60 62 65 67 68 69 69 69 69 69 70 72 73 75 75 76 79 80 82 81 77 79 81 83
24 24 25 26 27 28 29 31 33 37 41 40 43 42 45 49 56 61 62 61 60 58 60 62 63 65 66 67 68 71 72 73 74 75 76 78 79 80 79 76 79 83 85 85
24 25 28 29 33 33 34 36 38 39 43 42 46 46 47 50 58 61 60 62 63 64 61 60 61 64 66 68 70 73 73 74 75 76 77 77 78 78 76 78 82 83 84 83
29 30 32 33 35 37 39 39 40 44 44 48 46 51 51 54 52 50 51 51 53 54 56 59 61 63 66 68 70 72 73 74 74 75 76 76 75 74 78 80 82 81 77 76
32 34 35 35 38 39 41 40 43 43 45 49 50 49 51 50 48 49 49 52 53 54 58 60 64 66 68 70 72 74 75 73 74 75 73 73 71 74 77 79 75 70 65 71
34 37 40 39 40 42 42 43 43 44 46 47 47 46 47 48 48 49 50 52 54 57 60 62 65 67 70 73 74 74 73 71 72 71 70 69 72 74 76 71 64 58 63 69
38 39 41 41 42 43 45 42 41 41 40 41 43 43 44 47 48 51 54 57 60 62 64 65 68 72 73 73 72 71 68 68 67 66 66 69 72 73 68 61 51 56 59 62
39 42 43 43 43 43 34 35 37 37 37 42 46 47 46 49 52 55 60 62 64 65 67 70 74 75 74 71 68 65 63 64 63 63 65 68 70 64 59 46 50 51 54 54
37 38 37 37 40 39 35 35 35 40 45 47 49 52 54 56 59 62 65 67 67 66 71 74 76 74 69 64 61 58 59 59 59 61 64 66 60 57 44 46 42 47 47 45
29 31 32 34 38 39 35 40 43 46 48 50 52 54 58 63 66 66 66 66 67 70 74 74 71 64 57 54 53 54 56 56 57 60 63 57 54 42 43 38 42 45 47 45
35 34 34 35 37 41 43 45 48 51 54 54 55 57 60 64 66 65 66 67 71 75 74 69 58 51 49 50 51 52 53 54 56 59 54 51 38 39 37 36 40 44 42 34
36 35 37 36 41 43 46 51 55 57 58 58 59 62 65 66 65 66 66 67 71 70 65 56 47 44 46 49 50 50 50 52 54 51 49 38 36 36 33 35 36 37 31 31
38 40 41 43 43 47 51 53 56 58 58 59 62 65 66 67 65 66 68 68 66 54 43 38 39 42 45 46 48 48 50 51 50 46 36 35 34 31 31 32 30 30 27 28
42 44 47 49 50 53 54 54 55 54 55 58 60 63 64 64 64 64 61 57 45 35 35 40 42 42 42 43 45 46 48 49 42 37 32 33 28 25 28 30 28 24 24 29
42 45 49 49 49 52 54 55 56 56 57 60 62 62 63 63 60 56 51 36 31 39 41 39 42 40 40 42 43 44 46 43 39 28 30 29 23 22 30 24 25 21 21 27

GFSCGP_500_spd_051.txt.gz
Wind_Speed
19 19 23 23 19 19 22 23 22 26 24 20 23 22 24 22 22 27 25 26 25 25 24 27 26 27 27 28 29 30 32 33 34 37 39 42 45 48 50 54 57 59 60 62
23 23 20 19 20 20 21 23 21 24 26 23 27 22 25 23 20 27 26 27 26 26 24 26 27 28 30 30 32 35 36 37 39 41 44 47 50 53 56 59 61 62 64 65
19 18 16 19 21 21 23 22 22 26 28 25 28 24 24 22 21 25 26 26 27 26 27 28 29 31 33 35 36 38 40 42 45 47 49 52 55 59 61 62 64 64 65 65
20 17 17 20 23 22 24 25 26 27 30 29 27 29 18 23 23 24 25 26 28 28 30 31 31 32 35 37 40 43 45 47 50 52 56 60 62 63 65 65 65 65 67 69
20 19 21 24 22 25 26 26 26 27 28 29 22 31 19 22 22 23 25 26 27 29 31 34 36 38 40 43 45 47 50 52 56 60 63 65 67 69 69 69 69 70 71 71
22 21 22 24 24 25 26 26 27 27 26 27 26 28 26 23 21 25 25 27 29 30 33 36 39 42 44 46 48 51 54 58 61 63 66 68 70 71 72 73 73 72 70 68
22 21 21 23 24 25 25 23 25 26 25 27 28 29 25 28 27 27 27 26 30 35 38 41 43 44 47 50 53 57 60 62 65 67 69 71 72 74 74 73 72 71 71 73
22 21 20 23 24 22 21 23 24 27 27 28 29 29 31 32 32 32 30 35 37 39 44 45 46 48 52 55 58 61 64 66 68 70 71 73 72 71 70 71 74 75 75 75
22 22 18 19 21 23 22 23 26 28 27 30 28 30 32 33 32 36 40 43 46 47 49 49 51 54 57 59 62 64 67 68 70 70 70 68 69 71 73 73 74 75 76 77
19 21 18 18 20 23 24 25 25 27 29 29 29 31 32 32 36 41 45 48 50 50 49 50 54 56 59 62 64 66 66 66 67 68 69 70 70 71 73 75 76 77 78 79
20 21 19 21 22 24 25 26 26 27 29 32 33 32 37 39 43 47 49 48 48 49 52 55 57 58 59 60 61 63 65 66 67 68 70 71 73 76 78 79 79 79 78 78
22 23 23 23 24 25 24 26 27 29 30 34 36 38 42 44 47 50 52 52 54 56 57 58 58 59 60 61 61 62 64 68 71 73 75 77 77 78 79 79 78 77 75 73
23 23 25 25 25 25 26 29 31 34 36 35 39 39 43 46 49 49 49 51 51 50 51 52 53 55 57 60 63 67 71 73 75 76 77 78 80 81 79 77 76 73 70 73
22 23 25 26 28 30 30 31 33 36 38 40 40 40 42 47 49 50 48 47 46 48 47 48 52 57 61 64 68 71 74 76 77 79 80 81 81 78 74 72 68 68 71 74
25 26 27 29 32 34 34 34 36 39 40 44 43 44 44 46 42 40 39 41 44 47 51 54 58 61 65 69 72 73 75 78 81 82 82 79 75 72 69 66 65 69 72 68
28 30 31 31 34 36 37 38 38 39 42 44 45 43 42 38 35 36 41 46 49 51 53 57 61 65 68 69 70 74 78 82 83 82 78 72 68 65 63 64 67 69 64 53
32 35 37 37 38 39 39 39 41 42 43 42 39 38 35 36 40 42 44 48 51 53 58 62 65 66 67 71 76 79 81 83 81 75 67 64 62 60 62 65 66 60 48 48
37 38 40 41 40 40 40 39 38 37 38 35 33 35 37 40 43 47 49 52 56 60 63 64 66 68 72 76 78 82 83 77 67 61 60 58 58 60 61 62 54 44 42 43
37 39 40 39 39 37 33 33 34 33 35 32 37 38 40 45 48 51 56 58 62 64 64 64 67 70 73 78 83 80 69 59 56 56 55 56 59 58 58 48 42 39 39 44
36 37 35 35 36 37 35 36 37 36 36 40 41 44 48 52 56 57 61 63 65 65 66 68 70 73 77 78 74 62 54 52 53 52 54 56 56 55 46 39 38 35 41 41
28 29 30 34 36 38 37 39 41 42 41 43 47 51 55 58 60 63 64 64 65 66 67 69 71 75 75 66 56 49 50 51 51 51 53 53 52 46 38 37 33 35 37 40
29 29 28 31 35 40 42 45 46 46 48 52 55 57 59 61 63 65 64 65 64 65 66 69 72 71 59 51 48 48 48 48 49 50 50 49 45 37 38 31 30 35 38 39
31 29 32 35 41 45 46 48 49 51 54 55 57 59 62 64 65 64 64 64 63 65 68 70 67 56 48 47 47 45 46 46 47 47 48 43 35 37 33 27 31 38 36 34
32 33 38 43 46 49 49 47 49 52 54 57 60 62 63 63 63 63 63 63 64 66 66 62 54 50 46 44 44 44 45 45 45 47 41 36 32 31 29 27 32 35 34 30
34 42 49 53 54 50 48 49 51 53 55 56 56 58 60 61 61 61 61 62 63 61 57 47 47 45 42 41 41 43 42 43 44 38 37 28 32 28 27 28 30 31 27 29
43 51 56 50 43 44 48 51 52 53 54 55 56 57 60 61 61 60 61 60 54 50 45 43 42 37 37 39 40 40 42 43 38 35 28 28 28 26 25 23 24 26 26 30

GFSCGP_500_spd_057.txt.gz
Wind_Speed
31 30 27 27 28 27 26 25 25 22 24 24 23 19 24 29 26 30 33 32 31 30 29 33 32 31 32 33 33 33 34 35 37 38 39 41 42 44 46 47 49 51 53 55
27 26 28 27 25 25 26 25 24 24 26 25 23 19 22 28 28 30 30 30 30 29 30 33 33 33 33 33 33 34 36 37 39 41 42 44 45 48 50 52 54 56 58 59
26 25 24 24 23 23 24 24 25 26 26 26 26 22 24 29 32 31 31 31 32 31 32 31 32 34 34 34 35 36 38 40 43 44 46 48 50 52 54 56 58 60 62 65
24 21 19 20 22 24 23 24 25 26 27 28 28 33 23 30 30 31 30 31 31 32 33 33 33 34 35 37 37 39 41 44 46 48 50 53 55 56 58 59 62 65 67 70
22 23 21 20 21 22 22 24 26 29 30 31 28 36 25 26 27 29 30 30 30 31 32 32 33 36 36 38 40 42 46 49 51 52 54 56 58 61 63 66 67 69 70 71
20 21 21 21 22 24 25 26 29 31 31 33 29 31 28 25 26 27 28 28 29 30 33 35 35 35 38 41 44 47 50 52 54 56 58 61 64 66 67 68 69 69 69 69
18 19 20 22 23 26 27 28 30 32 31 30 29 29 25 26 27 28 29 30 32 34 34 35 37 40 43 46 49 51 53 56 58 61 63 64 64 65 66 67 67 68 69 71
19 19 21 22 25 27 27 28 29 31 30 28 28 28 28 29 30 31 31 32 33 34 36 39 42 44 47 50 52 54 57 60 61 61 61 60 61 62 63 64 67 71 74 77
19 20 22 23 25 25 25 26 27 28 28 29 28 28 30 29 31 31 33 34 36 39 40 43 46 48 51 53 55 57 59 60 58 57 57 58 60 62 66 71 75 78 81 84
19 20 20 21 23 24 25 25 25 27 30 30 30 30 31 31 32 33 36 39 40 43 45 46 49 52 54 56 57 57 55 54 55 57 57 61 65 69 74 78 81 84 87 88
22 22 20 21 22 24 25 25 27 28 29 31 33 31 32 33 35 38 41 42 43 44 48 51 53 55 56 56 54 52 53 56 57 59 63 67 72 76 80 83 85 88 88 88
22 22 21 22 22 24 25 25 27 28 29 31 32 35 35 37 41 43 44 45 46 49 52 54 55 55 54 52 52 55 57 59 61 65 69 73 77 80 82 84 87 88 89 90
20 20 21 22 23 23 24 25 26 29 31 32 36 37 40 42 45 44 45 48 50 53 54 53 51 49 49 52 55 57 60 63 67 71 74 77 79 82 84 86 87 89 88 81
19 19 20 21 22 23 24 27 30 32 34 36 37 39 43 47 47 48 49 51 52 52 51 51 48 49 51 54 57 61 65 68 71 74 76 78 80 82 84 86 87 80 73 65
18 19 21 24 25 27 28 31 35 36 39 43 41 43 44 45 46 47 48 49 50 51 50 49 52 54 57 60 63 65 68 71 73 74 75 77 79 82 84 83 71 63 58 57
22 23 25 28 30 33 34 36 38 40 42 43 45 45 43 41 42 44 45 49 50 50 52 54 55 58 62 64 66 67 69 71 71 72 74 78 81 81 75 62 57 55 56 59
27 29 31 33 34 38 39 38 39 40 40 40 39 38 39 39 42 44 47 49 51 54 56 58 61 63 63 64 66 67 68 68 70 73 76 77 75 67 57 55 55 57 59 61
31 34 37 38 39 39 39 38 38 37 36 34 35 37 38 40 43 47 50 52 54 57 59 59 60 62 63 63 64 65 67 68 71 74 74 68 58 54 54 55 57 59 58 52
35 36 36 36 37 38 35 34 33 32 31 30 34 37 41 45 46 48 52 53 55 56 57 58 59 61 63 64 65 65 66 69 72 69 59 52 53 53 54 56 59 55 47 43
33 34 35 36 36 35 32 32 30 32 33 36 40 44 49 50 49 48 50 51 53 54 54 56 58 60 62 63 64 66 69 71 66 55 49 51 55 55 55 59 53 44 42 38
31 30 28 30 32 30 28 32 35 37 41 44 48 52 50 46 46 48 51 53 53 54 57 58 60 62 63 65 66 69 69 63 53 47 49 54 57 56 57 53 44 42 39 35
26 27 26 28 31 33 34 37 39 42 46 50 54 48 45 48 50 54 54 54 56 58 60 61 63 65 67 68 69 66 59 52 47 47 51 54 53 53 54 46 39 37 32 29
23 25 30 32 36 37 39 41 43 47 52 50 44 47 50 53 57 58 56 58 60 61 63 64 66 67 70 68 62 55 50 45 45 47 52 50 50 54 47 38 34 28 27 31
26 30 34 38 38 40 42 44 48 48 45 47 49 53 56 58 58 58 60 62 63 64 65 67 70 71 67 57 51 47 44 45 47 48 48 47 51 44 37 35 29 29 31 34
31 36 39 41 41 44 44 44 42 45 49 51 54 57 58 59 60 61 63 65 66 67 69 71 70 65 57 50 45 43 41 43 44 43 43 47 44 38 30 29 29 30 33 33
35 38 42 41 41 41 40 43 48 50 52 54 56 58 60 60 60 62 66 68 68 70 71 66 61 54 46 40 38 38 38 41 40 39 43 43 37 29 28 20 24 31 30 30

GFSCGP_500_spd_060.txt.gz
Wind_Speed
32 28 26 23 25 25 27 29 26 24 26 25 23 18 22 27 26 28 30 32 33 35 34 35 34 34 35 35 35 36 37 38 39 40 41 42 43 44 45 46 48 49 50 52
32 29 28 29 29 28 29 28 26 26 27 28 24 19 20 25 28 30 31 31 34 34 34 35 34 36 35 35 35 36 37 39 40 41 42 43 46 48 49 50 51 53 54 56
28 28 28 28 27 27 27 27 27 27 26 27 25 21 19 26 30 31 33 33 34 34 34 34 34 34 34 35 36 38 40 41 42 43 45 47 49 51 52 53 55 57 58 60
28 26 24 24 25 25 25 25 25 26 26 26 25 29 20 29 32 32 33 33 32 31 33 34 34 35 36 37 38 41 43 44 45 46 48 51 53 55 55 56 58 59 61 63
24 22 22 22 20 20 20 22 24 25 27 28 24 32 25 27 30 31 31 30 30 30 31 32 34 35 37 40 43 45 46 47 48 50 53 55 57 57 58 60 61 63 63 64
22 22 21 21 22 22 23 24 26 27 28 30 28 30 30 27 29 26 26 27 28 29 30 32 34 36 39 41 43 46 48 51 53 55 56 58 59 60 61 63 64 64 62 60
19 20 20 21 22 23 24 25 27 30 29 30 29 29 27 26 26 28 26 26 28 31 33 34 36 39 41 44 47 50 52 54 55 58 60 61 61 61 63 63 62 61 59 61
18 18 18 19 21 23 25 26 28 32 30 29 28 29 28 28 27 28 29 30 32 33 35 37 39 42 46 49 51 53 54 57 59 60 60 59 60 62 63 63 62 63 66 70
16 17 18 20 22 24 25 26 27 29 30 30 28 28 29 29 29 31 32 33 36 37 39 42 44 47 50 51 54 56 57 59 59 58 57 59 61 62 64 65 67 71 75 78
16 18 19 21 22 23 25 25 25 27 30 30 30 30 30 31 32 33 35 37 38 40 43 46 48 50 53 55 56 58 58 57 56 57 59 61 63 66 68 71 74 78 82 85
18 19 19 22 22 23 24 25 26 28 30 32 32 31 32 32 34 36 38 39 41 43 46 50 52 54 56 57 57 56 56 56 57 59 61 64 67 70 73 76 79 82 84 87
20 20 20 22 23 24 24 25 26 28 29 31 32 33 33 36 38 39 40 42 45 48 51 53 54 55 55 55 54 54 55 57 60 62 66 69 72 74 76 78 81 83 85 88
19 19 19 20 22 22 24 25 27 28 29 30 34 34 37 40 41 43 45 48 50 52 53 53 53 52 52 52 53 55 59 61 64 68 71 72 74 75 77 79 81 83 85 85
17 18 19 21 21 21 23 25 28 30 32 34 34 37 41 44 46 48 49 50 51 51 50 50 51 51 52 55 58 61 63 66 68 69 69 70 72 75 76 79 80 82 81 77
16 17 19 21 22 24 26 29 31 33 36 39 39 41 41 43 45 46 47 48 49 49 49 50 52 54 57 59 60 62 63 64 64 66 69 71 73 73 75 78 79 76 66 59
18 19 22 24 27 29 30 32 35 38 39 41 41 40 40 41 42 41 43 44 45 47 50 53 55 56 58 59 59 60 60 62 66 68 69 71 73 74 76 76 70 59 55 57
23 25 27 27 30 34 35 34 36 37 37 37 36 38 38 39 40 40 42 46 50 53 54 56 57 57 56 56 56 59 61 65 67 69 71 73 74 75 74 67 56 53 55 58
26 29 32 34 34 35 34 35 36 35 33 33 35 35 36 39 41 46 50 53 54 54 52 52 54 55 55 57 60 63 66 67 69 72 73 75 76 71 61 53 53 53 56 60
31 32 33 32 33 34 34 34 32 32 31 31 34 38 40 43 46 52 54 51 48 49 52 54 56 57 59 62 64 65 66 68 70 72 75 72 65 59 52 51 54 53 57 51
29 31 32 34 35 35 32 32 32 31 33 37 39 42 45 48 52 48 43 45 48 53 55 56 58 60 62 64 67 68 69 71 72 72 67 61 58 53 50 53 52 55 50 42
30 31 30 32 34 34 33 34 36 39 41 43 45 48 50 49 42 45 48 50 52 55 57 59 61 64 67 68 69 71 74 74 70 63 58 54 51 50 50 50 53 49 40 40
26 28 28 31 33 35 37 38 41 43 44 47 48 46 42 44 48 50 52 54 56 58 60 62 65 69 71 72 73 75 73 67 59 54 52 47 47 48 47 49 48 38 38 36
25 28 30 32 35 37 40 44 45 46 44 42 42 46 49 52 52 53 56 59 60 61 64 66 69 71 72 74 75 68 61 53 47 46 42 43 45 45 47 47 39 34 32 31
26 28 31 33 35 39 41 44 44 42 42 45 49 52 53 54 54 56 59 60 62 64 67 70 71 72 73 67 58 52 46 40 39 37 38 43 42 45 45 39 33 31 27 30
25 29 34 35 39 43 44 47 44 44 46 50 54 56 55 55 57 57 59 62 65 68 70 72 72 69 58 52 50 44 37 34 34 36 38 40 43 42 35 30 31 27 28 30
29 32 35 37 41 45 47 48 46 47 51 53 54 54 54 55 56 57 61 65 68 70 70 66 59 53 50 46 41 35 31 33 34 35 37 41 40 33 28 25 25 27 28 30

GFSCGP_500_spd_063.txt.gz
Wind_Speed
36 36 34 30 28 26 26 26 21 24 28 26 24 16 21 27 24 27 28 28 29 31 32 35 36 36 37 36 36 36 37 37 37 38 39 39 41 42 43 44 45 46 47 49
35 33 31 30 28 26 25 24 25 28 27 27 24 17 21 25 28 28 29 29 30 31 32 35 35 36 36 36 35 35 36 37 38 39 41 42 44 45 47 47 48 50 51 53
33 32 30 28 29 28 26 28 29 30 27 28 25 19 18 25 28 29 30 32 32 32 32 34 33 33 34 34 35 35 36 37 39 40 42 44 47 49 50 50 52 54 55 57
33 32 31 30 29 29 27 26 27 27 27 27 25 26 19 26 29 30 31 32 32 32 31 31 32 33 33 34 35 37 39 41 43 44 46 47 50 52 54 55 55 57 59 61
29 27 26 25 26 26 23 22 22 23 24 25 22 28 24 26 28 30 31 30 30 30 30 29 30 31 33 36 39 41 42 44 45 47 50 52 54 55 56 58 59 61 62 64
29 27 24 23 23 22 21 21 22 24 25 27 24 26 29 28 27 27 28 28 28 29 30 31 32 35 37 38 40 41 44 47 49 51 53 55 57 59 61 62 63 64 65 65
24 22 22 22 21 21 22 22 24 26 25 26 27 27 27 27 27 27 28 28 28 30 31 32 33 35 38 40 42 46 49 51 53 55 57 59 61 62 64 64 65 65 65 66
20 19 18 17 19 20 20 21 23 28 27 27 27 28 27 27 26 26 27 29 30 30 31 34 36 38 40 44 47 50 52 54 57 58 60 61 62 63 63 63 64 66 67 68
14 14 14 16 18 19 20 23 24 27 28 28 27 26 27 27 27 28 29 30 32 33 35 37 39 41 45 48 51 53 56 57 59 60 61 60 61 62 63 64 67 69 71 73
13 14 15 16 19 20 22 23 24 25 29 28 28 28 28 28 29 31 32 32 34 36 38 41 44 47 50 52 54 56 57 58 58 58 59 60 61 64 66 68 71 73 74 76
14 14 15 17 19 20 21 22 24 26 27 29 29 29 28 30 31 33 34 36 38 41 44 46 48 51 53 54 55 54 54 55 56 58 59 62 65 67 69 70 71 72 72 74
14 14 16 18 19 20 22 22 24 26 27 28 30 30 30 31 34 36 39 41 43 46 48 50 51 52 51 50 50 51 53 55 57 61 63 64 65 65 66 67 69 72 74 77
14 15 16 17 18 19 21 22 24 25 26 26 30 31 34 37 40 42 44 46 47 48 49 48 47 47 47 49 51 53 55 58 60 61 62 62 64 64 67 69 70 72 75 78
14 15 16 17 18 19 20 21 23 26 28 31 32 36 39 43 44 45 46 47 46 45 44 44 44 46 49 52 54 56 58 58 58 59 61 63 65 67 67 70 72 75 77 79
13 14 16 17 18 20 22 24 27 30 33 36 37 39 41 43 44 44 44 43 42 42 42 45 49 52 54 53 52 51 54 57 59 60 63 65 66 68 70 73 75 77 78 74
14 15 18 19 22 25 26 29 32 35 37 39 40 40 40 39 39 39 40 40 42 45 49 52 54 52 48 48 52 55 58 60 62 64 67 69 71 73 73 75 77 76 70 64
18 20 23 23 26 29 31 32 35 36 36 37 37 37 37 37 37 39 42 45 48 51 55 50 45 46 50 53 57 59 61 63 66 68 71 74 76 75 76 77 74 66 61 56
21 24 27 28 30 31 32 32 33 34 34 33 35 35 36 39 43 45 47 50 53 51 45 46 49 52 56 58 60 62 64 66 69 72 75 77 77 78 76 70 61 58 53 53
25 26 26 26 27 28 29 29 31 33 31 33 35 39 42 44 47 49 51 52 48 47 51 53 55 58 60 62 64 65 66 69 72 75 76 78 78 73 64 56 54 51 49 48
21 23 24 25 26 27 27 28 30 33 34 37 40 42 44 45 46 48 46 47 50 53 56 57 59 61 62 63 64 67 70 72 74 77 75 70 62 55 51 47 45 45 44 46
20 19 20 22 23 24 25 28 29 33 36 38 39 42 42 44 45 47 51 54 56 57 57 60 61 62 63 65 68 71 72 74 71 61 56 52 48 45 41 42 42 43 44 38
16 17 18 17 19 21 23 28 33 38 42 44 45 45 45 45 48 52 56 57 58 59 59 60 63 65 67 69 70 71 69 56 51 49 45 40 39 39 40 40 42 41 35 31
14 14 15 18 21 26 30 34 39 42 45 47 49 49 47 49 53 57 58 57 58 58 60 63 65 67 68 70 70 58 51 47 45 37 35 36 36 38 41 42 37 32 29 28
12 16 18 21 25 30 34 38 41 44 47 49 48 49 51 55 57 57 57 56 59 61 63 66 68 67 64 59 54 51 46 42 34 31 34 34 35 39 41 36 32 29 28 27
18 20 22 26 30 36 39 43 45 48 50 50 49 51 53 55 55 56 56 58 60 64 66 67 64 58 53 50 48 44 39 31 29 31 31 33 38 40 32 29 27 28 28 27
22 25 28 32 36 40 44 47 48 50 51 51 51 53 54 55 55 56 57 61 64 66 65 57 51 49 48 45 41 35 30 29 28 29 31 36 39 32 28 23 23 28 27 27

GFSCGP_500_spd_066.txt.gz
Wind_Speed
44 43 41 40 37 35 34 28 26 29 26 30 27 22 25 29 27 29 29 30 29 31 32 32 35 35 36 36 36 36 36 36 35 35 35 35 36 37 38 40 41 43 45 47
42 39 40 40 36 34 32 26 24 23 25 24 27 21 25 28 29 29 30 30 30 31 33 35 36 37 36 36 35 35 34 35 35 35 35 36 38 40 42 44 45 47 49 50
37 36 37 37 33 32 31 29 30 26 29 29 28 24 23 27 28 29 30 30 31 32 33 34 35 35 36 36 35 35 35 34 34 35 37 40 42 44 46 48 50 53 54 56
35 35 34 34 34 32 30 29 27 29 30 30 26 28 22 27 28 29 30 31 32 32 33 33 33 34 34 34 35 34 35 35 36 38 40 43 46 48 51 54 56 57 58 60
33 32 31 31 31 31 31 30 28 29 29 29 23 27 23 25 28 29 30 31 31 31 31 31 31 32 33 33 34 35 36 38 40 43 46 49 51 54 56 57 58 60 62 63
30 30 31 32 33 32 29 26 25 25 25 26 23 24 28 26 27 29 29 29 29 29 30 31 32 33 34 35 36 37 40 42 45 48 51 54 56 57 59 60 62 63 64 64
29 29 29 30 30 28 25 22 23 25 25 25 24 26 27 27 28 28 28 28 28 29 29 31 32 34 35 37 39 41 44 47 51 53 56 57 58 60 62 63 63 63 63 63
22 26 26 26 25 23 21 20 21 24 24 25 25 27 26 26 25 26 27 28 28 29 30 31 33 35 38 40 43 46 49 52 54 56 58 60 61 61 61 60 61 62 63 64
22 22 22 21 21 20 18 19 21 24 25 27 26 26 26 25 27 27 28 29 30 31 33 34 36 39 42 44 46 49 52 55 57 59 60 59 59 59 60 61 62 64 66 67
18 17 18 17 17 17 18 19 21 22 26 25 26 26 27 26 28 29 30 31 33 35 37 39 41 44 46 48 51 53 55 56 55 55 56 57 58 60 62 64 65 65 65 64
16 15 15 16 16 17 18 19 21 23 24 26 27 30 27 28 30 31 33 34 37 39 42 44 46 48 50 51 52 51 51 52 53 54 56 59 61 63 64 63 62 63 64 68
14 14 14 15 16 17 18 19 21 23 24 25 27 29 29 30 33 35 38 40 42 44 46 47 48 49 48 47 48 49 50 53 56 58 60 60 59 58 60 63 65 67 69 72
13 13 14 15 16 17 18 19 20 22 24 23 28 31 32 35 38 40 42 44 46 47 47 46 46 47 47 47 49 53 56 57 56 54 54 56 59 62 64 66 69 71 73 76
14 14 15 15 15 16 17 18 20 22 25 29 29 35 37 41 42 43 44 45 45 45 46 46 46 48 50 53 56 58 54 51 52 55 59 61 63 66 68 70 73 75 78 82
12 13 13 14 15 16 17 20 23 26 29 32 35 36 38 40 42 43 43 43 44 44 46 49 51 54 57 58 54 51 53 55 58 62 64 66 69 71 73 75 77 80 83 84
10 11 12 14 17 19 20 24 26 28 30 31 33 34 37 37 38 39 40 42 46 49 51 54 57 59 58 53 54 57 59 62 64 67 68 70 72 74 76 79 81 82 84 82
11 13 16 16 20 22 22 24 26 26 26 28 29 31 33 35 38 41 43 46 48 51 54 56 56 55 54 58 60 62 63 65 67 68 70 71 73 75 78 80 83 81 74 65
14 16 18 20 21 21 20 21 22 23 23 24 25 28 31 35 38 42 45 48 50 52 54 55 56 58 60 61 62 64 65 66 67 70 72 73 74 77 80 75 65 60 54 47
18 19 18 18 18 17 18 19 18 18 19 22 27 32 35 38 43 47 49 52 54 56 58 60 61 62 61 62 64 63 65 67 70 72 74 75 77 70 59 57 51 44 40 42
15 16 16 15 14 14 13 13 14 18 22 26 32 35 39 42 45 49 50 52 56 60 63 64 63 62 62 61 63 65 67 70 72 73 72 66 57 55 50 42 38 38 41 42
14 13 11 11 10 9 12 15 19 24 30 34 38 40 43 47 48 50 51 53 58 62 64 63 61 60 61 64 68 70 72 73 71 64 56 54 50 42 37 37 38 40 42 42
11 11 11 9 10 12 16 20 25 31 35 41 44 46 48 50 50 52 54 57 61 62 61 60 60 62 65 68 70 70 67 61 55 53 47 41 34 36 37 37 40 43 40 35
10 10 10 11 13 18 21 26 31 36 41 45 48 49 50 50 51 53 56 60 61 60 60 60 63 67 69 67 63 56 52 50 45 39 32 29 33 35 37 40 41 36 33 29
8 11 11 15 19 23 29 34 39 42 47 50 50 51 51 52 53 55 59 61 61 60 60 63 67 68 63 55 50 49 45 40 35 29 28 30 32 34 39 39 36 32 28 29
14 15 16 18 24 29 33 38 42 46 48 50 51 52 53 54 55 57 60 60 59 59 62 65 66 60 49 46 45 43 40 32 28 27 29 30 32 36 35 33 30 27 28 27
19 21 22 25 30 35 36 41 46 49 49 49 50 53 54 54 55 58 59 59 59 61 65 61 54 47 43 42 42 40 34 26 26 26 27 31 35 36 32 27 25 27 25 26

GFSCGP_500_spd_069.txt.gz
Wind_Speed
50 49 50 48 45 43 41 43 40 35 33 35 38 23 29 34 26 30 30 30 31 32 34 34 34 35 35 36 36 37 37 37 36 35 36 36 35 35 35 36 37 39 41 43
49 48 46 43 42 43 41 38 38 37 32 24 29 29 30 30 28 30 31 32 33 33 34 33 35 37 37 36 36 36 36 36 35 35 35 34 35 36 38 39 42 44 46 47
40 40 44 43 40 39 40 33 35 34 31 29 35 25 24 23 29 32 34 33 33 33 34 35 36 37 37 37 36 34 35 34 34 34 35 36 38 41 42 44 46 48 50 52
36 41 38 38 38 37 36 36 32 34 34 34 25 24 26 25 29 31 32 31 32 33 34 35 36 36 35 34 33 34 34 35 36 37 38 40 42 44 47 49 52 54 55 57
35 32 35 35 37 34 36 30 31 31 32 30 26 28 27 25 26 27 28 30 31 31 32 32 33 33 33 33 34 36 37 38 39 40 42 44 47 50 53 55 57 58 60 61
31 30 31 32 29 31 32 31 31 31 31 32 29 24 26 26 27 29 30 30 31 31 31 32 32 32 34 35 37 39 40 42 43 45 47 49 52 55 58 60 61 62 64 64
27 29 29 28 28 29 28 27 28 30 29 28 28 25 30 26 28 29 30 30 29 29 30 32 33 35 37 38 40 42 44 46 48 50 52 55 57 60 62 63 64 64 63 62
24 26 29 29 29 29 29 29 26 27 14 18 24 26 28 26 27 27 28 30 31 31 33 34 35 37 38 40 42 44 46 49 52 55 57 59 61 62 62 61 61 61 61 61
20 25 24 24 24 24 25 26 24 26 26 26 25 28 26 24 26 28 29 30 32 33 34 35 37 39 41 43 46 49 51 54 56 58 59 59 59 59 58 59 61 62 64 65
19 18 19 20 22 23 23 22 22 23 23 23 18 25 30 25 27 29 31 32 33 35 37 39 42 44 46 49 51 53 54 55 55 55 56 57 59 60 62 64 65 64 63 62
16 16 17 19 19 20 20 19 20 21 21 22 22 22 31 28 30 31 32 34 37 39 42 44 46 48 49 50 51 51 52 53 54 56 59 62 65 66 65 64 63 62 65 67
15 16 17 17 18 17 17 18 19 20 25 21 24 26 27 29 32 34 36 39 41 43 44 45 47 48 48 49 51 53 54 57 59 62 65 67 66 63 61 63 66 68 70 72
14 14 14 14 16 16 17 18 18 19 21 20 23 28 30 31 34 37 38 39 40 41 42 43 45 47 50 53 55 58 60 63 65 66 64 61 62 64 67 69 71 72 74 75
13 13 15 17 15 15 15 16 17 18 19 23 24 29 32 32 34 35 36 37 37 38 41 44 47 50 52 56 59 61 63 64 62 61 63 66 68 70 70 71 73 73 75 78
13 13 14 14 14 13 13 14 16 19 22 25 27 29 31 32 31 30 30 33 36 41 44 47 50 52 56 59 62 63 63 64 66 67 68 69 69 70 70 70 73 76 78 80
12 12 12 11 12 13 15 18 20 22 24 26 26 26 26 24 24 29 36 40 43 45 48 52 54 56 60 63 65 64 67 67 69 68 67 68 67 69 71 73 75 78 81 83
10 10 11 13 16 17 17 20 23 22 22 23 24 22 20 27 32 36 40 42 46 49 51 53 55 58 62 65 67 68 69 67 66 66 66 68 71 73 75 78 81 81 76 65
12 14 15 16 18 20 18 18 18 18 19 18 16 22 28 32 38 44 48 48 53 53 54 55 58 61 65 69 70 69 66 65 66 68 71 74 77 80 80 76 68 61 57 52
15 17 18 18 17 17 14 15 15 13 12 17 22 28 34 40 45 51 48 52 54 55 57 57 61 64 67 69 67 66 65 66 70 73 77 77 74 70 63 59 57 51 43 41
18 17 16 16 15 14 13 11 11 14 18 24 29 33 39 44 48 54 55 56 57 57 57 59 64 66 67 66 65 65 67 70 74 74 68 61 59 58 54 48 41 39 39 40
16 16 15 14 14 12 11 12 16 19 24 30 35 41 47 49 52 55 56 56 58 58 58 62 65 67 66 65 66 67 70 71 66 57 56 54 50 46 39 35 38 39 40 44
15 14 14 14 13 13 13 16 21 26 31 37 42 44 49 52 55 55 55 57 57 59 62 65 67 66 65 65 67 69 64 56 53 51 48 43 38 35 36 37 38 41 43 38
14 15 14 14 14 15 18 22 26 32 38 40 45 49 53 55 56 57 59 60 60 62 64 66 66 64 65 67 65 59 50 49 47 45 40 34 33 35 37 39 42 40 37 33
15 15 15 16 16 20 23 27 33 37 41 46 51 55 58 58 58 58 60 60 62 63 65 65 64 64 65 62 55 49 45 43 44 40 33 31 33 34 37 42 41 37 32 29
13 16 16 18 21 24 27 33 38 41 45 50 56 58 58 57 58 60 59 59 62 64 65 63 63 63 58 51 46 43 42 41 41 35 29 30 32 35 38 39 38 31 29 27
19 18 21 23 24 27 32 36 41 45 49 54 58 58 58 57 59 60 61 61 63 64 61 61 60 55 48 45 43 39 40 40 36 26 27 29 33 36 39 34 30 30 26 24

GFSCGP_500_spd_072.txt.gz
Wind_Speed
55 54 54 51 46 43 41 43 43 45 43 38 39 38 37 37 29 27 31 28 29 30 30 32 33 34 35 36 36 34 36 37 37 38 38 38 37 37 38 38 38 39 39 40
50 52 48 45 42 40 39 44 41 38 30 34 39 34 28 27 32 32 31 23 30 34 34 33 31 36 36 37 37 36 36 37 37 37 37 38 37 38 39 40 41 42 43 45
44 44 40 40 39 43 42 46 42 42 42 35 35 36 35 29 29 27 22 27 33 33 36 36 33 35 37 38 37 38 36 37 37 38 39 40 40 42 43 42 43 45 48 50
27 38 37 39 43 37 38 37 39 43 35 33 33 33 31 34 21 24 23 29 30 32 34 36 35 35 36 36 35 37 38 37 38 39 41 42 42 43 46 47 49 51 53 56
32 29 35 34 35 35 35 37 34 36 36 34 32 31 25 29 27 20 22 25 27 30 32 34 34 34 34 35 35 38 39 41 41 42 42 44 46 48 51 53 56 58 60 61
31 33 27 33 31 30 30 30 30 32 31 34 24 30 28 29 24 25 24 26 28 29 31 32 31 33 35 36 38 39 41 42 44 45 47 48 51 54 56 59 61 63 64 65
25 24 27 24 24 25 28 29 27 28 28 27 26 26 32 25 25 27 27 28 28 28 30 32 33 35 36 37 39 40 42 45 47 49 51 54 57 59 61 64 65 65 64 64
19 21 22 24 23 24 22 24 24 26 14 18 23 26 24 25 24 27 26 27 28 28 30 32 33 35 36 38 40 43 46 48 51 53 56 57 58 59 60 61 61 63 64 65
14 18 19 22 21 23 23 24 24 22 23 25 27 30 30 24 23 25 26 27 28 29 30 32 34 37 39 42 44 46 48 49 50 51 53 55 58 60 61 62 65 68 70 72
20 17 19 19 21 22 21 21 22 25 26 27 17 21 31 23 21 24 26 28 29 31 34 37 39 41 41 42 43 44 46 47 49 52 55 58 61 64 67 69 71 73 74 71
16 15 15 17 18 19 18 19 21 23 22 22 19 26 29 28 25 26 27 30 33 36 37 38 38 38 39 40 42 44 47 50 52 55 60 63 66 68 70 70 69 68 68 69
14 14 15 14 16 16 16 16 17 19 22 18 20 23 25 26 25 28 31 33 35 35 35 36 35 35 38 42 45 48 51 53 56 60 63 67 68 68 68 69 70 72 73 72
12 13 11 14 15 14 14 15 17 17 17 16 19 21 23 27 28 32 33 31 31 30 31 35 38 42 45 47 50 52 54 56 60 63 68 70 70 71 72 72 73 72 72 72
12 12 13 12 10 12 13 14 14 15 14 18 19 25 25 28 27 28 30 28 28 34 38 44 46 49 50 54 56 57 59 62 65 69 71 72 72 72 71 70 69 70 70 71
12 13 12 11 11 12 12 13 13 14 17 21 22 26 30 29 24 22 23 32 37 41 45 48 52 55 58 57 58 58 61 66 69 71 72 71 70 69 68 68 69 71 74 77
10 10 11 11 11 11 12 14 16 19 21 23 24 24 22 26 25 28 33 36 42 47 51 55 57 58 57 58 59 63 68 71 71 72 71 69 69 69 69 72 77 80 77 76
9 10 10 10 12 14 15 17 19 21 21 21 21 20 19 20 26 31 38 44 49 52 56 60 61 59 59 60 64 68 70 71 71 69 68 68 69 71 75 75 70 65 62 59
9 10 13 14 16 18 17 20 19 18 18 18 15 16 20 26 31 37 44 46 52 56 58 60 59 60 62 64 68 70 71 71 68 66 68 71 72 71 65 60 58 55 51 47
13 15 16 18 18 20 14 18 16 16 12 14 17 21 28 33 38 46 46 50 55 59 61 61 61 62 65 69 70 70 69 67 67 69 70 70 64 59 57 53 48 43 38 38
16 18 20 19 19 17 15 17 16 11 12 18 23 28 34 39 42 48 53 57 60 61 60 60 62 65 67 68 70 70 67 67 68 69 66 58 55 52 48 43 38 38 37 38
20 19 18 19 17 15 15 11 10 15 19 23 29 35 42 45 48 53 58 61 62 61 61 63 65 67 69 71 70 67 67 67 66 59 52 51 48 45 39 35 37 38 39 41
18 19 17 18 16 15 13 13 17 19 24 29 35 41 46 50 54 59 63 64 63 62 63 67 71 72 72 70 66 65 65 62 54 49 47 45 45 37 34 35 38 40 42 39
18 17 17 18 15 14 15 18 20 25 29 34 41 44 49 54 59 63 63 64 64 65 68 71 72 71 68 65 65 64 58 50 47 44 42 43 35 31 33 37 38 41 39 36
19 18 19 18 17 19 19 22 25 29 35 40 45 50 54 58 62 64 65 64 66 69 72 72 71 68 65 64 61 54 47 44 42 40 39 33 28 30 35 38 43 40 35 32
18 21 20 19 21 21 24 26 29 33 40 44 50 54 58 60 62 63 64 66 69 71 71 70 68 66 64 56 48 44 43 40 37 36 33 27 30 31 35 40 43 37 32 29
21 22 20 20 23 25 24 29 35 39 43 48 53 56 58 60 61 64 65 68 69 69 69 66 65 61 50 43 42 42 39 36 35 32 26 28 29 33 36 39 34 34 30 26

GFSCGP_500_spd_075.txt.gz
Wind_Speed
58 57 57 54 52 46 43 40 40 41 41 41 36 37 37 37 35 37 27 31 38 34 29 22 24 28 31 32 31 33 34 35 37 39 39 39 39 40 40 40 40 40 42 42
51 54 52 50 47 43 38 38 41 41 43 39 34 35 33 37 36 33 38 32 37 34 30 20 26 29 33 33 32 33 35 36 38 39 38 38 38 38 39 40 41 42 43 44
46 46 46 43 43 39 35 37 38 35 38 40 33 26 27 29 30 32 26 23 23 22 24 27 29 30 32 34 33 32 34 35 37 37 36 38 38 39 40 41 42 44 46 49
30 35 38 38 39 38 37 36 38 38 34 31 38 40 29 29 30 24 18 25 27 25 25 30 28 30 32 33 33 33 33 34 35 37 38 39 40 41 43 45 46 48 50 52
28 31 31 38 35 37 31 34 35 37 35 35 35 35 27 27 25 18 20 22 23 26 27 27 27 27 29 30 32 34 35 35 37 38 40 41 43 45 47 50 52 54 55 57
26 29 32 31 30 30 33 29 26 28 33 35 27 30 33 28 25 22 19 21 24 25 26 26 27 28 28 30 32 34 36 38 40 41 42 44 46 48 49 50 51 51 51 55
23 22 24 27 27 29 28 27 27 28 30 28 25 30 29 26 26 21 20 20 22 23 24 26 28 29 31 32 34 36 39 41 42 43 44 44 43 44 45 47 51 53 57 60
12 18 22 22 23 24 24 23 25 25 25 26 26 28 24 22 22 22 22 20 22 24 25 27 28 30 32 35 37 38 39 39 39 39 39 41 44 46 49 52 56 60 63 66
16 14 18 19 18 19 21 20 19 18 20 22 24 23 23 24 21 19 20 22 24 25 26 28 31 33 35 36 35 35 33 35 39 43 46 49 51 53 55 58 61 64 68 71
16 17 18 17 17 18 18 17 19 20 20 22 19 23 25 24 19 19 22 24 25 27 30 32 33 33 32 31 31 34 38 43 46 50 52 55 58 59 60 64 68 71 74 74
13 13 14 16 18 18 17 18 20 20 21 21 21 24 24 23 23 21 22 25 27 30 30 30 28 26 31 36 40 43 46 49 51 52 55 58 60 61 66 71 73 74 75 75
18 16 12 12 15 16 18 18 19 20 19 18 19 22 21 24 24 21 24 28 28 28 25 24 28 34 38 42 45 48 51 53 55 57 58 59 62 66 71 73 75 76 75 74
11 14 11 14 13 12 14 15 16 16 17 17 21 21 23 23 22 22 24 26 24 21 28 30 35 39 45 48 52 55 57 58 58 60 59 62 68 72 75 76 75 73 73 72
6 8 8 9 10 12 13 14 15 15 16 19 20 20 21 23 23 23 24 23 23 27 32 36 41 47 50 53 57 59 60 61 62 63 66 70 74 75 76 73 70 69 70 71
9 9 9 10 11 11 12 13 14 14 17 16 21 20 20 22 23 22 20 22 28 33 37 43 47 52 56 58 61 63 64 64 64 67 70 74 74 73 71 68 68 70 72 72
10 11 11 11 11 11 12 13 14 15 17 17 20 23 22 22 20 16 21 27 33 40 45 48 53 57 60 62 64 65 64 66 69 73 75 75 75 69 66 69 70 69 65 62
10 11 11 11 12 13 13 14 16 17 18 20 20 20 21 20 20 26 31 36 42 46 49 54 58 61 62 63 64 64 67 71 73 74 73 69 66 66 68 69 64 58 57 54
10 11 12 12 13 14 14 17 18 19 20 18 17 17 13 19 25 30 35 40 45 49 54 58 61 63 64 64 65 68 71 73 72 70 66 66 66 67 64 58 56 52 49 42
11 12 14 15 15 16 16 18 18 18 17 15 11 15 20 25 31 36 41 45 50 54 58 62 63 64 65 67 69 71 72 72 70 66 65 65 64 58 53 52 49 44 35 35
15 15 15 16 18 18 15 17 17 14 12 13 15 20 26 30 36 42 46 51 55 59 63 65 66 66 68 71 74 74 72 70 66 64 63 58 53 49 49 46 40 31 34 37
16 17 18 17 16 15 15 14 13 11 12 16 21 26 31 37 41 46 51 56 59 62 64 66 67 68 72 76 74 70 67 65 62 58 52 47 46 46 43 35 30 32 36 39
19 19 17 17 16 15 15 15 14 14 17 22 26 30 37 43 48 52 57 60 62 63 65 67 69 73 75 73 72 70 66 59 53 47 44 43 41 39 32 29 31 37 39 42
16 17 17 17 17 18 16 14 16 20 24 27 31 36 42 48 52 57 60 60 62 64 67 70 74 75 72 72 70 65 53 46 44 42 40 37 35 31 29 31 35 38 42 36
17 19 19 19 20 18 16 18 21 25 27 29 35 42 47 50 54 57 58 60 62 65 70 75 75 73 70 68 58 47 43 40 39 37 35 33 30 27 29 33 38 41 37 31
18 20 23 19 18 18 20 22 24 26 30 36 41 46 50 54 55 56 58 60 64 69 74 74 72 70 65 52 43 40 37 36 33 35 31 28 24 26 29 35 40 37 32 27
23 24 23 20 20 20 23 23 25 30 35 40 45 49 53 52 53 55 58 63 68 71 73 72 69 61 49 42 38 36 35 33 34 32 29 23 23 26 30 36 35 34 29 26

GFSCGP_500_spd_078.txt.gz
Wind_Speed
55 58 60 57 55 54 51 49 45 42 41 40 40 39 36 35 38 38 38 31 29 32 35 31 33 29 22 26 29 28 30 30 33 36 37 35 36 35 35 36 36 36 37 38
52 57 56 52 52 50 47 43 42 42 41 42 41 36 34 34 32 33 29 29 33 35 27 18 26 26 23 26 28 29 31 31 32 34 33 33 34 35 36 36 37 39 40 42
45 46 44 46 44 42 42 41 39 38 37 38 38 38 37 36 34 30 25 29 32 27 22 19 21 20 25 28 28 29 33 31 32 33 34 35 37 38 39 40 40 41 42 43
34 36 43 44 43 40 39 35 35 37 35 35 35 35 35 35 32 22 20 28 28 23 22 23 23 24 26 29 30 29 31 32 34 36 37 38 39 40 40 42 44 45 47 48
28 31 34 40 37 37 32 36 35 33 33 30 28 29 25 31 31 23 24 26 26 24 22 24 25 25 27 29 31 32 32 33 35 37 38 40 42 44 45 46 46 47 48 47
24 27 31 33 35 35 29 30 31 31 32 34 32 31 30 26 23 24 26 26 26 25 25 24 25 26 27 29 31 32 32 34 36 38 40 41 41 41 42 43 45 48 49 50
24 26 28 30 33 31 30 32 32 32 35 36 25 29 24 19 20 22 24 23 22 23 24 24 25 27 28 30 32 35 37 39 38 38 37 35 38 41 45 49 51 53 56 58
26 28 26 28 30 28 26 27 30 29 28 22 22 26 23 20 21 22 24 24 22 21 22 24 25 27 28 31 33 34 35 35 33 35 40 43 47 48 51 54 55 58 61 63
12 8 24 16 24 28 26 28 25 24 23 22 23 21 21 21 20 21 22 20 20 21 23 24 26 28 30 29 29 28 30 35 39 43 47 50 53 56 58 59 61 62 64 65
10 11 12 12 13 27 23 22 23 23 22 21 20 20 21 18 18 20 20 20 21 24 24 27 28 26 25 24 29 33 37 41 45 49 52 55 57 60 61 63 65 66 66 69
12 13 15 16 16 16 18 21 23 24 20 21 21 20 18 19 20 20 20 21 23 25 27 27 24 22 27 32 36 40 44 46 50 54 57 60 61 62 64 66 68 69 72 76
15 18 17 16 17 17 16 19 20 22 21 21 21 22 19 20 21 21 21 22 25 28 26 23 22 27 33 38 42 44 47 52 55 57 59 61 61 63 66 68 71 74 77 79
10 14 13 11 11 12 15 18 18 18 19 20 21 21 19 20 20 20 21 25 28 26 21 23 28 33 38 43 45 49 53 56 58 60 63 64 66 68 70 73 77 78 78 76
6 12 11 10 9 11 13 16 16 17 18 19 21 20 19 19 19 21 25 25 22 19 23 29 34 40 44 48 52 57 59 61 62 63 65 67 69 72 76 78 78 77 73 70
3 6 8 9 10 11 14 16 17 17 19 21 20 19 18 20 22 23 20 15 20 25 31 37 42 46 50 54 58 61 62 63 65 66 68 71 73 76 77 77 74 69 68 69
7 6 7 10 11 13 14 15 16 16 17 18 19 19 21 23 21 17 14 20 26 32 37 42 46 51 55 58 61 63 65 67 67 69 72 75 78 77 73 69 66 66 67 64
10 11 10 11 13 13 13 14 15 15 16 19 20 21 20 19 15 16 22 27 33 39 44 49 53 57 61 64 65 65 66 68 71 75 77 77 74 68 66 65 63 61 57 54
10 11 11 11 13 12 12 13 15 17 18 19 20 19 16 14 17 23 29 35 40 45 50 54 58 61 63 64 66 67 70 74 77 76 74 72 68 64 60 57 54 51 51 49
10 10 11 12 13 14 14 16 17 18 17 16 17 15 15 18 22 28 34 40 45 49 55 59 62 64 64 65 67 71 75 76 74 71 71 66 58 54 51 49 48 47 43 34
12 13 14 14 15 15 15 16 16 15 14 16 15 16 18 22 27 34 39 45 50 55 60 62 62 63 64 68 74 77 76 72 70 67 58 53 50 48 47 45 43 39 32 31
15 15 15 17 17 13 14 13 13 15 14 13 15 19 23 28 33 39 45 50 54 58 60 60 62 64 69 74 75 73 71 69 60 52 50 47 45 45 43 38 36 30 31 36
18 18 18 18 16 15 14 15 15 14 15 17 20 24 29 33 38 43 49 53 57 58 59 61 63 69 73 75 74 71 65 55 49 46 44 42 41 39 36 32 28 31 35 38
19 19 18 17 17 17 15 15 17 18 20 22 25 29 32 37 43 48 53 56 56 58 59 61 67 71 75 75 70 62 55 48 44 41 40 37 36 33 27 26 28 32 38 39
19 19 18 19 19 18 18 19 19 20 22 24 27 31 37 43 47 52 53 55 56 57 61 66 71 75 75 69 61 53 45 41 40 38 35 36 33 27 25 28 31 37 39 33
20 22 22 18 20 19 22 20 20 22 24 26 30 36 41 46 50 50 52 53 55 61 64 69 74 74 66 58 50 45 42 42 38 33 33 31 28 24 26 28 34 39 34 28
23 25 24 19 23 21 20 21 21 23 25 30 35 40 44 46 47 49 51 54 59 63 67 72 73 63 56 48 45 44 42 37 30 29 30 29 23 22 26 28 34 39 29 25

GFSCGP_500_spd_081.txt.gz
Wind_Speed
53 60 62 59 57 54 53 52 51 49 46 44 42 38 38 39 37 35 33 31 34 36 30 26 28 28 24 28 34 35 32 30 31 34 34 34 34 35 36 37 37 37 38 39
45 55 56 53 52 52 49 50 50 47 44 42 40 41 41 42 39 37 35 32 30 31 27 21 23 23 19 22 26 27 31 31 32 32 33 34 34 35 37 38 39 41 41 42
38 45 49 49 49 45 49 49 47 40 39 40 41 42 41 41 40 37 31 30 31 20 21 21 24 23 22 26 28 30 31 31 33 33 33 34 35 37 39 40 41 43 45 47
28 35 41 41 44 45 42 36 35 35 36 37 37 40 37 38 39 35 32 32 30 25 23 25 25 24 25 28 30 32 32 33 33 34 35 36 38 40 42 44 46 47 48 48
22 27 32 37 37 39 33 29 33 33 34 34 34 37 32 33 32 27 29 34 32 26 26 27 28 27 28 30 30 30 31 32 34 35 36 38 41 42 42 42 42 41 42 44
17 23 26 29 33 34 30 31 31 31 32 36 31 34 26 22 19 23 27 29 28 28 28 29 30 29 29 29 29 29 31 32 34 36 38 39 40 39 39 41 45 48 51 53
17 20 25 26 30 33 31 30 31 32 34 35 31 32 26 24 24 26 27 24 26 28 28 29 29 29 29 28 29 30 32 34 35 36 36 34 36 41 44 47 51 54 57 60
16 20 26 27 30 30 31 30 29 30 32 32 25 27 23 18 19 20 21 24 25 27 29 28 29 28 27 28 30 33 34 34 32 32 36 39 43 46 49 53 55 58 61 64
12 19 25 25 30 29 30 29 28 28 32 28 25 23 19 17 17 18 21 25 26 25 26 26 26 26 27 30 32 33 32 32 36 40 44 47 50 53 56 59 61 63 65 67
8 15 28 24 27 29 28 25 28 26 28 23 20 19 18 15 17 20 24 23 22 23 24 25 25 27 31 32 32 30 34 38 42 46 49 52 56 60 62 63 65 67 68 70
4 8 6 8 22 29 27 24 21 17 14 18 20 19 17 18 20 22 21 20 22 23 25 26 28 30 31 29 32 35 39 44 48 50 54 58 61 62 64 66 68 70 73 74
4 7 7 7 7 12 29 25 22 21 19 20 20 19 19 19 18 19 19 21 23 25 27 29 30 29 28 32 37 42 46 50 53 56 60 63 64 65 66 67 70 72 75 77
4 11 10 10 6 9 6 17 18 15 18 22 23 21 18 19 19 20 21 22 24 28 29 29 28 28 33 38 43 48 51 54 58 61 63 64 65 66 68 70 73 76 78 79
9 6 12 10 12 13 12 14 15 16 17 17 20 20 18 19 19 20 21 23 27 29 28 26 29 34 39 44 47 51 55 59 62 63 64 66 68 70 73 76 77 78 79 78
3 6 13 11 13 14 14 14 15 17 19 21 17 17 16 18 18 20 23 25 26 24 24 29 34 39 44 48 52 57 60 62 64 66 67 69 73 77 79 79 78 78 75 71
4 3 7 9 10 10 9 11 12 13 16 17 18 16 18 18 19 21 22 21 19 23 28 34 40 45 50 54 58 63 64 65 67 69 72 77 79 79 78 76 74 69 65 64
9 8 8 9 10 10 10 13 14 14 15 16 15 18 19 19 19 19 15 18 24 29 34 40 46 52 56 61 64 65 66 68 70 75 78 80 78 76 72 67 62 60 56 53
9 9 7 8 8 7 9 10 12 13 15 17 18 18 19 18 16 15 20 26 30 35 41 47 53 58 62 65 65 66 67 72 76 79 77 75 72 65 58 55 52 50 49 49
9 9 8 7 9 8 9 12 14 16 16 19 19 19 19 16 16 23 26 30 36 42 48 53 57 61 62 64 65 67 73 76 78 77 71 65 58 53 50 48 48 47 44 41
10 11 10 11 12 11 11 15 17 17 15 19 18 18 15 18 23 26 30 35 41 46 52 56 58 60 62 64 68 73 77 77 73 66 60 54 49 46 45 43 45 42 36 30
14 14 14 15 15 13 15 15 16 16 16 18 17 15 19 23 26 30 35 40 46 51 54 56 58 59 64 69 72 76 75 70 64 56 50 47 44 43 40 40 38 30 27 30
17 16 16 17 18 18 16 16 16 16 17 16 18 21 23 26 30 34 39 45 49 51 53 56 60 63 68 72 75 72 67 62 54 49 45 43 43 40 38 36 29 27 30 32
21 20 19 19 19 19 17 17 17 18 18 20 23 23 25 29 34 38 43 48 50 52 55 58 61 66 71 74 73 65 62 56 50 46 45 42 36 35 33 28 26 30 32 38
23 24 22 21 20 20 19 20 20 21 22 22 21 24 28 33 37 42 45 48 51 53 55 60 64 70 74 72 62 61 57 51 47 43 37 30 30 32 28 25 28 31 35 37
24 24 26 21 23 20 20 21 22 22 20 20 22 27 31 36 40 43 46 48 50 53 58 64 69 72 71 59 57 56 50 44 39 30 29 27 31 29 23 25 30 32 36 29
22 27 29 24 26 22 22 23 23 20 18 21 25 29 33 37 41 44 46 48 51 57 63 67 71 71 57 52 53 52 41 35 29 28 27 29 29 24 22 25 29 37 33 25

GFSCGP_500_spd_084.txt.gz
Wind_Speed
34 41 51 56 60 59 56 53 53 52 50 47 46 44 41 39 38 37 35 33 33 29 29 29 28 23 24 25 27 24 22 22 30 33 34 35 34 34 35 34 34 34 35 37
23 31 39 52 55 55 53 52 50 50 49 46 44 42 42 41 39 38 38 35 32 32 30 26 23 22 25 28 27 26 26 28 33 33 34 35 34 36 36 36 36 37 37 38
19 20 31 44 49 51 50 48 45 49 46 45 42 42 42 40 40 39 38 37 34 31 29 23 20 22 27 30 30 29 26 33 34 36 36 36 36 37 37 37 38 39 40 41
12 16 23 36 42 44 42 34 42 43 37 39 38 40 37 38 37 38 38 36 35 34 32 28 24 24 27 30 31 32 34 35 37 37 37 37 37 37 38 40 41 42 42 41
8 11 20 27 32 36 34 33 34 31 33 34 36 38 34 35 35 32 31 30 32 34 34 31 29 28 30 31 33 36 36 37 37 37 37 37 38 40 41 41 39 39 40 43
3 9 16 22 28 32 31 27 27 31 33 37 32 34 29 28 27 28 28 29 31 30 29 29 30 31 32 34 35 35 35 35 36 36 37 39 40 39 38 37 40 44 47 50
1 9 15 19 26 28 31 29 28 29 33 32 27 31 24 23 24 22 21 23 26 27 27 29 30 32 34 34 33 34 34 35 36 38 39 38 35 37 40 44 48 51 54 57
1 8 14 17 25 26 31 30 29 28 26 23 22 27 21 18 19 23 26 26 26 26 27 28 30 33 34 33 33 33 35 37 39 38 35 35 40 44 48 51 54 56 60 62
3 11 13 19 22 27 27 28 25 24 25 23 23 24 19 16 19 23 23 22 23 25 26 30 32 31 31 32 33 35 37 38 37 34 38 42 47 52 54 57 60 63 65 67
22 14 17 19 20 24 26 24 24 23 22 21 23 20 19 17 19 22 22 22 25 25 28 29 29 29 30 31 34 36 37 34 36 40 44 50 55 58 60 63 66 68 69 70
20 12 10 15 17 20 22 25 24 22 22 22 30 20 17 17 18 20 21 24 25 25 25 28 29 29 30 32 34 35 34 37 42 47 52 56 60 62 65 68 70 71 72 72
16 11 10 12 24 21 24 25 23 24 17 13 14 17 16 16 18 19 20 23 23 24 26 28 29 30 32 33 32 34 39 44 49 53 57 61 64 66 69 71 72 73 74 75
9 5 5 7 6 13 25 23 19 15 14 16 18 15 14 17 18 19 20 21 23 24 26 27 29 31 31 31 35 41 46 51 55 59 62 65 67 69 70 71 72 74 77 79
11 2 3 5 6 3 1 20 19 16 12 10 13 15 17 17 18 18 19 20 21 24 26 29 31 29 31 36 41 46 51 56 60 63 65 66 67 68 70 73 76 78 79 78
12 6 5 10 11 8 6 6 9 11 13 14 12 12 14 15 15 16 18 20 23 26 28 28 28 32 37 42 47 52 56 59 62 63 64 66 69 73 77 79 79 77 76 74
8 4 4 7 6 5 7 8 9 9 10 11 11 12 14 14 15 17 20 23 26 27 24 28 33 37 43 47 52 56 59 61 64 66 69 73 77 79 80 79 76 73 69 66
9 7 7 7 8 8 7 9 9 9 10 10 9 13 13 16 18 20 23 23 23 24 28 33 38 43 48 53 57 60 62 65 68 72 76 79 80 79 73 69 64 60 57 54
9 9 7 7 7 6 6 8 8 8 9 11 13 15 17 19 20 21 21 20 24 29 34 38 43 47 52 57 59 63 65 69 74 77 79 78 73 68 63 59 54 51 48 47
9 8 7 6 6 5 7 8 10 10 14 16 18 19 20 20 20 19 20 24 29 33 38 42 48 52 55 58 61 63 69 73 75 78 73 67 63 60 54 50 47 46 42 42
10 9 8 8 7 7 9 12 14 15 15 17 18 18 19 19 19 20 24 28 33 37 42 47 51 54 57 58 62 67 71 74 75 69 65 64 61 54 49 46 43 40 39 36
13 12 11 12 11 11 13 14 15 15 15 16 17 20 21 19 20 24 28 32 36 41 45 49 52 54 56 60 65 69 73 74 68 63 62 59 53 48 43 38 36 36 33 28
17 15 13 14 15 16 15 16 16 16 17 17 19 19 19 21 25 28 31 35 40 43 47 50 52 55 59 64 68 73 74 66 59 58 56 49 44 37 31 32 34 31 26 30
21 20 17 16 17 19 17 17 17 18 18 20 22 20 21 23 26 30 34 38 41 45 48 50 54 59 63 67 71 71 61 56 54 54 45 38 32 28 30 32 27 25 30 32
25 24 20 18 20 20 19 19 20 21 22 23 22 20 21 25 29 33 36 40 43 46 49 53 57 61 65 70 70 61 54 51 51 42 35 31 30 30 30 26 23 26 30 32
26 24 24 22 23 21 20 22 21 22 22 22 20 21 24 27 31 35 38 41 44 48 52 56 60 64 69 70 62 51 49 48 43 33 32 31 30 30 26 23 25 28 33 30
26 25 27 26 26 25 24 24 24 23 21 20 20 23 25 28 32 36 39 43 45 50 54 58 63 69 71 64 50 46 45 43 35 30 33 31 29 27 23 23 27 34 36 31

GFSCGP_500_spd_087.txt.gz
Wind_Speed
37 37 36 36 42 49 55 57 57 57 53 52 49 47 45 44 42 39 37 36 34 35 35 29 28 27 25 26 25 25 24 23 25 28 28 30 34 35 36 38 37 37 36 35
34 29 28 29 36 46 53 52 55 55 53 50 49 47 46 44 41 40 40 38 35 33 31 31 28 25 25 26 27 24 25 25 28 29 31 36 36 37 37 36 36 37 36 36
31 20 18 22 25 36 45 48 49 48 50 48 46 46 45 44 42 41 39 36 36 30 30 32 26 24 24 29 30 28 28 29 30 29 35 37 38 38 37 37 37 37 38 39
24 15 14 14 19 28 37 40 39 43 45 44 43 44 41 40 39 39 37 35 34 33 31 31 31 30 32 31 31 32 32 32 35 38 39 39 38 37 38 38 40 41 40 39
17 12 9 6 12 18 27 34 31 25 38 34 35 41 37 37 35 34 34 34 34 33 35 37 35 33 33 32 32 33 34 36 39 40 39 38 39 39 40 41 42 40 37 38
14 10 3 3 13 18 24 26 28 33 32 34 27 30 31 33 31 31 30 29 30 32 33 33 31 28 29 31 33 34 36 38 39 38 39 39 40 42 42 41 38 40 43 46
14 8 4 5 11 20 26 26 27 20 25 28 28 28 23 24 24 23 24 25 26 28 27 26 26 28 28 30 33 35 37 38 38 39 39 40 42 43 41 39 43 46 50 54
13 6 0 7 12 17 27 26 20 23 25 23 20 26 15 17 17 19 19 20 21 22 25 27 27 27 29 30 33 36 36 36 37 38 40 42 41 38 41 45 49 53 57 61
23 2 4 5 12 16 23 29 24 22 19 17 21 18 14 16 16 18 19 21 24 25 25 26 26 27 29 32 33 34 35 35 37 40 41 39 39 44 48 52 56 60 64 67
19 8 3 6 10 16 17 17 17 19 17 16 16 12 13 16 17 19 21 24 25 24 26 25 26 29 30 31 33 34 34 37 39 39 38 41 46 50 54 58 62 66 69 71
21 10 2 5 8 14 17 18 17 17 13 12 10 9 13 15 18 21 23 24 25 25 24 25 28 29 31 32 32 33 36 37 36 38 43 47 52 57 61 65 68 71 73 74
19 15 20 4 10 11 14 18 17 16 13 12 12 14 20 16 17 20 21 22 23 24 26 28 28 30 30 30 32 35 34 35 39 44 49 54 59 63 66 69 71 72 74 76
19 13 14 15 4 9 12 14 14 15 12 11 13 6 12 15 17 18 19 21 23 24 25 27 27 28 29 32 35 34 36 41 45 50 56 61 64 67 68 70 71 73 76 79
19 18 12 10 13 13 14 15 14 16 9 6 6 10 14 14 14 17 20 20 20 21 23 24 26 29 32 33 33 37 41 46 52 58 62 64 65 66 69 71 74 78 81 82
13 14 13 14 7 7 8 6 7 12 7 4 6 5 10 12 13 16 17 17 18 20 23 25 28 30 29 33 37 42 48 54 59 62 63 64 66 68 72 76 80 80 77 73
11 8 7 10 7 5 4 3 0 2 4 4 6 10 9 11 13 14 16 17 20 24 25 27 27 28 33 37 43 49 53 58 59 61 62 65 70 74 78 80 77 73 70 66
11 8 6 4 4 6 6 3 2 4 6 6 8 10 11 12 14 16 18 21 24 24 25 24 28 33 38 44 49 53 56 57 60 62 67 71 75 79 78 72 70 66 62 57
11 8 5 3 1 1 3 5 6 7 7 8 9 11 13 15 17 19 20 21 24 23 24 28 33 39 44 48 52 54 57 59 63 68 72 75 79 75 69 65 63 58 51 46
13 9 5 3 0 2 4 6 7 9 11 12 13 14 15 16 18 18 20 21 21 24 28 34 39 43 47 50 54 57 59 63 67 71 74 77 70 65 61 59 54 47 39 36
15 12 8 6 4 4 7 8 10 11 12 12 13 13 14 16 17 19 18 19 23 28 34 38 42 46 49 52 54 58 62 66 70 73 73 65 60 58 54 48 40 32 32 31
16 16 12 11 9 8 8 9 10 11 11 11 12 14 16 18 17 17 19 22 28 33 37 40 44 48 51 53 57 62 65 69 72 71 61 57 53 49 43 37 33 32 28 21
16 17 17 15 13 13 12 11 11 11 11 12 14 16 18 18 18 19 22 27 31 35 39 42 46 49 52 56 61 64 68 72 69 59 53 49 46 40 37 34 32 26 20 24
18 18 18 19 19 18 14 14 13 12 13 14 16 18 21 20 20 22 26 30 34 38 41 44 47 51 55 59 63 68 72 68 56 49 46 44 38 37 34 32 25 21 24 27
19 19 18 19 23 20 18 17 16 17 19 19 19 21 22 21 22 25 29 33 37 40 43 46 50 54 58 63 68 71 67 54 47 44 41 37 33 35 31 28 21 22 25 27
19 19 19 19 25 23 22 21 20 21 22 23 21 21 21 21 24 28 32 35 38 42 45 49 53 57 63 68 71 67 53 45 42 39 36 32 31 31 27 24 23 25 28 27
23 21 24 22 25 24 24 24 23 25 26 24 21 20 19 21 26 30 33 36 40 43 47 51 56 61 67 71 68 54 46 42 38 34 32 30 28 27 22 21 24 30 29 28

GFSCGP_500_spd_090.txt.gz
Wind_Speed
37 39 39 41 44 42 45 52 61 59 56 56 55 55 54 49 48 46 44 41 40 36 39 39 46 35 34 29 24 23 20 24 25 27 25 26 29 35 35 37 38 37 38 38
36 32 38 39 38 37 42 44 52 56 56 57 54 55 54 51 47 46 43 42 38 39 39 38 34 30 33 30 26 25 23 25 26 28 28 30 32 34 35 40 39 39 39 39
35 30 33 32 29 31 32 37 45 49 46 51 52 54 53 51 48 46 44 42 42 39 37 36 33 32 34 28 25 28 29 32 30 31 32 32 34 36 41 40 39 39 38 39
28 25 23 20 19 21 21 22 28 36 32 39 49 49 50 50 46 44 43 41 39 38 36 34 33 34 26 24 30 31 34 36 35 33 34 35 37 39 39 40 40 39 41 43
22 18 13 11 9 10 8 20 25 27 32 27 33 45 32 46 43 42 41 39 37 36 32 31 31 32 30 33 36 38 36 36 35 35 37 37 38 39 40 41 41 43 45 44
19 15 12 10 5 3 16 25 22 26 25 36 32 35 33 37 37 36 35 34 35 34 34 34 36 36 36 36 36 37 35 34 35 37 38 38 39 40 41 43 45 45 44 42
17 13 11 9 5 9 18 24 20 28 18 27 30 28 30 32 31 30 31 30 31 32 31 32 33 34 34 34 34 35 33 34 35 37 39 39 40 42 43 45 45 44 44 48
24 12 12 9 6 10 14 20 19 7 16 17 23 25 15 18 24 25 26 27 28 29 29 30 31 32 31 32 32 32 32 33 37 38 39 41 42 44 45 44 43 47 50 54
20 14 9 8 3 6 13 19 17 7 15 13 16 12 14 17 19 22 24 25 27 27 27 26 27 29 29 29 29 30 33 35 36 38 40 41 44 44 43 45 48 52 57 62
24 20 8 4 3 4 11 15 10 14 14 9 8 11 15 15 20 21 23 25 25 25 25 26 26 26 26 27 30 32 34 35 37 39 41 43 43 43 46 50 55 60 65 68
28 25 16 5 3 3 4 4 4 6 10 11 11 13 16 17 19 20 21 22 23 24 24 24 24 25 26 29 32 34 35 36 38 41 42 42 45 48 53 58 63 67 70 73
27 23 24 9 4 3 3 3 2 4 5 7 10 10 17 18 19 20 20 22 22 22 23 23 25 28 30 31 32 33 35 38 40 40 42 46 50 55 60 65 69 71 72 73
24 25 17 20 2 2 3 6 6 4 2 3 8 10 13 20 22 21 20 20 20 20 22 23 25 28 29 30 32 35 37 38 38 42 46 51 56 61 66 69 71 71 73 76
19 19 18 13 14 12 8 7 6 7 6 3 4 8 11 16 20 18 16 17 19 21 23 25 26 27 28 31 34 35 36 38 42 47 52 57 62 66 68 70 71 74 77 80
16 14 13 14 8 9 12 9 4 9 8 7 7 11 10 11 13 15 16 17 19 21 21 23 25 27 30 32 33 35 38 43 48 54 58 62 65 66 67 71 74 77 80 79
14 12 10 5 5 7 7 6 4 3 2 4 7 7 7 10 12 13 14 16 18 20 22 24 27 29 30 30 33 38 44 49 54 58 61 63 64 67 71 74 77 79 75 72
12 10 8 5 2 2 3 3 0 1 2 4 5 6 7 9 11 13 15 17 19 21 24 26 27 27 29 33 39 45 50 54 58 59 61 63 67 70 73 77 75 71 66 63
9 8 6 5 3 1 1 1 4 4 4 5 6 8 10 11 13 15 17 19 21 23 24 25 25 28 34 40 45 50 53 56 58 60 63 67 70 73 75 70 65 61 58 54
9 7 6 5 5 6 5 6 6 6 7 8 9 10 11 13 14 15 17 19 21 22 22 24 28 34 41 45 49 52 55 57 60 63 67 70 73 71 64 60 56 54 50 43
9 8 7 7 8 10 8 8 9 9 9 8 9 9 10 11 12 15 17 19 19 20 23 28 35 40 44 47 51 54 56 60 63 67 70 72 66 59 54 52 51 45 41 35
12 10 10 10 11 13 12 10 11 11 11 11 11 10 11 12 14 16 17 18 19 22 28 34 38 42 46 49 52 56 60 64 67 71 72 62 54 49 48 47 43 40 34 26
13 13 12 13 14 15 12 12 11 12 12 13 14 14 14 15 17 18 18 19 22 27 32 36 40 44 47 51 55 59 64 69 73 71 60 51 46 44 42 39 39 34 25 22
16 15 14 16 18 15 15 16 13 13 13 14 16 19 20 21 21 21 20 22 26 30 34 39 43 46 50 54 59 64 70 74 70 58 49 44 41 39 37 35 34 25 22 24
19 17 15 19 21 19 17 17 17 16 16 17 19 22 24 24 24 22 23 25 28 33 37 41 45 49 53 59 64 71 75 69 56 48 43 39 37 35 33 31 27 22 23 26
22 21 19 20 25 21 21 19 18 19 20 20 22 26 25 24 23 24 24 27 31 35 39 43 46 51 57 63 70 75 68 56 50 45 39 35 32 31 28 27 22 22 24 26
24 25 24 23 25 21 25 22 19 20 21 23 23 27 21 21 22 23 25 29 33 37 40 44 49 55 61 69 74 70 62 55 47 39 33 30 28 27 24 21 22 25 26 24

GFSCGP_500_spd_093.txt.gz
Wind_Speed
32 35 38 43 48 43 46 48 50 50 51 59 62 57 53 50 57 55 49 47 44 43 44 46 47 38 35 37 40 45 19 18 23 26 24 25 23 24 26 29 32 35 36 38
35 38 36 41 40 39 42 45 47 47 48 52 59 63 53 51 55 54 48 48 45 42 43 44 44 40 42 42 28 31 25 21 24 25 27 27 28 30 32 32 33 35 38 41
36 38 32 31 32 37 39 40 40 41 41 42 39 54 54 50 55 53 52 48 46 45 42 44 42 38 39 36 34 35 27 21 25 28 29 31 34 33 33 34 35 36 38 39
34 32 22 24 27 30 32 25 32 36 39 38 36 40 41 40 53 53 51 47 46 44 41 41 38 38 37 38 36 31 26 25 31 33 35 35 34 33 35 35 36 37 39 39
33 19 21 22 21 20 16 18 23 24 27 26 26 33 32 37 46 50 47 45 44 42 40 38 38 40 41 41 36 35 30 32 35 37 36 36 35 35 35 36 37 38 40 41
29 21 21 19 16 16 10 7 12 13 24 33 19 32 24 30 36 43 41 41 42 40 38 37 39 38 34 31 32 34 34 36 38 37 36 36 35 36 36 37 39 40 42 45
32 26 20 16 12 11 1 17 11 8 16 18 12 26 20 37 28 32 37 41 37 37 36 36 37 36 35 34 35 38 39 37 38 35 35 36 36 37 39 40 42 44 47 47
33 31 18 13 12 8 4 8 5 3 16 19 19 16 12 21 18 25 27 32 32 32 33 35 37 36 35 36 37 36 36 36 35 35 36 37 37 39 42 43 46 48 47 45
34 34 16 15 12 9 4 9 7 8 10 12 27 11 14 15 16 25 24 26 28 30 31 32 33 32 33 33 33 32 33 33 34 36 37 38 40 42 45 47 49 47 49 52
31 29 19 16 14 15 17 12 5 11 10 24 13 18 16 14 17 21 25 26 28 29 29 29 28 26 26 27 30 30 32 32 35 37 39 41 43 45 48 49 49 52 55 59
27 24 24 16 13 11 15 13 14 14 17 21 11 13 10 14 16 16 19 23 23 23 22 22 22 23 25 26 27 29 32 34 36 39 41 43 45 48 49 50 54 58 62 66
24 21 19 18 13 12 11 12 12 8 15 6 13 13 14 15 17 19 19 19 20 20 21 21 21 22 24 26 28 31 33 35 38 40 42 46 48 48 51 56 60 64 68 70
21 21 20 20 11 19 9 6 7 10 12 7 7 9 16 17 17 17 17 17 18 18 19 20 20 22 24 27 30 32 34 37 39 42 45 46 48 53 57 62 65 68 69 71
17 16 16 14 10 12 5 1 3 2 3 4 5 8 12 13 15 16 16 16 17 18 18 20 22 23 25 28 30 33 35 39 42 43 44 49 54 59 63 66 67 68 70 73
14 14 12 11 9 8 8 4 3 3 4 4 7 6 6 7 11 15 16 16 17 18 19 20 22 24 26 29 31 35 38 39 40 45 50 55 59 63 65 67 68 70 74 76
12 11 11 9 8 6 7 5 4 4 3 2 2 1 4 6 9 11 13 14 15 17 18 20 23 25 28 31 34 35 35 40 46 51 56 59 63 65 66 68 71 74 75 75
11 9 9 8 7 7 6 4 4 3 1 2 3 4 6 7 9 11 12 14 15 17 20 22 25 28 30 31 31 35 41 46 52 56 59 63 65 66 69 72 73 74 72 70
9 8 7 7 6 7 7 6 5 6 5 5 5 6 8 9 10 12 14 16 18 20 22 24 26 27 27 30 35 41 47 52 56 60 62 64 68 71 73 74 72 68 63 56
9 9 7 8 7 8 9 9 8 9 9 10 10 11 11 13 14 15 16 18 20 21 23 24 24 25 30 35 41 47 51 55 59 62 65 69 72 74 73 68 61 55 50 49
11 10 10 10 11 10 9 11 11 11 12 12 12 12 12 13 14 15 16 19 21 22 22 22 25 29 35 41 46 50 53 57 61 65 70 74 75 70 62 55 50 46 45 44
15 13 13 13 14 14 12 14 15 12 12 12 12 12 13 14 15 17 19 21 21 20 22 25 29 34 40 44 48 51 55 60 66 71 76 75 67 57 50 46 42 41 40 36
19 17 16 17 17 17 13 15 15 14 13 12 12 12 14 16 19 21 23 23 22 23 24 28 33 38 42 45 48 53 59 65 73 78 75 64 54 47 43 39 38 36 34 26
21 21 20 20 20 18 17 17 17 16 15 14 14 14 15 17 21 23 24 24 24 24 26 31 36 40 42 46 51 57 64 72 76 74 65 55 45 40 36 33 32 31 24 20
22 23 23 24 23 21 21 20 20 18 18 17 17 19 22 24 27 27 24 24 24 25 29 34 38 40 44 49 54 61 69 72 71 66 54 42 34 30 29 27 27 22 18 20
26 21 26 27 27 26 23 23 22 21 20 20 20 21 22 24 28 24 22 22 23 27 31 36 38 42 47 52 58 65 67 61 57 50 39 30 24 22 21 21 18 17 19 19
24 26 29 28 34 28 24 22 24 23 22 20 20 21 22 26 23 20 19 20 24 29 33 35 39 44 49 55 61 63 56 41 35 32 27 20 16 14 13 13 16 19 20 20

GFSCGP_500_spd_096.txt.gz
Wind_Speed
29 29 32 36 40 41 44 47 47 45 46 51 48 57 56 49 48 49 52 53 49 47 46 47 47 49 50 35 45 22 26 32 34 32 29 31 21 17 21 24 25 28 30 30
25 29 35 37 34 32 34 40 41 44 45 49 50 50 51 55 47 49 51 53 45 48 46 47 49 48 45 36 25 29 32 35 30 26 28 27 21 21 25 29 30 30 31 33
31 33 28 25 26 28 31 35 37 40 41 47 50 51 48 50 52 50 50 50 54 46 44 46 46 43 43 41 41 36 36 34 29 29 29 33 27 29 31 33 31 32 32 33
28 31 29 26 28 28 29 30 31 30 31 40 37 42 43 41 45 49 50 51 51 45 46 44 46 43 39 41 36 37 33 30 28 31 34 29 32 33 33 34 34 34 34 34
36 33 24 26 26 23 22 23 27 20 31 25 29 37 36 36 34 47 41 48 47 46 45 42 41 41 39 38 35 38 35 31 35 36 32 32 36 34 32 33 34 35 36 37
34 33 22 23 24 25 22 14 15 12 15 25 22 33 27 25 17 27 35 39 43 44 43 41 38 40 43 40 40 40 40 38 32 32 31 34 36 34 34 35 36 37 38 40
35 29 23 20 22 24 20 18 16 22 11 4 24 25 14 34 25 25 33 31 33 39 39 40 37 37 35 36 35 41 36 29 33 34 36 36 35 37 37 38 39 40 41 43
31 30 25 23 24 29 26 26 26 24 8 4 6 9 31 27 38 33 25 24 33 33 35 34 33 35 36 35 37 34 35 35 34 36 36 36 37 38 39 39 43 43 45 47
29 28 22 23 23 27 29 22 22 16 13 3 12 16 18 19 27 20 27 25 18 30 30 31 32 33 36 37 37 36 36 35 36 36 35 36 39 41 40 44 44 47 50 51
27 25 30 20 22 24 27 25 27 25 19 19 13 13 15 11 9 19 21 23 22 24 27 29 29 31 31 32 33 31 31 31 34 35 35 38 40 41 43 45 48 51 52 52
24 25 23 20 24 22 21 23 24 25 18 11 15 12 12 7 9 10 18 20 21 22 22 23 24 24 25 25 24 26 28 30 32 35 38 39 41 44 46 49 52 52 53 57
20 20 22 20 18 23 15 16 17 13 16 11 9 11 13 8 10 9 11 12 13 13 13 15 16 18 19 21 22 24 27 30 34 36 38 41 43 47 50 51 52 56 60 63
17 17 18 19 21 24 18 12 11 11 16 7 8 7 8 12 9 8 8 8 11 9 12 13 15 17 18 20 23 26 29 32 35 37 40 43 47 49 51 54 58 62 65 67
16 15 17 16 15 16 17 11 9 7 7 8 4 4 10 8 12 11 10 9 10 11 13 14 16 18 21 23 25 27 30 33 36 39 42 45 47 51 56 60 64 66 68 70
13 14 12 13 12 11 13 12 8 7 7 5 3 4 2 3 10 10 11 11 10 12 14 16 19 21 22 24 26 28 32 35 38 40 42 46 52 56 60 64 66 69 70 71
15 13 11 10 9 9 7 9 8 7 6 4 3 3 2 4 5 6 8 10 12 14 15 17 19 21 23 25 28 31 33 36 36 41 47 52 56 60 64 67 69 71 73 74
16 13 12 10 8 8 6 6 6 6 7 6 6 4 4 6 7 8 10 11 13 14 16 18 20 23 25 27 29 30 32 36 42 47 51 56 60 64 67 71 74 75 74 71
14 13 11 12 9 7 6 7 7 8 7 7 7 8 8 8 9 10 12 13 15 17 19 21 23 25 26 27 27 31 36 42 47 52 55 59 63 68 73 77 78 74 69 61
13 13 12 12 12 9 7 8 8 8 9 9 9 9 10 11 12 13 14 15 16 18 21 23 24 24 24 27 31 36 41 46 50 53 58 63 69 76 80 79 71 62 55 49
14 14 14 15 15 14 7 10 10 10 11 10 10 11 11 10 10 12 14 16 18 20 22 22 21 23 26 30 35 40 45 47 51 56 62 70 76 80 76 68 57 48 44 40
15 16 16 16 16 18 13 14 15 13 12 12 12 12 11 11 12 14 16 19 21 22 22 22 23 25 28 33 39 42 45 50 55 62 68 74 73 69 61 49 41 36 34 32
18 18 17 20 18 18 14 17 18 16 14 13 13 12 13 13 14 16 18 21 24 24 23 23 24 27 31 37 40 43 47 54 60 67 70 63 56 47 39 32 26 26 25 24
22 20 20 22 20 20 18 19 20 20 18 18 17 16 15 17 19 22 24 28 26 24 23 23 25 29 35 37 42 46 51 59 64 66 60 42 32 27 24 19 17 16 15 15
24 23 21 23 24 23 21 21 21 22 23 21 21 21 20 20 20 22 27 27 23 21 21 23 27 31 34 39 43 49 56 62 65 60 39 29 23 19 17 16 16 16 16 17
27 23 23 25 25 28 25 25 21 22 24 25 24 23 23 23 23 23 26 20 19 20 20 24 29 31 36 40 46 53 59 64 62 43 27 26 23 20 19 19 19 20 20 19
28 26 28 26 30 33 27 24 22 22 21 23 24 24 24 24 24 24 23 18 19 19 21 26 29 33 37 42 49 55 61 63 54 28 24 24 23 23 22 22 23 23 21 22

GFSCGP_500_spd_102.txt.gz
Wind_Speed
26 30 33 30 25 23 20 21 24 31 35 41 46 49 48 44 43 43 45 46 48 44 39 42 38 41 41 41 32 24 31 31 39 22 27 33 27 24 26 27 23 23 26 22
25 27 21 15 10 15 17 17 21 20 29 37 40 42 48 48 47 44 41 44 44 42 41 41 42 41 41 38 36 31 31 34 35 22 24 26 30 24 26 29 32 27 30 24
24 20 17 18 17 16 19 20 18 18 24 28 32 38 45 45 47 46 43 43 45 42 41 42 42 43 41 41 35 36 33 34 24 29 29 28 29 31 31 31 31 30 26 21
23 22 21 19 22 19 19 21 23 23 24 17 30 38 35 44 44 45 44 41 46 45 43 42 43 42 42 38 37 39 33 29 30 27 28 33 29 30 33 30 38 25 14 20
26 25 17 20 20 26 25 19 18 17 22 19 22 31 18 35 41 44 43 38 43 47 44 41 44 43 44 29 27 33 32 32 31 35 34 32 31 32 32 38 26 20 19 23
27 26 21 25 25 24 29 29 25 27 26 19 22 17 12 28 35 38 40 37 39 45 44 42 43 37 32 37 45 32 34 30 43 27 33 32 30 36 21 28 24 24 28 29
25 25 25 26 18 19 27 32 27 32 37 29 19 13 3 18 25 27 28 34 37 42 45 40 36 32 32 34 33 35 33 37 31 24 30 38 35 34 24 24 26 30 33 34
26 30 28 26 25 20 26 33 28 28 30 28 26 15 5 11 18 24 26 32 38 41 42 37 35 36 32 31 32 33 31 26 25 31 37 39 28 28 30 34 34 35 35 39
24 25 27 27 25 19 22 27 27 24 29 30 29 14 8 3 7 17 23 32 36 36 33 32 29 28 31 28 28 27 27 26 28 36 36 33 32 28 32 33 33 36 41 42
22 23 24 23 22 16 18 21 23 25 26 27 23 16 23 21 7 4 23 30 28 29 25 25 26 26 26 28 31 28 28 29 33 36 37 34 31 32 33 33 36 40 44 46
21 21 22 23 20 20 19 19 24 22 23 23 21 22 21 27 28 22 14 18 29 24 25 25 29 29 25 27 27 27 29 31 32 34 32 32 32 33 35 38 41 43 46 48
19 17 20 22 22 23 24 17 18 21 19 19 19 17 20 21 23 23 22 18 7 25 25 23 23 20 18 19 21 25 26 26 27 28 28 30 32 36 39 40 43 46 48 50
19 16 13 16 20 22 15 13 16 18 18 19 18 15 16 16 18 19 17 17 13 11 9 9 9 12 14 16 16 18 19 22 23 26 29 33 36 38 39 43 45 47 52 56
17 18 18 15 15 15 16 15 15 15 13 14 15 13 13 13 12 12 12 10 11 12 10 8 8 9 11 13 15 18 20 22 25 29 32 34 36 39 42 44 48 53 56 59
13 15 17 16 14 14 15 13 12 11 10 11 11 12 11 11 9 8 7 5 4 2 2 4 6 9 12 14 17 20 22 25 27 29 31 35 37 39 43 48 51 55 58 62
12 13 14 15 13 13 12 12 10 7 8 9 9 8 8 8 8 7 7 6 4 3 2 4 7 10 13 16 18 20 23 25 28 31 33 34 37 42 47 51 55 59 63 68
15 13 14 12 13 11 10 9 10 8 6 6 6 6 5 5 4 3 3 4 4 5 5 7 10 13 15 18 20 22 24 27 29 30 32 37 41 46 50 54 59 64 69 71
16 14 14 15 13 11 11 10 9 8 6 6 7 6 4 3 4 6 6 6 6 7 8 10 12 15 18 21 23 24 26 27 27 31 35 40 44 49 54 59 65 69 72 73
17 16 15 16 16 14 12 12 9 8 8 7 7 7 7 6 5 5 7 7 8 10 12 14 17 19 20 21 21 22 23 25 29 33 37 42 47 53 59 65 71 74 73 62
18 18 16 17 18 17 14 14 14 12 11 10 10 9 9 8 8 7 8 10 12 13 15 17 21 23 23 21 20 21 24 27 31 35 40 45 52 59 64 69 73 72 52 37
24 22 20 19 18 17 18 18 15 15 13 13 12 11 12 11 10 11 11 11 15 18 20 22 25 25 22 20 21 23 25 28 33 38 44 50 56 60 68 68 60 40 30 26
25 25 22 20 20 19 19 21 20 18 17 16 15 14 15 16 15 15 15 17 19 20 23 26 25 22 19 19 21 23 27 32 36 42 47 52 58 64 64 52 33 28 26 27
28 28 24 22 21 22 22 23 22 22 21 19 17 17 17 17 18 19 20 21 22 22 24 26 22 20 19 19 21 24 29 33 38 45 51 56 60 61 56 34 29 28 29 29
31 32 30 25 22 25 26 25 24 24 24 24 21 19 18 19 20 21 21 22 22 23 24 24 21 19 19 20 22 27 31 36 42 48 55 58 62 59 45 30 30 30 30 30
28 35 35 26 22 31 29 26 25 23 22 23 25 23 22 20 20 21 22 21 22 24 24 23 20 20 20 21 25 29 33 39 44 51 57 59 61 53 38 32 32 32 31 30
28 33 41 29 28 35 30 27 24 22 22 24 26 25 24 21 20 20 22 22 22 24 25 23 20 20 20 23 27 31 35 41 47 53 58 61 59 50 37 34 33 33 31 31

GFSCGP_500_spd_105.txt.gz
Wind_Speed
24 17 14 14 15 16 20 14 13 15 21 26 34 42 45 44 41 40 42 45 43 40 41 46 42 39 34 36 36 33 32 32 27 18 20 29 30 25 22 25 27 27 27 26
22 17 14 18 19 18 11 9 16 18 25 26 28 30 40 46 47 46 44 46 46 42 38 37 42 40 41 36 40 37 28 30 15 22 25 32 25 28 28 27 25 29 27 36
21 21 15 16 14 17 24 23 19 23 24 25 30 33 33 36 46 47 52 47 47 46 39 36 34 38 37 38 39 38 33 29 26 28 31 28 25 30 29 26 26 30 28 29
25 28 19 18 19 20 22 21 22 27 29 22 24 30 25 37 42 49 49 50 47 46 43 38 34 38 39 38 38 40 38 31 27 34 30 29 29 28 22 26 31 30 30 34
25 23 20 21 15 18 27 21 23 32 33 30 18 22 27 29 31 41 45 50 49 44 43 41 37 36 38 39 40 41 39 37 36 35 30 34 31 27 32 33 41 35 34 22
24 22 22 24 26 22 26 22 23 29 35 33 20 22 15 10 13 27 40 44 44 43 43 42 38 37 41 39 33 28 28 34 35 32 30 29 24 32 40 32 35 17 15 19
25 23 24 20 16 20 21 22 26 32 38 31 23 23 14 7 4 17 31 38 38 37 42 41 36 35 36 29 27 34 32 25 28 28 39 34 33 35 42 31 21 22 19 21
27 30 28 27 25 23 24 27 27 28 31 31 34 20 14 10 4 16 26 36 33 31 36 39 36 34 35 33 33 32 29 27 26 37 38 35 30 33 27 26 27 27 28 29
23 25 28 26 24 23 22 23 22 21 25 30 35 32 24 8 8 14 24 33 35 33 33 35 37 32 31 30 28 26 29 27 33 22 33 22 29 36 29 27 25 25 28 31
20 23 24 23 21 21 19 20 19 20 24 25 27 28 29 36 9 13 17 26 34 32 27 25 31 32 30 26 28 25 31 31 18 24 23 27 30 31 29 27 28 30 33 36
20 22 26 24 22 20 18 22 23 20 24 21 24 28 27 26 30 9 6 20 25 25 22 22 22 20 26 29 27 32 22 20 25 28 31 34 32 30 29 29 32 35 37 39
19 18 22 22 22 23 23 24 21 18 19 22 19 23 24 28 22 24 19 20 21 22 25 23 23 25 22 27 26 27 23 21 24 27 27 28 28 30 31 35 37 39 41 44
19 15 16 22 21 19 18 16 19 19 19 19 20 17 19 22 21 23 23 15 14 31 21 17 14 14 20 19 14 14 16 17 20 22 25 27 30 33 35 36 39 42 42 46
18 19 17 17 17 17 14 14 16 17 16 16 16 18 17 16 15 15 17 19 15 15 13 10 5 3 6 9 12 13 15 18 21 23 26 28 31 33 35 38 39 43 49 54
15 18 18 16 16 17 15 13 12 14 14 13 14 14 14 13 13 13 12 10 9 8 6 5 7 8 10 11 13 16 18 20 22 24 27 29 31 34 35 38 44 49 53 57
13 15 17 17 16 16 15 13 11 10 11 10 11 11 10 10 9 8 8 7 6 4 4 4 5 7 9 12 14 16 19 21 24 26 28 31 33 33 39 44 49 52 56 61
15 15 16 18 16 15 15 15 14 11 9 9 7 9 9 8 7 7 5 4 2 1 2 4 6 8 11 13 16 18 21 23 25 28 29 30 32 37 42 46 50 55 61 65
18 17 16 17 17 14 14 15 13 12 11 8 6 5 7 8 6 4 4 4 4 5 5 7 8 10 13 16 18 20 23 25 27 27 27 31 36 40 44 48 54 59 63 69
20 19 18 18 18 16 14 14 14 15 14 12 10 8 7 7 8 8 7 6 7 8 9 9 11 13 15 19 22 22 21 21 22 25 29 33 37 41 46 52 56 62 68 71
20 22 20 19 19 17 16 16 15 14 16 15 13 11 10 10 9 9 10 10 10 9 11 15 17 18 21 22 22 21 20 21 23 26 30 34 39 44 50 55 59 65 68 67
22 23 23 22 19 18 20 19 18 16 16 15 15 15 14 13 12 12 13 13 15 17 18 18 20 22 23 23 21 19 19 21 24 28 32 37 42 49 54 59 65 67 64 56
25 26 24 25 22 21 23 24 21 20 18 16 16 17 17 17 17 16 16 16 17 18 20 21 22 25 24 21 18 17 19 21 26 31 35 40 46 53 58 63 69 65 59 44
27 28 27 26 23 22 24 27 25 24 22 20 19 18 19 18 19 20 21 20 19 20 20 21 22 24 21 18 16 17 20 24 29 34 38 43 50 56 62 67 68 62 52 41
29 30 30 29 23 24 23 30 28 25 24 23 21 20 19 20 20 21 22 22 22 21 21 22 23 24 20 18 18 19 23 27 32 36 41 46 53 59 65 69 65 57 46 39
28 32 37 32 25 28 26 30 30 27 26 25 23 23 22 22 22 22 22 23 22 22 22 23 23 24 22 20 20 21 25 30 34 38 43 49 56 62 69 70 61 50 41 36
26 33 40 41 34 34 28 31 27 25 26 25 26 26 26 24 23 23 23 22 23 24 23 24 23 24 23 22 22 24 28 32 36 40 45 52 58 65 70 63 53 45 35 32

GFSCGP_500_spd_108.txt.gz
Wind_Speed
25 25 21 18 21 21 26 21 22 24 30 32 31 27 29 37 39 39 41 42 42 42 42 46 44 44 48 39 37 34 28 31 36 36 35 31 34 31 29 27 29 30 28 30
23 22 18 18 18 23 25 21 13 11 19 26 24 25 31 35 38 44 45 44 44 43 40 39 40 40 40 37 39 44 31 34 35 31 39 27 25 28 26 29 28 30 34 32
24 24 24 24 20 16 23 27 23 24 22 21 22 21 28 37 43 43 47 48 47 46 42 39 36 33 31 31 32 34 35 33 33 28 22 23 21 25 29 31 32 34 35 38
28 26 24 23 23 18 22 25 26 28 29 26 24 18 21 24 31 40 40 47 50 47 43 39 38 32 30 36 36 40 40 39 39 27 28 28 29 24 33 32 35 41 41 44
28 27 24 25 22 20 21 25 27 27 28 29 25 17 18 20 15 22 36 38 47 48 42 38 37 34 32 35 39 37 40 39 38 31 22 25 26 30 34 32 34 39 41 32
30 27 25 22 24 23 21 23 23 25 30 35 32 20 19 17 16 13 20 31 40 44 42 36 37 36 34 33 37 40 37 31 29 25 30 24 38 36 38 27 31 31 20 20
27 27 25 23 21 22 24 20 20 28 31 33 29 20 17 17 15 15 8 24 35 39 41 37 37 36 34 32 31 32 34 27 23 28 22 34 33 53 38 30 36 26 22 11
27 28 27 27 26 26 25 27 28 30 26 29 30 26 16 15 7 7 6 23 30 37 37 35 33 34 34 32 32 33 29 27 30 25 25 30 37 39 31 38 23 20 17 24
24 26 29 27 27 25 24 24 23 25 23 27 34 33 41 10 9 6 9 18 27 34 33 32 30 32 31 27 24 26 28 28 27 26 29 41 45 32 24 36 28 29 27 20
23 25 24 25 25 25 23 22 23 26 26 26 28 35 34 32 6 7 8 16 24 27 27 24 22 25 23 25 29 31 30 26 27 24 32 22 15 18 20 20 16 19 19 22
22 23 26 25 24 22 23 23 26 24 23 24 24 29 31 31 28 8 9 15 20 23 20 18 21 28 24 26 30 26 28 30 31 46 21 22 24 20 18 19 21 23 25 28
20 21 21 23 24 24 22 23 23 23 22 23 22 22 25 28 30 19 9 12 16 17 16 14 14 17 25 20 22 24 27 27 34 26 24 21 20 21 22 24 26 27 29 32
17 18 18 21 22 23 23 20 20 21 21 20 21 22 21 22 24 23 18 8 11 13 15 16 13 22 20 13 27 29 30 29 21 19 19 19 20 22 25 27 29 32 33 34
17 20 19 17 17 18 19 19 17 17 18 18 17 17 17 18 19 18 18 21 8 15 13 12 11 13 6 1 2 6 7 11 15 18 20 22 24 26 27 30 31 32 36 41
17 20 20 18 18 17 17 17 16 15 15 16 15 14 14 13 13 14 13 13 12 9 10 7 5 5 3 5 6 9 12 15 17 19 21 23 24 27 30 31 32 37 43 47
17 17 19 21 17 16 16 15 15 13 13 13 15 14 12 12 11 10 9 8 7 6 4 3 1 2 4 7 9 11 14 16 19 21 22 24 26 28 29 31 37 42 46 50
19 17 18 20 19 16 16 15 14 13 13 13 12 13 12 11 10 9 7 6 5 4 3 3 3 5 7 10 12 14 16 18 21 23 25 27 28 28 31 36 41 44 49 54
21 22 20 19 20 17 17 16 15 14 13 12 12 11 11 11 10 10 9 8 7 6 5 6 7 9 11 13 15 18 21 22 24 25 25 25 26 29 35 40 45 50 55 60
19 21 22 19 18 18 19 18 17 15 15 13 12 12 11 10 11 11 11 10 9 9 9 10 11 13 15 17 20 22 23 24 27 26 24 25 29 34 39 43 48 52 59 65
19 20 21 21 18 16 19 19 17 18 16 14 14 13 12 11 11 11 12 13 14 14 13 14 15 17 19 20 22 24 25 24 24 22 23 27 31 36 41 46 50 57 64 70
22 20 22 22 19 16 19 23 20 18 18 18 16 15 14 13 14 14 14 14 16 18 19 19 20 20 21 22 24 25 23 21 20 21 25 29 33 39 44 48 54 62 69 75
23 24 23 25 21 16 18 23 24 21 20 21 20 19 18 16 15 16 17 17 17 19 21 21 21 20 20 22 22 21 19 18 19 23 26 31 36 41 45 52 58 66 72 79
23 25 26 27 24 22 19 22 26 25 22 23 22 21 20 18 18 18 17 17 18 18 20 21 22 22 21 23 21 18 17 18 20 24 29 33 38 43 49 55 62 69 77 80
24 27 29 30 25 22 27 25 25 27 28 25 26 24 22 21 20 21 20 20 19 18 18 19 21 22 22 22 22 19 18 20 23 27 31 35 40 45 51 59 65 72 78 68
22 28 32 35 32 23 25 27 26 25 26 26 27 27 25 25 24 23 23 22 21 21 19 19 21 22 22 22 23 21 22 23 25 29 33 37 41 47 54 61 68 74 71 53
20 25 36 42 41 29 25 29 27 23 22 26 28 27 28 27 27 24 24 23 23 23 22 20 21 22 22 21 22 22 23 25 27 31 34 38 42 49 57 63 69 73 62 48

GFSCGP_500_spd_111.txt.gz
Wind_Speed
30 26 22 22 23 21 18 24 16 18 22 23 24 22 24 29 29 36 38 41 42 41 40 43 41 38 37 38 36 34 31 31 31 42 43 38 34 35 35 37 38 32 31 32
28 27 23 21 22 20 21 24 23 19 22 23 19 19 22 26 30 34 40 44 44 44 42 40 38 42 41 37 36 35 31 32 33 48 42 34 34 38 40 39 41 38 36 35
29 30 32 25 20 19 21 21 25 26 29 27 21 21 20 21 28 32 37 42 47 46 43 40 37 39 43 41 39 38 43 41 38 39 36 37 35 41 42 37 36 39 37 37
29 31 32 29 24 19 19 22 24 26 29 30 22 24 17 21 22 23 30 35 44 49 44 41 39 37 39 39 39 39 35 37 40 38 32 41 30 26 31 36 34 39 38 40
28 29 29 29 24 23 23 22 25 25 24 25 28 28 24 21 19 17 21 20 37 46 46 39 39 38 36 37 37 37 38 34 34 34 32 26 26 31 32 32 32 46 36 39
25 26 27 27 26 25 24 24 21 23 23 30 33 40 27 22 20 12 13 14 25 37 43 39 36 39 37 36 38 36 37 33 34 29 30 27 29 28 36 41 39 45 53 43
22 24 25 24 23 24 25 22 23 24 28 30 22 36 32 18 21 22 12 6 22 30 36 38 33 35 38 36 37 37 38 36 39 34 32 24 22 34 43 39 36 42 36 27
21 23 26 28 28 29 26 24 24 23 24 25 29 35 25 23 22 19 10 7 22 27 30 35 32 33 35 35 34 35 36 37 38 37 32 29 29 32 37 39 35 34 24 16
20 23 25 27 27 27 26 25 23 21 24 26 30 34 34 15 17 16 14 8 15 20 24 29 28 31 34 34 34 33 32 32 32 30 32 29 36 35 40 39 35 36 18 12
20 20 22 24 26 26 26 25 23 25 25 25 27 32 40 20 17 16 13 13 12 16 20 25 24 25 30 32 33 32 29 29 30 30 34 29 32 21 20 16 14 16 16 13
19 20 20 22 23 23 23 22 24 24 26 27 28 31 32 30 17 16 12 12 10 13 17 17 17 18 20 26 30 28 29 29 30 36 34 34 31 37 29 16 13 12 14 16
19 17 19 21 22 22 23 23 22 22 24 24 24 27 28 28 25 14 10 7 8 9 9 8 11 17 21 24 10 23 24 22 29 28 25 25 24 21 16 12 13 15 17 19
19 17 18 20 22 22 22 23 21 20 21 22 23 23 23 25 26 22 11 6 5 6 7 10 11 12 15 22 18 14 24 25 24 31 23 19 11 14 15 16 18 20 22 23
21 20 19 18 19 19 21 20 20 18 17 18 19 20 21 21 21 21 20 10 8 3 6 8 9 7 14 18 13 14 18 19 14 13 12 14 15 17 18 20 22 24 25 28
22 20 19 19 19 18 17 19 18 18 15 15 15 16 16 17 17 17 17 16 10 12 8 9 9 7 4 4 5 5 6 8 11 14 16 16 18 20 21 23 24 25 28 33
22 21 17 19 18 18 17 15 16 15 15 14 12 13 13 13 14 14 13 12 10 9 9 7 4 2 2 4 6 7 9 12 14 16 18 19 22 23 23 24 25 29 34 38
22 21 17 15 16 16 17 15 14 15 13 13 13 11 10 10 9 10 11 11 9 8 6 5 5 6 7 8 9 10 12 15 18 20 20 22 24 25 24 26 30 34 38 43
23 20 19 15 14 14 17 18 14 13 14 13 13 12 10 9 8 7 7 7 9 8 8 8 9 9 10 13 14 16 17 19 20 22 23 25 24 23 25 29 34 38 43 48
24 21 20 16 14 14 17 20 17 12 14 13 12 12 12 10 9 8 7 7 7 8 9 11 12 13 16 18 20 21 22 22 24 24 23 23 22 24 27 32 36 41 47 52
23 22 20 19 13 13 15 19 21 15 14 15 14 13 13 12 11 10 10 10 10 10 11 12 14 16 17 19 20 22 24 24 24 22 21 20 22 25 29 34 38 43 49 55
26 23 22 22 17 11 16 17 21 20 16 15 17 16 15 15 15 15 13 13 14 14 15 15 16 16 16 18 19 21 22 22 21 19 19 21 24 27 31 36 41 47 52 58
32 28 25 26 23 16 16 19 20 22 22 20 19 19 18 17 18 17 17 16 15 15 16 16 17 18 18 18 18 19 20 20 19 18 19 21 24 29 33 38 43 48 55 62
33 30 28 29 26 21 19 18 18 19 22 23 22 22 21 20 19 20 19 20 19 17 17 17 17 17 18 19 18 18 19 16 16 17 19 22 26 31 35 40 45 51 58 64
30 29 28 30 32 26 21 21 21 19 21 21 21 21 21 22 21 23 22 22 22 22 20 19 19 19 19 20 19 18 19 16 16 18 21 24 28 33 37 41 47 53 59 65
29 28 29 31 32 37 27 25 22 20 19 21 23 24 23 22 23 25 25 24 23 23 23 22 20 20 20 20 21 19 19 17 16 20 23 26 30 34 38 42 48 53 59 65
23 30 36 34 35 45 30 27 23 21 19 18 18 22 26 26 26 26 26 25 23 23 24 24 22 21 21 21 22 21 20 18 17 20 24 28 31 35 39 44 49 54 59 66

GFSCGP_500_spd_114.txt.gz
Wind_Speed
27 27 27 24 21 19 21 19 17 21 24 24 22 19 20 21 28 29 33 38 40 40 39 39 42 44 44 43 41 40 37 34 33 29 35 37 36 42 44 44 41 37 37 38
24 24 25 24 21 19 22 21 20 20 22 26 25 20 24 24 23 28 33 36 41 40 42 39 40 43 44 44 40 35 35 39 35 35 31 35 41 44 49 49 43 37 38 41
23 24 25 25 22 22 22 20 21 23 24 24 28 23 29 23 22 23 24 33 38 43 41 41 40 43 45 43 40 39 38 36 33 34 35 35 42 46 46 42 41 40 41 44
22 24 25 27 25 20 20 20 20 24 24 28 25 30 27 21 21 21 21 20 32 39 44 42 41 42 45 47 41 40 38 38 38 36 39 43 35 48 44 41 39 43 46 43
21 23 25 25 24 21 20 19 19 19 24 25 27 32 27 23 19 18 14 17 25 30 40 44 40 42 45 47 45 43 41 42 38 36 28 32 41 37 40 42 40 39 45 46
20 20 22 23 24 23 20 20 20 21 24 29 31 34 28 22 20 18 13 17 23 29 40 42 39 40 42 45 48 48 47 45 39 37 38 37 36 35 26 39 35 34 36 39
20 18 19 21 22 22 22 18 20 22 24 25 29 35 30 24 24 20 15 5 9 21 30 36 36 36 39 39 42 46 46 42 38 37 37 29 25 26 26 32 38 40 34 37
20 17 18 20 22 24 23 23 22 22 23 26 29 35 24 25 25 23 18 13 11 18 24 31 34 33 35 35 36 40 42 41 42 41 31 27 31 32 30 34 32 36 35 39
19 15 17 20 23 23 24 23 22 19 23 25 29 33 24 32 25 21 17 18 16 15 20 27 32 30 33 34 33 35 36 39 41 41 38 33 30 29 31 25 21 26 21 17
19 16 17 19 22 23 24 23 22 23 23 26 28 30 31 27 22 18 19 13 14 14 16 23 28 27 29 33 34 32 32 34 33 35 33 33 31 31 22 20 30 21 19 12
20 18 17 17 19 21 22 21 22 22 22 24 26 28 30 29 21 19 16 18 14 16 17 21 24 22 26 29 32 31 29 26 26 28 28 32 33 31 30 36 24 13 12 10
21 18 18 17 17 17 19 20 21 20 21 20 21 25 26 26 23 15 14 14 18 14 13 12 12 11 18 23 28 31 30 24 24 27 30 35 39 30 25 14 8 9 12 14
22 19 17 17 17 16 16 18 19 19 18 18 19 20 22 23 26 16 13 11 8 7 9 9 7 8 12 19 20 9 27 21 38 27 20 22 13 10 12 8 12 14 15 18
23 20 18 16 16 18 15 16 17 17 17 16 16 16 17 20 21 24 14 17 9 4 2 5 6 8 8 9 7 9 12 17 25 24 13 10 10 12 12 14 14 17 18 19
26 22 19 16 16 15 15 13 14 15 13 13 12 12 13 15 16 16 17 16 14 10 12 8 8 6 3 1 7 6 5 5 6 8 11 12 12 13 15 18 19 20 20 21
28 22 19 18 15 13 13 12 11 13 13 11 10 9 9 9 11 12 12 11 11 10 10 10 7 5 4 4 4 5 6 7 9 11 13 14 15 16 18 19 19 19 20 24
29 22 17 18 16 14 13 13 10 10 13 11 10 9 7 6 6 7 7 7 8 7 6 6 6 5 4 5 7 9 10 12 14 15 17 17 19 19 18 17 18 20 23 28
27 25 18 17 17 15 14 15 12 10 11 13 9 8 7 6 5 5 5 6 6 6 5 5 5 6 8 10 12 13 13 15 16 18 19 20 19 19 18 19 20 23 28 32
26 28 23 18 17 17 15 16 15 12 11 13 13 10 9 7 6 6 6 6 7 8 9 9 9 10 12 13 14 15 16 17 19 19 20 20 19 17 16 18 22 27 31 36
30 30 26 20 17 20 19 17 18 16 13 12 14 14 12 11 9 9 9 9 10 11 12 13 14 15 16 16 16 17 18 19 20 19 19 17 14 14 17 21 25 29 33 39
32 28 25 25 21 20 18 20 20 19 16 15 14 15 16 15 14 12 12 13 13 13 15 15 16 17 18 18 19 19 19 20 20 19 17 14 14 16 19 23 27 32 36 41
33 32 28 28 25 21 21 21 21 21 20 18 17 16 16 17 18 18 17 16 17 16 16 17 17 18 18 19 19 20 21 21 20 17 15 14 16 18 21 25 29 33 37 42
34 33 29 28 27 24 23 23 23 23 21 21 20 19 17 17 19 20 21 20 20 21 19 19 19 20 20 20 19 20 21 20 20 17 14 15 17 20 23 26 30 34 39 44
34 33 29 28 28 34 26 26 25 25 25 23 22 21 20 19 21 21 22 24 23 23 23 22 21 21 21 21 21 21 21 21 20 19 15 16 19 22 25 27 31 35 40 45
36 37 30 26 27 42 36 31 28 26 23 25 24 22 22 21 22 24 24 25 26 25 24 24 23 22 22 23 22 22 22 22 20 19 17 17 20 24 25 28 31 35 40 45
36 33 33 30 33 43 42 40 33 30 22 24 25 23 23 22 23 24 26 26 27 28 25 25 25 24 23 24 23 23 22 23 20 19 18 19 21 24 26 28 31 35 39 44

GFSCGP_500_spd_117.txt.gz
Wind_Speed
20 23 24 24 22 18 18 18 18 21 24 23 22 23 20 22 26 27 28 34 37 41 39 39 34 42 44 52 55 50 41 43 40 53 34 27 34 31 35 39 42 42 43 47
17 19 21 23 23 20 20 20 19 22 20 23 24 23 30 27 30 24 21 29 39 39 38 37 38 40 47 55 48 35 42 33 29 24 25 27 36 33 35 36 42 46 46 47
17 18 19 21 22 22 20 18 18 21 24 23 29 32 35 31 29 21 23 22 29 40 40 39 38 39 48 51 43 43 23 32 36 26 34 31 31 29 28 33 42 43 45 49
17 16 18 20 23 22 19 20 20 20 22 24 27 30 29 26 24 23 20 22 24 31 41 40 37 40 45 48 49 37 40 40 36 39 38 37 38 36 34 37 31 47 48 46
18 15 18 19 21 21 20 19 19 20 21 24 31 32 22 23 21 24 25 21 18 23 33 37 38 38 40 45 45 44 50 26 40 36 36 36 35 36 37 39 42 35 44 47
18 15 16 18 20 21 20 20 18 18 20 24 29 28 28 27 23 21 18 19 16 21 19 30 35 34 38 41 45 53 48 34 37 39 39 38 37 39 35 33 34 30 41 45
18 15 14 16 18 19 21 20 18 22 21 22 26 35 29 26 24 21 19 14 2 9 20 24 32 33 35 38 46 53 49 45 32 44 31 39 25 25 33 30 31 30 30 29
20 13 13 14 15 17 18 20 22 20 19 21 27 32 27 25 26 23 24 17 6 4 10 24 25 33 34 37 41 45 46 39 39 37 41 35 27 31 30 30 33 29 27 24
19 15 14 14 14 15 18 20 21 17 19 22 29 32 31 27 26 22 16 18 19 16 16 26 29 30 29 33 35 39 41 43 42 43 42 41 38 30 35 26 19 15 18 17
20 16 14 14 15 16 17 19 17 22 22 23 20 27 31 25 22 23 18 13 13 16 18 25 26 24 24 28 32 33 33 33 34 36 39 38 45 28 23 24 20 22 17 8
21 20 17 15 16 16 15 15 17 17 19 19 19 23 27 28 19 20 20 19 13 14 15 18 17 17 18 22 26 29 29 26 27 28 29 33 33 27 27 28 29 28 21 6
23 22 20 17 16 15 15 14 15 16 16 17 16 22 24 26 20 18 16 16 18 16 16 14 11 11 13 17 20 24 26 25 24 26 27 24 24 29 33 18 8 10 7 8
22 24 23 19 15 15 13 13 12 13 14 14 15 16 18 21 18 19 21 12 11 10 11 12 10 8 9 12 13 18 18 25 31 22 27 28 24 18 9 5 4 6 9 13
23 23 24 20 20 16 12 11 11 10 11 11 12 12 14 15 16 18 19 18 12 8 3 2 4 6 8 11 13 15 17 23 21 29 26 27 19 8 9 10 11 13 14 15
24 25 25 18 18 18 16 11 11 10 9 9 9 8 9 10 11 12 13 14 15 13 7 3 1 3 3 8 10 12 17 15 13 14 10 9 7 10 13 13 15 16 16 16
25 24 24 21 17 18 18 14 12 10 9 8 7 6 6 6 6 7 8 9 10 9 9 8 6 5 4 4 3 3 4 6 7 8 10 12 14 15 16 16 16 18 17 16
25 25 23 23 19 18 18 17 15 13 10 10 9 7 5 5 5 5 5 4 5 5 5 4 3 3 3 3 3 5 6 8 10 12 13 15 16 17 18 18 18 18 16 17
26 26 24 25 23 19 18 18 18 16 13 11 11 10 7 5 5 6 6 6 4 4 5 6 6 7 8 8 10 11 12 13 14 15 16 18 19 19 19 17 17 15 17 19
26 27 27 26 22 18 19 19 18 16 15 12 12 12 12 9 7 7 8 9 9 10 9 9 9 10 11 13 15 15 16 16 17 18 18 19 20 19 17 15 15 17 19 22
27 29 27 28 24 22 21 20 19 18 16 15 14 15 14 13 13 10 10 11 11 12 13 14 14 15 15 15 16 17 19 20 20 20 20 19 19 16 14 15 16 19 22 24
30 28 30 33 30 24 21 22 22 20 19 18 17 16 16 16 16 16 15 14 14 14 15 16 17 17 17 17 17 17 18 20 21 22 22 20 16 15 15 16 18 21 22 25
34 34 33 35 32 29 25 22 22 24 22 19 19 19 19 18 18 19 20 19 18 18 18 18 19 19 20 20 19 19 19 20 21 21 21 19 18 16 16 17 19 21 23 26
41 38 34 34 32 32 34 28 22 24 26 22 21 21 20 21 22 21 22 22 21 20 21 21 21 21 22 23 22 21 21 21 22 21 21 20 19 19 18 18 20 21 23 26
41 41 38 33 32 35 38 40 31 27 28 26 25 23 22 23 24 23 25 25 24 23 23 24 24 23 23 24 25 23 22 22 23 23 21 21 20 20 19 19 20 22 24 27
46 41 35 31 34 38 41 43 42 34 30 28 24 24 24 24 27 26 25 26 27 25 25 27 27 26 25 26 26 25 24 23 23 24 22 22 20 21 21 20 20 22 25 28
42 36 36 32 37 41 41 44 44 44 37 31 27 26 28 25 26 27 27 29 30 28 26 26 30 30 27 26 26 26 25 24 23 24 23 22 21 20 21 20 21 22 25 27

GFSCGP_500_spd_123.txt.gz
Wind_Speed
12 11 11 16 20 20 21 22 20 22 20 18 21 25 23 24 21 16 20 22 25 27 30 37 36 40 41 37 37 39 42 43 41 39 35 31 33 37 36 36 34 36 34 33
9 12 12 15 18 19 19 21 20 22 22 18 22 27 31 29 26 21 16 18 20 24 25 36 40 38 40 39 38 38 41 45 48 44 42 41 39 41 38 37 37 37 35 36
9 10 10 14 16 19 19 19 19 19 22 22 24 27 25 24 23 24 22 22 21 20 23 27 34 38 36 39 38 37 40 47 49 50 34 40 46 46 41 37 33 37 38 35
9 12 11 12 14 16 20 20 21 21 20 21 24 30 23 24 24 26 25 25 28 24 21 24 28 34 35 37 35 37 40 45 42 41 40 39 37 40 37 35 33 33 35 35
9 10 10 10 13 14 17 19 21 21 19 19 23 27 23 27 27 28 27 30 21 13 16 21 25 28 33 35 35 37 38 40 42 46 49 47 31 42 38 36 30 29 30 36
8 9 9 10 12 13 15 17 19 19 19 18 22 26 25 28 30 29 30 27 20 4 8 13 18 23 31 34 32 35 33 35 40 41 39 41 35 37 33 36 35 27 26 27
12 9 10 11 11 14 14 16 18 19 21 17 21 24 27 25 29 35 28 26 16 12 9 11 14 21 27 28 25 28 25 26 30 31 36 37 18 33 30 23 25 27 28 30
12 11 12 13 14 16 16 15 17 19 20 18 19 25 29 28 31 33 29 25 14 10 13 10 9 16 20 20 18 18 17 17 20 26 30 50 28 16 12 20 23 25 22 29
12 13 13 13 14 16 17 16 16 18 19 20 20 24 25 29 27 29 30 24 15 11 13 11 7 13 11 10 10 11 11 9 12 14 22 28 20 19 14 12 13 11 7 6
11 12 14 15 16 15 15 17 16 16 17 20 20 19 20 23 25 26 27 23 17 11 14 13 11 11 10 7 5 7 7 6 4 6 8 11 15 13 14 14 20 8 6 12
12 14 13 14 16 16 15 16 16 15 16 16 16 15 17 23 24 21 23 21 19 13 8 9 9 5 4 2 2 3 5 4 3 3 3 6 8 7 8 15 12 12 15 15
9 12 13 14 14 12 12 13 14 16 15 15 15 15 16 17 20 20 18 18 18 13 11 9 9 6 2 2 1 2 3 2 2 4 6 7 9 9 11 14 16 15 12 12
11 11 13 13 13 14 13 15 13 14 14 14 14 14 15 15 15 17 18 14 12 13 12 9 6 4 5 4 3 2 3 3 3 5 7 8 15 16 17 12 13 15 10 9
14 12 11 13 13 14 16 14 15 13 13 12 12 11 13 13 13 13 13 15 9 10 8 8 9 10 8 4 6 3 3 4 5 7 6 8 6 4 10 9 10 10 10 13
16 16 13 12 14 15 17 18 14 14 12 12 12 12 10 12 12 11 10 11 10 10 9 7 8 8 9 6 8 7 5 6 5 3 4 3 2 4 7 9 11 13 16 18
18 17 15 12 13 15 16 17 14 12 12 13 12 11 10 10 10 10 10 9 8 8 7 6 6 6 5 5 5 5 5 5 2 2 4 7 7 8 10 12 14 15 17 19
20 18 17 14 14 14 14 14 14 13 13 13 11 12 10 8 9 9 9 9 9 9 8 7 6 6 6 5 5 7 8 8 9 10 11 11 12 14 16 17 18 19 21 21
23 21 20 19 16 14 15 15 15 15 14 12 11 12 11 10 8 10 9 9 9 10 10 10 9 9 10 10 10 10 11 13 14 15 15 16 16 17 18 19 21 23 23 22
25 24 22 21 19 16 18 17 16 16 16 14 11 13 11 12 10 9 10 10 11 10 10 11 12 12 11 12 12 12 13 13 14 15 16 17 18 19 21 21 21 21 22 22
28 27 27 23 21 18 19 20 18 16 16 16 13 13 13 13 12 13 11 13 12 12 12 12 13 14 14 14 15 15 16 16 16 17 18 19 21 22 22 21 21 20 20 21
32 29 28 29 24 20 21 24 23 18 17 16 16 15 16 14 15 15 13 14 15 13 15 15 16 17 17 17 17 18 19 19 19 19 19 19 20 21 22 22 21 20 20 22
36 34 32 35 29 22 23 24 26 24 20 18 17 18 18 16 16 18 18 17 17 16 16 16 17 19 19 20 20 21 22 23 23 23 23 22 22 22 22 23 22 21 22 22
47 42 38 38 32 28 24 27 30 30 24 20 18 18 19 19 17 18 18 19 19 19 18 17 17 19 20 22 23 23 24 24 25 25 26 24 23 23 23 23 24 22 22 24
48 45 44 43 35 29 30 30 31 31 30 24 24 24 19 21 23 20 20 20 20 21 20 18 17 18 19 20 24 26 26 25 26 27 27 27 24 23 22 23 24 24 23 24
50 49 47 48 40 34 34 35 33 33 34 31 32 31 27 26 25 25 24 22 23 23 22 19 18 19 20 20 25 28 27 26 27 28 29 28 25 24 23 22 23 24 24 25
64 57 53 47 39 43 38 37 37 40 37 31 31 33 33 34 30 24 26 25 24 24 24 24 22 21 23 23 25 28 28 27 27 28 29 28 26 24 23 22 24 25 25 26

GFSCGP_500_spd_126.txt.gz
Wind_Speed
11 10 12 11 13 14 18 21 23 24 23 23 22 23 25 25 20 16 19 24 27 28 32 36 35 37 32 36 33 28 32 29 33 35 36 32 24 23 30 34 36 39 36 36
11 10 10 11 12 14 17 20 23 24 23 22 22 24 23 22 26 23 20 21 24 24 27 35 39 36 36 33 36 31 32 31 35 37 36 29 31 26 31 37 37 37 36 36
8 10 9 10 12 16 17 19 21 21 23 23 22 26 26 26 26 26 28 29 27 23 23 26 36 41 36 33 33 34 32 32 31 36 33 33 35 28 32 33 34 34 35 37
7 8 8 7 10 14 17 19 20 22 24 23 24 25 25 25 29 33 31 27 26 27 27 27 28 33 36 34 31 34 30 29 30 34 39 38 37 34 30 39 36 40 41 40
7 7 7 6 9 13 16 19 21 22 22 22 23 24 25 24 26 31 27 21 21 9 9 20 21 25 28 30 28 34 32 29 30 30 36 38 41 35 26 27 36 38 36 33
6 5 5 5 8 10 14 17 20 21 22 21 20 24 25 25 29 31 29 20 20 15 10 12 9 14 18 24 29 29 28 27 28 28 32 34 42 41 42 28 31 33 29 31
5 4 5 5 7 9 11 14 19 20 21 22 22 24 26 27 29 32 27 19 20 15 9 9 10 13 18 24 25 23 23 21 22 22 25 29 32 35 42 35 32 28 31 29
6 5 6 7 8 9 10 13 16 20 19 21 23 23 26 26 28 30 25 20 19 18 13 13 13 11 15 15 15 15 15 15 11 12 10 13 19 29 13 22 29 28 28 32
4 5 7 7 9 10 10 10 13 16 18 18 21 22 24 25 27 27 27 22 21 20 21 16 14 12 13 12 10 8 7 5 2 1 3 10 21 27 24 9 14 25 19 20
4 6 7 8 10 11 10 11 12 14 17 18 20 22 22 22 23 25 25 23 19 18 17 13 11 13 15 13 10 8 8 6 5 7 3 2 10 14 2 1 10 3 14 16
6 6 8 8 10 12 12 11 12 13 14 14 16 19 20 18 20 21 22 21 19 17 15 14 11 9 8 8 9 9 8 8 9 12 9 4 6 3 5 1 2 3 6 10
13 8 8 9 8 10 13 12 12 12 13 12 13 15 17 18 17 17 18 16 16 14 13 12 12 10 8 7 7 9 12 13 11 13 12 5 7 9 11 10 9 9 4 12
18 13 9 8 8 8 11 14 14 14 14 12 11 14 14 15 16 15 15 14 14 11 11 11 10 8 4 4 5 5 5 8 10 9 10 11 9 7 15 15 14 15 16 16
20 18 14 9 7 9 11 14 16 14 12 11 9 9 11 12 13 14 13 13 13 12 9 9 9 11 8 5 3 4 4 4 3 5 4 5 7 6 8 15 18 15 16 18
22 19 18 14 8 7 11 12 14 14 13 10 9 8 9 9 10 11 12 11 10 10 11 10 11 11 11 10 10 7 5 5 6 6 5 4 5 6 6 9 11 15 18 19
24 22 20 19 15 8 8 11 13 13 13 12 11 10 8 7 7 9 9 9 10 10 9 9 8 8 7 7 6 5 4 3 3 1 0 2 4 7 9 12 14 17 20 21
29 26 22 22 19 14 10 11 13 15 16 15 13 11 10 9 8 9 10 8 8 10 10 9 8 7 7 6 6 6 5 4 4 5 6 7 9 11 14 16 17 18 21 24
33 29 26 24 22 16 13 13 14 16 16 14 13 11 12 10 9 8 10 9 9 8 10 11 11 10 10 9 9 9 8 7 7 7 8 9 11 14 17 18 19 21 22 25
36 32 28 28 23 18 17 15 16 16 17 15 13 11 10 11 11 12 10 9 11 12 11 12 12 12 12 12 12 12 11 12 12 12 11 10 11 11 13 15 17 19 23 24
39 35 32 28 25 20 19 18 16 18 17 15 13 10 8 10 11 13 12 11 11 12 14 14 14 15 15 15 15 15 15 16 15 15 16 17 17 17 17 16 16 17 19 20
41 37 33 28 29 22 19 19 18 18 18 16 16 13 11 11 10 11 14 15 14 14 14 15 16 17 17 17 17 18 18 19 20 20 19 19 20 19 20 20 19 19 18 19
42 38 35 34 31 24 24 21 21 19 22 23 19 14 13 12 9 9 12 16 18 18 17 16 17 18 18 18 18 20 20 20 22 23 23 23 23 23 22 23 21 20 20 20
51 44 36 35 25 26 25 25 23 24 24 25 21 17 15 14 13 13 13 15 18 20 21 20 19 19 20 19 20 21 22 23 23 24 26 26 26 27 25 24 24 23 22 22
48 45 44 41 37 35 32 29 30 26 26 30 27 24 22 18 18 19 17 16 18 22 24 22 20 20 19 19 21 22 23 24 25 27 27 27 27 28 28 26 26 25 23 23
51 49 49 45 42 37 34 31 33 30 27 31 30 30 28 23 20 21 20 17 18 21 22 25 22 21 21 20 20 23 24 25 27 28 29 28 27 26 28 28 27 26 25 25
64 62 57 52 39 39 36 40 41 33 31 34 34 33 29 28 26 24 22 16 18 21 21 22 25 24 25 23 21 23 26 27 29 31 31 29 27 27 27 28 27 28 27 26